GFSNGP_sfc_thetae_000.txt.gz
Theta_e
290 292 293 293 292 292 289 288 282 286 287 291 292 293 295 296 298 298 298 298 297 297 297 297 297 297 294 294 294 293 289 289 289 290 290 289 288 289 291 290 289 289 288 287
288 292 292 289 291 291 290 290 288 289 288 294 296 296 296 296 297 296 297 298 298 298 298 297 297 295 294 294 294 294 294 294 294 293 293 292 292 292 291 289 288 286 284 284
284 287 286 283 286 288 289 291 289 283 288 295 294 296 296 297 297 297 296 296 296 298 297 296 294 293 292 293 294 295 295 295 294 294 293 292 292 291 287 285 283 282 282 281
281 284 278 289 293 293 290 291 292 293 293 295 296 297 298 299 298 296 296 297 297 297 295 294 293 292 292 293 293 293 293 293 293 292 290 289 286 285 282 282 281 280 280 281
280 282 285 289 291 288 286 288 294 293 295 296 296 295 294 296 298 299 298 298 297 294 293 292 291 291 291 291 292 290 286 286 286 286 286 285 283 281 281 280 279 279 280 280
282 279 278 284 291 296 295 283 295 295 294 294 293 289 293 298 298 297 298 295 292 292 291 290 291 289 285 285 285 285 286 286 287 286 284 283 281 280 280 278 279 279 280 279
273 276 280 289 293 296 279 283 292 295 296 295 294 295 298 298 296 296 292 292 292 291 290 291 293 290 284 284 284 286 287 286 285 285 283 282 280 279 278 278 277 272 271 274
279 280 279 294 295 287 291 292 295 295 296 296 296 295 295 295 295 293 290 290 291 290 290 292 287 285 283 282 286 286 285 284 284 283 282 281 279 278 278 277 273 272 268 270
284 283 291 295 296 296 298 296 295 296 298 296 294 294 294 291 290 290 289 288 289 289 290 289 285 285 283 284 285 284 283 282 282 281 280 279 278 277 276 275 271 271 274 271
287 291 293 295 298 299 297 296 299 299 298 297 294 294 291 292 290 289 288 287 288 290 288 287 285 284 283 284 284 282 281 281 281 279 279 278 278 277 276 271 270 275 273 274
290 293 295 296 296 298 299 300 297 297 296 295 294 293 291 289 289 288 287 287 289 290 289 286 284 283 284 283 283 282 281 281 280 279 277 277 277 277 276 275 274 273 272 276
288 295 294 295 298 298 296 294 294 293 292 292 292 291 291 289 288 287 287 289 289 289 285 285 284 283 284 283 282 281 280 279 276 275 274 276 276 276 280 280 280 280 280 278
296 299 298 298 298 297 295 295 296 295 293 291 292 291 289 288 288 289 290 289 289 286 285 283 283 282 282 281 279 277 276 278 276 276 274 273 272 273 268 273 278 278 279 278
300 298 294 295 293 295 294 294 294 293 294 293 291 290 289 288 288 287 286 286 285 285 285 283 282 281 282 281 278 274 272 273 273 274 272 273 266 267 267 265 264 267 274 277
297 296 295 295 294 292 293 292 291 290 291 291 290 288 287 286 284 283 283 283 283 283 283 284 281 280 282 282 280 279 278 273 269 271 271 268 267 266 265 264 265 265 267 274
293 292 292 291 290 291 291 290 289 288 288 288 287 285 285 283 283 282 283 283 280 280 280 276 273 279 281 281 281 278 277 275 273 273 271 270 270 266 267 265 265 265 266 271
289 287 289 287 287 287 287 288 286 285 286 286 283 280 280 278 279 280 281 279 276 274 274 276 279 283 281 281 280 277 273 276 277 276 270 272 267 266 266 264 263 264 269 270
290 289 287 287 286 286 285 285 283 282 283 282 278 275 277 274 277 279 278 276 275 274 280 279 279 281 276 280 279 275 271 275 275 269 270 266 266 268 264 264 262 265 269 269
288 288 288 287 287 285 284 283 281 280 281 284 280 278 276 275 279 277 275 274 276 275 278 274 281 280 278 280 278 271 269 270 270 271 268 265 264 265 263 262 264 265 267 268
288 288 288 287 285 281 281 281 278 280 283 282 280 279 277 279 279 278 279 276 280 280 278 280 280 279 279 277 277 273 273 270 271 269 263 264 264 263 264 266 267 265 264 266
285 285 283 281 281 278 285 285 283 284 284 282 282 278 279 276 276 278 272 279 279 281 280 280 279 279 281 276 275 271 276 276 272 266 264 265 264 262 262 265 267 265 264 266
284 282 281 280 279 280 282 285 281 283 283 282 276 278 276 277 273 272 273 279 281 281 279 279 279 280 279 277 277 278 278 277 273 265 266 266 265 263 261 265 266 264 264 264
285 284 283 281 282 282 283 285 282 285 284 282 278 279 280 278 275 272 275 279 280 280 279 280 280 280 279 279 279 278 278 277 272 268 268 267 265 261 260 265 265 264 264 265
284 283 282 283 277 282 282 282 280 283 284 280 281 282 281 277 275 278 280 280 281 281 280 281 280 279 278 278 278 279 278 277 270 269 270 268 267 263 261 264 266 264 264 264
283 282 281 279 279 281 281 282 282 282 281 281 282 282 282 282 281 275 279 278 281 280 280 279 281 279 278 278 278 279 278 271 267 268 268 267 267 263 261 263 264 265 263 263
283 284 284 282 283 285 285 281 283 282 281 281 280 283 283 281 280 280 279 280 278 279 279 280 280 279 279 278 276 278 278 276 275 267 265 264 265 264 263 261 261 264 264 262
282 278 280 282 282 283 282 283 283 281 282 282 282 284 282 281 280 280 280 280 279 279 279 279 279 279 280 278 277 276 273 277 275 267 268 267 264 266 265 263 263 263 263 262

GFSNGP_sfc_thetae_003.txt.gz
Theta_e
288 290 291 291 290 291 288 287 284 286 286 289 291 293 294 296 296 296 297 297 297 298 297 296 296 295 294 293 293 293 291 288 288 290 290 288 291 292 291 291 291 289 288 286
285 290 290 288 290 289 290 289 287 287 286 291 294 295 295 296 296 295 295 296 297 296 296 296 296 294 293 292 292 293 291 292 294 294 293 293 293 292 291 292 291 287 284 283
278 286 284 280 284 287 288 288 288 283 287 292 293 294 295 295 295 295 295 295 295 295 295 295 293 292 291 291 292 291 291 293 294 293 293 292 292 292 291 286 284 283 282 282
277 284 275 288 291 291 289 290 290 290 292 293 294 296 296 297 295 294 296 296 295 296 294 293 292 291 290 290 290 291 290 287 288 289 288 286 285 284 282 282 281 280 281 281
282 281 283 288 290 287 286 286 292 292 293 294 296 293 292 296 294 294 294 295 296 294 292 291 289 288 286 285 286 286 286 286 287 286 284 283 282 281 281 279 279 280 281 280
281 279 278 285 289 292 293 283 293 293 293 294 293 288 292 296 295 295 295 296 293 292 291 289 290 286 287 285 285 284 287 286 285 284 283 281 280 279 279 279 279 280 279 279
281 279 280 288 291 293 282 284 292 294 295 293 291 295 296 295 294 295 295 293 292 290 289 289 289 286 283 283 283 285 285 285 284 284 283 281 279 279 278 278 277 273 271 273
280 278 277 292 294 287 292 293 293 293 293 293 295 294 294 294 294 294 290 290 289 288 288 289 285 284 282 281 283 283 284 283 282 282 281 280 278 278 277 276 274 272 268 270
285 284 291 293 296 297 297 294 292 293 297 297 294 293 292 292 293 291 289 287 287 286 288 289 285 284 283 283 283 282 282 281 281 281 280 279 277 277 276 275 272 271 274 272
287 292 293 296 298 300 297 295 299 296 294 291 289 290 291 292 291 289 288 286 285 287 287 287 289 285 284 284 283 282 281 281 280 279 278 277 277 277 276 272 271 275 273 273
291 295 296 296 297 297 299 296 293 294 293 292 291 290 291 290 289 288 286 286 287 287 287 287 286 282 283 282 282 281 281 281 279 278 277 277 277 277 276 275 273 273 271 274
289 296 295 296 297 296 294 293 293 293 292 293 291 290 290 289 288 286 285 286 288 287 286 284 282 281 282 283 281 280 280 280 276 274 274 276 275 276 279 279 279 279 279 276
295 299 299 297 294 294 293 293 295 294 293 289 290 289 289 288 287 287 288 288 286 286 283 282 281 281 280 278 278 277 275 277 275 274 275 274 272 271 267 271 277 277 277 277
299 299 295 294 291 293 292 291 291 291 291 291 290 289 288 287 287 285 284 284 283 282 282 281 280 279 281 280 278 273 271 271 269 269 269 271 267 267 263 264 263 267 273 275
295 295 294 293 292 290 290 291 289 288 288 287 288 286 286 285 284 283 284 283 282 282 280 280 278 279 280 281 279 278 279 274 267 268 267 267 268 264 263 263 264 265 266 270
291 291 291 289 290 289 287 286 286 285 284 284 284 284 284 282 283 283 282 280 279 277 278 272 273 280 282 283 281 278 278 274 270 273 268 268 266 264 266 264 263 264 263 267
286 286 286 284 284 283 284 285 285 284 283 283 281 280 282 281 280 279 279 276 271 271 278 279 278 282 280 281 281 277 273 273 276 273 269 268 265 264 264 262 262 263 263 266
287 287 286 285 285 284 284 285 284 282 282 283 281 283 281 280 278 276 276 273 270 276 278 274 273 280 277 281 280 273 269 272 274 268 267 264 264 264 262 262 264 264 264 266
288 288 288 288 287 285 284 283 282 279 278 277 277 282 280 279 275 279 275 273 273 277 277 277 280 280 279 279 280 276 269 268 268 269 266 263 262 263 261 261 264 262 263 265
286 287 287 286 285 282 282 281 283 283 284 282 279 277 280 279 275 277 275 274 275 279 279 279 279 278 277 278 277 273 271 270 272 267 261 262 260 259 259 262 266 262 261 262
282 283 282 281 281 280 276 280 281 282 284 284 282 282 280 278 273 273 275 278 277 279 281 280 278 278 280 278 278 271 275 276 274 264 262 261 259 259 259 259 262 261 261 262
283 281 280 280 279 280 281 278 279 284 283 284 284 282 274 277 277 278 278 278 280 281 279 278 278 279 278 278 278 277 277 277 274 265 265 262 258 258 258 258 262 261 262 262
283 282 282 279 279 281 280 278 280 281 281 284 284 279 279 279 279 278 277 276 280 280 279 279 279 280 278 278 277 278 277 276 276 265 267 266 263 258 257 259 260 261 261 262
282 282 282 282 279 276 277 282 279 279 279 280 278 282 281 279 278 279 279 277 279 277 279 280 280 278 278 275 277 277 277 277 275 265 267 267 263 260 257 257 260 258 260 262
280 281 280 278 279 281 281 282 279 278 279 278 279 281 281 282 280 276 274 273 277 279 279 279 273 272 271 276 276 277 277 276 271 268 265 265 266 265 258 257 257 257 258 261
282 283 283 282 282 282 282 282 282 283 281 280 275 278 281 282 282 280 279 279 277 278 278 278 277 273 272 273 275 273 271 273 274 269 265 264 263 268 264 259 257 258 259 260
280 276 281 282 282 281 283 283 283 283 282 277 275 278 282 281 280 280 278 279 278 278 278 278 278 278 269 268 267 269 273 272 269 270 269 268 268 268 267 267 263 261 258 258

GFSNGP_sfc_thetae_006.txt.gz
Theta_e
287 289 288 289 288 289 286 286 284 287 285 289 291 290 293 295 295 296 296 296 295 296 298 297 297 297 294 293 293 292 291 291 289 292 291 290 290 290 291 291 291 292 291 287
283 287 287 285 288 288 288 288 287 288 287 292 291 292 294 295 295 295 294 294 296 295 295 296 296 293 292 292 292 292 291 291 293 294 294 292 292 291 291 291 291 291 287 282
277 284 283 279 283 286 287 288 287 283 288 289 290 293 293 294 294 294 293 293 292 292 294 295 293 291 291 291 291 291 291 289 289 290 291 290 291 290 288 285 283 281 281 281
277 284 276 286 290 290 288 288 289 288 288 291 292 293 294 295 293 291 292 293 293 294 294 292 292 290 288 287 287 286 286 287 288 287 285 284 283 282 281 281 280 280 280 281
282 281 283 288 289 286 285 285 289 288 291 292 293 291 291 293 293 294 294 294 294 294 292 290 289 286 284 284 284 285 286 286 286 284 282 282 281 280 280 279 279 279 281 279
281 279 277 285 288 291 292 281 290 294 294 294 292 286 292 294 294 294 294 294 293 292 290 289 289 287 286 285 284 283 284 283 283 282 281 279 278 278 279 278 279 279 278 278
284 280 281 288 290 293 282 284 292 293 295 292 289 292 291 292 292 292 293 293 292 290 287 289 289 286 284 282 282 283 283 282 282 281 280 279 278 278 277 277 277 273 271 273
279 279 276 290 291 286 291 294 295 295 293 294 293 292 291 291 291 291 291 290 290 287 287 289 289 284 283 282 283 283 282 281 280 280 280 279 277 277 277 275 273 271 268 270
286 283 290 293 295 296 296 295 293 292 293 292 290 289 290 289 290 290 291 289 288 285 286 288 287 286 285 286 283 282 281 280 280 280 279 279 277 276 276 274 271 271 274 273
288 291 294 297 298 297 296 296 294 293 292 292 290 291 289 289 289 289 288 287 285 285 286 286 287 287 283 282 282 281 281 280 280 279 278 277 277 277 276 272 271 274 272 272
289 295 295 295 294 295 294 295 294 294 293 291 290 288 288 288 287 287 287 285 285 286 286 285 285 284 282 281 281 280 281 281 279 278 277 277 277 276 276 275 272 274 271 271
289 294 295 296 296 297 294 293 293 292 290 291 290 287 288 287 287 286 286 286 285 286 285 285 284 282 281 281 280 280 280 279 275 274 274 276 275 275 279 278 279 278 278 275
295 300 298 297 296 295 292 291 292 290 289 287 287 287 286 285 286 287 286 285 284 283 283 281 281 281 280 278 276 276 274 275 273 274 272 271 271 271 267 271 276 277 277 276
298 297 292 291 291 293 293 290 289 289 288 288 287 286 285 284 285 284 284 283 282 282 281 280 280 280 280 280 278 272 271 271 271 270 268 268 264 266 264 263 262 266 271 274
293 293 292 293 292 290 288 286 285 284 285 285 284 284 284 283 283 283 284 282 282 282 280 280 278 279 281 282 280 278 278 273 267 265 265 265 264 264 262 262 262 265 268 269
290 290 289 286 285 285 285 284 283 283 283 283 283 283 283 282 282 283 283 281 277 278 278 277 278 279 281 282 281 278 277 273 269 269 267 267 265 264 265 264 265 267 265 265
286 285 285 283 283 284 284 283 283 283 283 283 282 279 282 281 278 280 278 274 271 272 276 278 274 281 280 282 281 275 271 272 271 270 268 266 264 263 262 264 265 267 263 263
285 285 285 285 285 284 283 283 282 282 282 282 277 278 282 280 278 279 272 272 271 278 278 274 274 278 277 281 280 277 273 269 269 267 267 263 263 263 261 262 265 264 264 265
285 286 286 286 285 284 283 283 282 281 277 284 282 280 281 282 279 275 276 278 276 277 276 276 280 280 278 278 279 277 275 270 267 268 264 262 260 261 258 257 261 260 262 264
283 283 283 283 283 280 281 281 279 280 281 281 284 282 282 282 281 275 277 278 277 278 279 279 279 278 277 277 277 276 270 270 272 266 260 261 257 257 256 258 261 260 259 260
281 282 280 279 279 279 277 278 276 278 280 277 284 284 283 283 276 275 275 277 279 278 280 279 278 278 279 278 278 277 275 276 269 264 261 261 259 257 255 254 256 258 258 260
282 280 278 278 278 279 280 278 277 276 277 281 284 283 284 276 276 275 276 280 280 280 279 278 278 278 278 278 277 277 277 277 274 267 262 262 262 260 257 255 256 258 257 259
282 281 280 277 277 281 281 279 278 277 277 279 282 283 282 278 276 274 275 277 277 279 279 274 277 280 279 276 276 277 277 277 275 273 268 267 265 264 259 257 256 257 256 258
281 280 280 280 277 276 277 281 280 279 277 277 277 283 281 276 276 275 276 279 279 275 271 273 279 278 278 275 276 276 277 277 276 269 264 261 259 262 260 256 257 255 254 256
279 279 278 276 278 281 281 281 281 280 278 278 282 281 278 278 276 273 271 273 274 273 273 276 277 273 272 276 277 274 273 277 277 273 264 262 263 261 261 257 259 260 256 255
280 281 281 280 281 282 281 281 282 283 283 283 281 277 273 278 278 279 280 279 273 273 276 275 277 275 271 271 275 277 272 272 271 272 269 268 266 268 268 266 262 262 261 262
278 276 278 279 280 281 281 283 284 284 285 284 282 273 277 281 281 280 279 278 277 276 271 274 274 276 276 268 268 267 269 270 270 270 270 269 268 267 269 268 267 265 262 261

GFSNGP_sfc_thetae_009.txt.gz
Theta_e
290 291 291 290 290 291 289 291 286 289 290 294 296 296 297 300 300 299 300 300 299 297 296 297 298 298 297 297 297 297 296 296 295 296 296 294 293 294 294 294 294 294 293 292
286 289 288 286 290 290 291 291 290 291 290 297 298 297 298 298 298 297 297 295 295 295 294 296 297 296 295 295 295 296 295 292 291 292 293 292 293 293 293 291 289 287 287 286
283 286 286 283 286 289 290 292 291 287 292 294 295 296 297 298 297 294 292 293 293 294 295 296 296 295 294 294 294 294 291 291 291 292 290 289 288 288 287 287 287 286 286 286
284 285 279 290 293 293 291 292 293 291 293 294 296 298 298 296 294 292 293 292 293 294 296 297 296 294 293 292 291 291 290 291 291 289 287 287 287 286 285 285 285 284 285 284
282 283 286 290 292 291 289 289 293 294 295 296 298 298 294 294 294 292 292 294 294 297 297 295 293 294 290 290 289 289 290 289 288 287 286 286 285 284 284 284 284 284 283 282
284 281 279 289 291 294 294 286 295 296 296 296 296 288 293 292 293 294 294 295 295 297 295 293 293 294 292 291 290 289 288 287 287 286 285 284 284 283 284 283 283 282 281 282
284 282 286 291 293 294 285 287 294 296 297 295 291 291 292 293 293 294 295 293 296 296 292 292 294 293 290 288 287 289 287 286 286 285 285 285 283 284 283 282 282 281 280 281
282 281 279 293 293 290 295 297 296 296 296 292 293 292 292 293 293 292 293 293 294 293 292 292 293 291 289 288 291 291 287 286 285 285 284 283 283 283 282 282 281 280 279 280
287 287 293 295 297 299 297 296 294 294 293 292 291 290 292 292 292 292 292 293 293 292 291 291 293 292 289 291 291 289 286 285 285 285 284 283 282 282 281 281 280 279 278 278
289 294 295 297 299 298 297 294 295 295 294 293 292 292 292 292 292 291 291 291 292 290 290 290 293 291 290 290 288 286 285 285 285 284 284 284 283 282 281 281 279 278 278 276
290 295 296 296 298 297 295 296 295 295 294 293 293 292 291 291 290 290 290 290 290 290 290 291 291 290 288 286 286 285 285 285 284 284 283 282 282 281 281 281 279 278 277 277
290 297 296 296 298 297 294 293 294 293 292 292 292 291 290 289 289 289 289 289 289 288 288 287 286 285 285 285 284 284 283 283 283 282 282 281 280 280 280 279 279 278 278 277
297 299 298 296 296 296 293 292 291 290 290 288 290 290 289 288 289 288 288 288 287 286 285 285 284 284 284 283 282 282 282 282 282 280 281 280 279 279 277 278 277 276 276 276
297 297 292 292 291 293 290 290 290 289 289 288 289 289 288 287 288 287 287 287 287 285 285 284 283 283 284 284 283 280 281 276 281 281 280 279 279 278 277 276 274 275 275 274
293 294 293 291 290 289 290 289 288 287 287 287 288 288 288 287 287 286 287 287 285 284 284 283 282 282 284 283 282 281 282 282 281 280 280 277 278 278 277 276 275 274 274 274
290 288 289 288 288 288 288 288 286 286 286 286 287 287 287 286 285 285 285 285 280 281 281 280 281 281 282 283 282 282 282 278 276 280 280 279 278 277 276 276 275 274 273 272
287 286 287 286 287 287 287 287 286 285 286 286 285 283 283 283 282 282 283 280 278 277 280 281 280 282 281 282 282 282 281 281 275 280 279 278 277 276 276 275 274 273 273 272
288 288 287 286 286 286 286 287 286 285 284 285 282 283 282 281 281 282 283 280 278 279 281 281 280 281 281 282 282 281 280 279 280 279 279 278 277 276 275 274 274 273 273 272
286 285 286 285 286 285 285 285 284 284 282 281 279 281 284 284 283 283 282 279 279 279 281 280 281 282 281 281 281 280 279 280 280 279 277 275 277 276 275 274 274 274 273 272
285 285 286 285 285 282 282 283 282 282 283 281 279 280 283 285 285 284 280 280 282 283 282 282 282 281 281 280 280 280 280 280 279 279 277 276 276 276 275 271 272 274 273 272
283 284 282 281 281 281 278 279 279 280 282 281 277 279 283 285 285 282 279 280 283 282 282 282 282 281 282 281 281 281 280 280 280 279 278 277 275 276 275 274 274 274 274 273
284 282 280 280 279 281 282 282 282 280 279 279 279 281 284 284 285 281 280 281 284 280 283 283 282 281 282 281 281 281 280 281 281 280 279 277 276 276 276 275 273 274 274 273
283 282 282 280 279 282 282 281 280 279 279 280 281 282 282 284 285 282 280 283 282 281 283 283 279 282 282 283 281 281 280 280 280 280 279 278 277 276 275 275 275 273 273 273
283 282 282 282 279 279 280 284 283 282 282 282 282 282 283 283 284 282 283 282 282 282 282 281 281 281 277 282 281 281 281 281 281 281 279 273 276 275 275 274 273 274 272 270
281 281 281 279 281 282 282 283 282 283 284 284 285 284 284 283 283 283 282 283 280 281 282 277 280 279 281 281 281 280 279 279 280 281 280 278 277 276 276 275 273 273 273 272
283 283 283 281 281 282 283 284 283 283 284 284 285 286 283 282 283 282 282 282 281 278 282 282 282 281 281 280 280 279 279 279 279 279 278 279 278 277 276 276 275 273 273 273
281 277 281 283 284 284 283 283 283 283 284 284 284 285 282 283 284 284 282 282 282 282 282 281 282 281 281 280 279 278 278 278 276 277 277 277 277 277 276 276 277 276 274 272

GFSNGP_sfc_thetae_012.txt.gz
Theta_e
295 296 295 294 293 294 293 294 289 292 293 297 299 300 301 302 304 303 303 303 302 301 299 299 299 301 302 300 299 300 299 299 297 297 297 296 295 295 295 295 293 292 291 291
290 294 294 292 294 294 294 295 295 295 294 300 300 302 301 301 301 300 300 299 296 296 297 297 299 300 298 297 298 300 298 296 296 295 295 294 294 293 292 291 291 291 290 290
288 291 291 288 292 293 294 296 295 291 296 299 299 299 300 301 300 297 295 294 295 296 296 298 300 298 297 297 298 297 296 295 294 294 293 292 291 290 289 290 290 289 289 289
288 288 283 293 298 297 295 296 298 297 297 299 300 301 303 300 297 293 294 295 296 297 297 299 300 298 298 297 296 296 295 294 294 292 291 290 289 289 289 289 289 288 288 287
285 285 290 292 295 294 292 293 298 297 299 301 301 302 300 295 294 295 297 297 297 298 299 300 299 298 298 297 296 295 293 292 292 291 290 289 288 288 289 288 288 287 287 286
287 283 282 293 296 298 298 290 299 299 298 298 299 290 291 295 298 297 297 297 297 297 299 300 299 299 297 296 295 293 293 293 292 291 289 288 288 288 289 288 287 287 285 286
287 285 289 297 297 299 287 291 300 297 297 296 291 292 296 297 296 297 297 296 297 297 297 298 299 298 296 295 293 293 293 293 292 291 289 289 289 289 288 287 286 284 284 283
287 283 282 298 297 291 298 300 297 297 296 294 295 295 296 295 295 295 295 295 296 295 295 296 297 296 295 294 294 294 294 293 291 290 289 288 288 288 288 287 284 283 283 283
291 293 300 302 301 303 302 300 295 296 298 296 295 294 294 293 294 294 295 295 295 294 294 295 295 296 294 294 294 293 291 291 290 289 289 289 288 287 286 285 282 281 280 280
294 297 300 302 304 303 300 296 298 298 296 295 294 293 292 293 294 294 294 293 294 293 291 292 294 294 293 293 292 291 291 289 290 289 288 289 288 286 284 282 281 280 279 279
295 299 300 301 301 301 298 297 296 296 295 294 292 292 292 292 292 292 292 293 292 291 291 291 292 291 292 290 289 288 288 288 288 288 287 287 286 285 284 283 281 279 279 279
291 299 297 298 298 299 297 295 294 294 292 292 292 292 292 291 291 291 291 292 291 291 290 290 290 290 289 289 288 286 286 287 287 287 287 285 285 284 281 279 278 278 277 277
297 299 299 299 298 298 295 294 292 292 293 292 293 291 291 291 291 290 292 291 291 290 290 290 289 287 288 287 286 285 285 285 286 284 284 283 283 281 280 282 278 277 276 276
299 299 296 297 295 294 293 293 294 294 293 292 291 292 291 291 291 291 291 292 292 291 290 288 287 286 287 286 285 285 284 282 285 285 284 283 282 281 281 279 279 279 278 276
296 299 297 295 294 293 294 293 291 290 291 291 292 291 292 290 290 290 291 291 290 289 288 287 286 285 286 285 283 283 284 284 284 284 283 282 281 281 280 279 279 278 278 277
294 294 293 291 291 291 290 290 289 289 290 290 290 290 290 290 290 289 287 287 285 284 285 284 283 284 284 285 283 283 283 281 282 282 282 281 281 280 279 279 279 278 277 275
290 288 288 287 287 288 288 289 289 289 289 289 288 289 288 287 285 286 286 285 285 283 283 284 284 285 283 284 283 283 283 283 280 282 281 281 280 279 279 279 278 278 277 276
289 289 289 289 288 288 288 289 289 288 288 288 286 285 284 284 285 286 286 285 284 283 284 284 284 283 283 283 283 283 283 283 283 281 281 281 280 280 279 279 278 277 278 277
289 288 289 289 290 289 288 288 288 287 286 286 285 284 284 284 286 287 286 285 283 282 285 284 282 282 283 283 282 282 282 283 282 281 281 280 280 280 279 279 279 278 278 277
288 289 290 290 289 287 286 287 286 286 287 286 285 284 284 284 285 286 286 285 285 286 286 285 284 283 283 283 282 282 282 282 282 282 282 280 280 279 279 278 278 278 278 277
287 288 288 287 287 286 285 285 284 284 286 285 283 283 283 284 286 286 285 285 288 286 285 284 284 284 284 283 283 283 283 283 282 282 282 281 280 280 279 279 278 278 278 277
288 288 286 286 285 286 287 287 287 285 284 284 284 283 283 285 286 286 286 285 288 284 286 285 286 284 284 282 284 284 283 283 283 283 282 281 280 279 279 279 278 278 278 278
287 287 287 286 285 286 287 286 285 285 284 284 284 284 284 285 285 285 284 287 288 286 286 286 285 283 283 285 284 284 283 283 283 282 282 281 281 280 279 279 279 278 278 278
288 288 287 287 286 285 285 287 287 288 285 286 286 286 286 286 286 289 287 286 284 284 285 286 284 283 282 285 284 284 283 283 283 283 283 281 281 280 280 279 279 279 278 277
287 287 286 285 286 287 286 286 285 285 286 286 286 286 287 288 285 287 287 286 284 284 285 284 282 283 283 284 284 283 282 282 282 282 282 282 282 281 281 280 279 279 278 278
288 288 289 288 288 287 287 287 284 286 286 285 285 286 286 287 286 286 286 285 286 285 285 286 284 284 284 284 283 282 282 282 281 281 281 281 282 281 281 280 280 279 279 279
288 286 287 288 290 289 288 287 286 285 285 285 284 286 286 286 285 285 285 286 285 285 285 285 285 284 284 283 283 282 282 282 280 280 280 280 280 280 280 280 280 280 280 279

GFSNGP_sfc_thetae_015.txt.gz
Theta_e
297 297 296 295 295 296 294 295 291 294 294 298 300 301 302 304 305 303 303 304 303 303 302 301 300 301 302 302 301 300 299 299 298 298 297 296 296 295 294 293 292 292 292 292
292 296 295 293 295 296 296 296 296 296 294 302 303 304 303 302 303 301 301 301 301 299 299 298 299 300 301 300 300 299 298 297 298 297 295 295 294 293 292 292 291 291 291 291
289 295 293 289 294 295 296 297 297 292 297 301 300 300 299 300 301 301 298 297 299 298 299 299 299 300 300 299 300 298 297 297 296 296 295 294 292 291 291 290 291 290 290 290
290 289 284 296 301 299 297 298 299 299 300 301 300 301 301 302 301 298 298 299 299 299 298 299 300 300 301 300 299 298 297 296 296 295 294 292 292 290 290 290 290 289 289 289
287 288 291 295 297 296 295 294 300 299 301 302 302 302 299 300 300 299 299 300 299 299 298 298 299 299 299 298 297 297 296 294 294 294 293 291 290 290 290 290 289 288 288 287
290 284 283 294 299 301 301 290 301 301 300 299 299 292 295 301 301 300 300 299 298 298 298 298 297 298 297 296 295 295 295 294 295 293 292 291 290 290 290 290 288 288 287 286
288 287 290 298 300 302 288 292 302 302 300 297 294 296 299 300 299 299 298 297 298 298 296 297 297 296 294 294 294 295 295 295 295 294 292 291 290 290 289 289 288 287 286 286
290 285 283 301 299 293 299 304 302 299 297 296 298 298 298 297 296 296 296 297 297 296 295 296 295 294 293 293 295 296 296 294 293 293 291 290 290 290 289 288 287 285 285 284
294 294 302 303 301 304 305 303 300 296 298 299 297 296 296 295 295 295 295 295 295 294 294 294 294 293 291 293 294 294 293 292 292 291 291 290 289 288 287 287 284 283 282 282
297 299 300 301 304 304 304 302 300 298 299 297 296 295 294 294 294 294 293 293 293 293 292 292 293 293 292 292 292 291 290 290 290 289 289 289 289 288 286 285 282 281 280 280
298 301 300 303 302 302 302 301 298 300 298 297 295 294 294 293 292 292 292 292 293 292 292 292 292 292 292 291 290 289 288 288 288 289 288 288 287 287 286 285 282 280 280 279
294 301 299 300 301 302 300 299 298 296 295 296 296 294 293 292 292 292 292 292 292 292 292 292 291 290 290 291 289 287 286 287 288 288 287 286 286 285 282 280 279 278 277 278
301 304 301 300 300 302 299 297 296 296 296 294 294 293 293 292 292 291 292 292 291 291 292 291 290 288 290 289 288 285 284 284 285 285 285 284 284 282 281 283 280 279 277 277
302 301 295 298 297 298 296 296 296 295 294 293 293 293 292 291 292 291 291 292 292 292 290 290 289 288 289 289 287 285 284 284 285 284 284 284 282 281 281 280 280 281 280 277
298 299 300 300 298 296 296 294 292 291 292 291 292 291 291 290 290 291 292 292 290 289 290 289 288 288 288 287 285 284 283 283 284 284 284 283 283 282 282 281 281 281 281 280
298 298 297 294 293 292 291 291 290 290 290 290 290 290 291 291 291 291 291 290 286 285 286 285 284 286 287 287 286 286 285 283 283 283 283 283 282 281 281 280 280 280 280 279
294 292 290 289 289 290 290 291 290 289 290 290 289 289 289 288 287 288 289 289 287 285 286 284 284 287 286 286 284 285 284 284 283 283 283 282 281 281 281 280 280 279 280 278
293 291 291 290 290 290 290 290 290 289 289 289 287 286 285 285 285 286 286 287 286 285 286 285 286 285 284 285 284 284 283 283 283 283 282 282 282 281 281 280 280 280 280 279
290 290 290 290 291 291 290 289 289 289 287 287 286 285 286 285 286 287 287 285 285 285 287 287 284 283 284 283 282 283 283 283 282 283 283 282 282 282 281 281 280 280 280 279
289 290 291 291 291 289 289 289 288 288 289 288 286 285 285 285 286 285 286 285 286 288 288 287 285 285 284 284 282 283 283 283 282 283 283 283 282 282 281 281 281 280 280 279
288 289 289 290 289 289 287 287 286 286 288 287 285 284 284 284 285 285 286 286 288 287 288 286 286 286 286 285 284 285 284 283 283 283 283 283 282 281 281 281 281 281 280 279
289 290 288 288 288 288 290 290 289 287 286 285 285 285 284 284 285 286 287 287 290 285 287 287 287 286 286 283 285 286 284 283 283 284 283 283 283 281 280 281 281 281 280 280
289 289 289 288 287 289 289 288 286 286 285 285 285 285 286 285 286 285 285 289 289 288 287 288 287 284 283 284 285 285 284 284 283 283 283 283 283 282 281 280 280 280 280 280
289 289 290 290 289 288 286 289 289 288 287 286 286 286 287 285 286 289 290 287 285 284 285 287 285 283 283 284 284 285 284 284 284 284 284 283 284 283 282 281 280 281 280 280
290 289 289 288 288 289 289 290 289 289 288 288 288 289 288 288 286 287 287 287 285 285 286 285 284 283 284 284 285 284 284 284 284 283 282 284 284 284 283 282 281 281 280 281
289 290 290 290 291 291 291 290 289 289 287 287 289 288 288 288 287 287 287 286 287 287 287 286 285 284 284 285 285 284 284 283 282 282 282 281 281 282 282 282 282 281 281 281
290 287 290 291 291 291 292 290 288 287 286 286 285 287 288 287 287 286 286 286 286 286 286 285 285 285 285 285 285 284 284 284 282 281 281 280 280 280 280 280 281 281 282 282

GFSNGP_sfc_thetae_018.txt.gz
Theta_e
297 296 296 295 294 295 293 294 289 292 293 297 300 301 302 303 303 303 303 303 302 302 301 300 300 300 300 301 301 300 299 297 297 298 297 295 295 295 294 293 291 291 290 290
293 296 295 292 294 295 295 295 295 295 294 301 303 303 301 301 302 302 301 300 300 300 300 299 299 299 299 300 300 300 298 297 298 297 297 295 294 294 293 291 290 290 289 289
290 294 292 290 295 295 296 297 296 292 297 301 300 300 300 300 302 300 299 298 299 299 299 298 297 298 297 298 300 299 298 298 297 297 295 295 294 292 291 289 289 288 288 288
289 289 283 295 299 299 296 297 298 298 300 301 300 300 301 301 299 298 298 298 299 299 298 298 297 297 297 297 296 296 297 296 296 296 295 294 293 291 290 289 288 287 287 286
287 287 290 294 297 295 294 293 300 299 300 300 300 300 299 301 301 299 300 300 298 297 297 297 297 296 295 295 294 294 294 294 295 295 293 293 292 290 288 288 287 287 287 285
288 284 282 295 299 302 300 289 302 301 299 298 298 291 294 299 300 299 298 297 296 297 297 296 295 295 293 293 292 292 295 295 295 295 294 291 290 289 288 288 287 286 285 284
288 286 290 298 300 302 287 291 302 301 300 298 294 296 298 299 298 297 296 296 297 296 294 294 294 294 292 291 291 293 294 294 294 294 292 291 290 289 288 286 285 283 283 283
289 286 283 301 299 292 300 303 303 301 299 297 298 298 298 297 295 295 294 294 294 293 292 294 294 293 291 290 292 293 292 292 292 293 292 291 289 288 287 285 283 281 279 280
294 293 302 305 301 304 305 303 300 300 299 299 298 295 295 293 294 294 293 292 293 292 292 293 293 292 290 291 292 291 290 289 290 290 290 290 288 285 283 283 281 280 280 278
298 299 300 303 304 304 303 301 301 300 300 300 296 295 293 294 293 292 292 291 292 291 291 291 293 293 292 291 291 290 288 288 288 288 288 287 287 285 283 281 280 280 278 277
298 301 302 303 303 303 301 301 300 300 299 296 295 294 294 292 292 292 292 292 292 291 291 291 292 292 291 290 290 288 287 287 286 286 286 285 285 283 282 281 279 278 277 276
295 302 301 301 302 302 300 298 300 296 295 296 295 292 292 291 292 292 291 291 291 291 291 291 291 290 290 290 289 286 284 284 284 284 284 284 283 282 283 281 281 280 278 275
300 304 303 301 301 301 300 300 297 295 295 292 292 292 291 290 291 290 291 291 290 290 291 290 290 289 290 288 287 285 283 283 282 283 284 283 283 282 280 282 283 282 280 279
303 302 298 299 297 299 298 297 296 295 293 293 291 291 290 290 290 290 290 291 291 291 289 289 289 288 289 288 286 283 283 283 284 284 283 283 281 281 281 280 278 280 281 279
300 301 300 300 300 297 297 294 291 291 291 290 290 290 290 289 289 289 291 291 291 290 288 288 287 286 288 287 285 284 283 282 283 283 283 282 282 282 281 280 280 279 278 278
300 300 300 297 294 292 291 291 289 289 289 289 289 289 289 289 289 288 289 289 285 285 287 285 284 285 286 286 285 284 283 281 282 282 282 282 281 280 280 280 279 279 278 275
295 294 292 290 290 290 290 290 290 289 289 289 288 287 287 286 285 286 286 286 285 285 286 285 285 286 286 286 284 283 283 283 282 282 282 282 281 281 280 280 279 279 278 274
297 294 292 290 290 290 291 290 289 289 288 289 285 282 281 281 283 284 284 285 285 286 286 286 285 285 284 285 283 282 282 281 282 282 282 282 282 281 280 280 279 279 278 276
292 291 291 290 291 291 290 289 288 287 284 284 283 283 283 283 284 285 285 284 283 284 286 286 284 283 283 283 283 282 282 282 282 282 282 282 281 281 281 281 280 279 278 278
290 290 291 291 290 288 287 288 286 287 288 286 282 283 283 282 285 284 284 283 284 286 287 287 285 283 282 283 281 282 282 282 282 281 282 282 282 281 282 280 280 280 280 279
289 289 288 288 288 286 285 285 283 285 287 283 283 284 284 284 285 285 283 283 286 286 287 286 285 284 285 285 283 282 282 283 282 282 282 282 282 282 281 281 281 281 280 279
290 288 285 285 286 287 287 288 288 285 284 283 285 285 284 283 284 284 285 284 287 286 286 286 286 285 285 283 283 284 282 283 283 282 282 282 282 282 281 280 280 280 280 280
288 288 287 286 285 288 288 287 285 285 285 285 284 284 285 284 285 284 283 286 288 286 286 286 286 285 284 284 283 283 282 282 282 282 282 282 282 282 281 281 280 280 279 279
289 288 288 288 287 286 286 288 288 287 285 285 284 285 286 285 286 287 288 286 286 285 285 285 285 284 283 283 283 282 282 283 283 283 283 282 283 283 281 280 280 281 280 280
287 288 288 286 287 287 288 289 288 288 287 288 287 287 287 287 286 286 287 286 286 285 285 285 285 284 284 283 283 282 283 283 282 283 282 282 281 281 282 282 282 281 281 280
288 288 289 289 289 289 290 290 289 289 289 287 287 286 287 287 287 287 287 286 286 286 286 286 285 285 284 284 283 283 283 283 283 282 282 281 281 280 280 281 281 281 281 281
289 287 289 290 291 291 290 290 289 288 287 286 285 286 286 286 286 286 286 286 286 285 286 286 286 285 285 284 284 284 284 283 283 282 282 281 280 280 280 279 279 280 280 280

GFSNGP_sfc_thetae_021.txt.gz
Theta_e
293 293 293 291 291 291 289 289 283 286 290 294 295 296 298 299 300 299 298 298 298 297 296 296 295 295 295 295 296 296 296 295 294 295 295 292 293 294 293 291 289 288 287 287
286 294 292 289 291 292 292 292 291 291 291 298 298 298 297 298 298 297 296 297 297 297 296 296 294 293 294 293 294 296 295 295 296 295 294 294 293 293 292 290 287 286 286 286
282 289 287 281 289 292 292 294 292 285 292 296 295 295 295 295 296 296 295 295 296 296 296 294 292 293 291 291 292 292 292 293 294 294 294 294 294 293 291 287 285 285 285 285
278 280 272 291 296 296 293 294 294 295 295 295 294 295 296 296 295 294 295 296 297 297 295 292 292 291 291 291 290 290 290 292 293 293 292 292 292 291 288 286 285 284 284 283
278 279 284 291 295 293 290 289 297 296 296 295 296 296 293 296 296 294 296 296 294 292 291 290 290 290 289 289 289 289 291 291 292 292 291 290 289 287 288 286 285 284 283 282
281 273 271 287 296 299 297 282 298 298 295 294 294 282 289 295 296 296 293 291 291 291 290 289 289 289 288 287 287 289 290 290 291 291 291 290 288 288 287 284 284 283 283 282
276 272 282 294 298 299 282 283 297 297 295 293 289 290 294 296 296 292 291 291 290 289 287 288 289 289 287 287 287 289 289 290 290 290 290 290 288 287 285 282 281 279 279 280
282 280 276 298 297 287 291 298 298 296 294 295 296 296 296 293 291 291 289 288 289 287 287 288 289 288 287 286 288 289 288 288 287 288 289 290 287 286 283 280 279 277 270 273
286 284 294 298 296 298 300 298 295 295 298 297 296 295 292 291 291 289 287 287 288 287 287 288 289 289 287 287 288 288 286 285 285 285 286 286 282 280 280 279 275 275 277 271
290 295 297 298 300 300 299 297 298 299 298 298 295 292 290 290 288 287 287 286 287 287 287 287 288 289 288 287 288 286 284 284 284 283 284 283 282 281 279 275 273 277 274 272
289 295 297 299 300 299 298 299 299 300 299 294 292 290 288 287 287 287 286 287 287 287 287 287 288 288 287 287 287 285 283 283 281 281 281 281 281 279 279 277 276 273 272 272
285 296 296 296 298 300 299 298 298 297 292 293 290 288 288 286 286 286 286 287 287 288 287 287 287 287 287 287 285 283 281 280 279 278 278 280 279 279 283 281 282 282 280 271
296 300 299 298 299 300 298 298 297 293 292 288 288 287 286 286 287 287 287 287 288 288 288 286 285 286 287 284 283 282 281 281 278 278 278 280 280 280 278 278 283 283 282 280
301 299 295 297 295 299 298 295 295 291 290 288 287 287 287 286 287 286 286 287 288 288 287 286 287 286 286 286 283 280 279 278 277 276 279 280 279 279 279 274 274 273 280 281
298 298 297 297 298 295 294 290 288 287 287 286 287 287 286 285 285 285 286 287 286 285 285 285 286 286 287 285 284 282 281 278 277 279 280 280 280 279 279 278 277 273 274 275
298 298 298 297 297 290 289 288 286 285 286 286 286 285 286 285 285 285 285 284 282 282 283 281 284 285 285 284 284 281 280 278 277 280 279 279 279 278 278 278 278 277 270 270
295 294 293 288 288 287 287 287 286 286 286 285 284 284 284 283 281 282 282 281 279 283 280 284 285 287 285 285 283 278 277 277 277 280 280 279 279 278 278 278 278 275 272 270
292 292 290 289 287 287 286 285 284 283 284 284 280 275 273 274 279 279 283 283 284 284 282 284 285 286 283 284 283 278 276 275 276 274 275 277 279 279 277 275 276 276 274 270
291 290 290 290 289 286 285 284 284 283 279 278 275 276 277 276 280 283 283 283 283 282 283 282 284 284 283 281 278 275 273 273 279 279 279 277 276 277 278 274 277 277 276 269
288 289 289 288 287 284 283 284 280 283 284 279 274 274 281 283 283 283 283 282 283 284 284 286 286 283 281 280 277 276 272 270 277 279 273 275 274 277 276 278 277 272 273 274
284 284 283 283 283 281 281 280 277 281 283 277 278 283 279 279 278 282 282 282 283 280 285 286 285 284 283 281 278 277 274 272 271 280 275 272 273 275 277 278 275 271 270 274
285 283 280 280 281 283 283 283 283 280 281 278 277 275 275 278 278 279 283 282 284 285 286 284 285 285 284 283 282 280 278 277 274 278 279 277 273 275 277 276 278 278 271 272
284 284 284 280 279 283 283 282 280 281 280 279 282 281 277 280 281 281 281 281 283 285 285 285 285 285 285 284 283 282 278 275 273 274 281 280 280 279 278 278 277 278 278 277
285 284 284 284 281 281 282 285 284 284 280 281 279 279 278 279 282 282 285 285 285 285 285 286 285 284 284 284 279 279 281 281 278 277 277 279 279 279 279 277 276 278 279 278
283 284 284 280 282 283 284 285 284 283 282 282 281 281 279 279 281 284 286 286 286 285 285 285 285 284 282 282 282 282 282 281 280 279 281 280 280 279 277 274 276 279 280 279
284 283 283 285 284 284 283 283 283 283 279 277 277 275 275 275 280 281 282 282 285 285 285 285 285 285 285 284 283 282 281 281 281 281 281 279 280 279 278 277 278 277 277 278
284 280 281 282 283 283 282 280 277 279 278 276 281 276 276 276 277 277 277 280 283 285 285 285 285 285 285 285 284 283 282 282 282 281 280 279 277 277 276 277 278 278 278 277

GFSNGP_sfc_thetae_024.txt.gz
Theta_e
290 291 291 289 288 288 287 287 283 285 287 292 293 294 296 297 296 296 295 296 296 295 294 294 293 293 292 292 292 293 292 292 292 293 293 291 291 292 293 292 292 291 289 288
284 292 290 286 288 289 290 290 289 290 289 296 296 294 295 296 295 295 296 295 294 294 295 295 293 290 291 290 291 291 290 291 293 292 292 292 292 292 290 292 291 287 287 286
279 287 285 280 287 290 290 291 290 285 290 294 292 294 293 293 294 294 293 293 295 295 295 294 289 290 289 289 290 289 290 292 292 291 291 291 291 291 291 287 287 287 285 284
276 277 270 287 294 294 291 292 293 293 292 293 293 293 293 294 293 293 293 294 294 292 290 289 288 288 288 288 288 289 290 290 291 291 290 290 288 289 288 286 286 284 283 282
274 277 281 288 293 291 289 288 295 293 293 294 294 293 291 294 294 293 293 294 290 288 288 287 287 288 288 286 287 288 288 288 289 290 289 289 289 288 285 284 282 283 282 281
281 271 270 283 294 297 295 283 296 296 293 293 292 281 286 294 294 294 291 289 287 287 287 286 287 287 286 285 286 287 287 288 289 289 288 288 287 285 285 283 283 282 282 280
270 270 280 289 296 297 282 283 296 295 294 292 288 289 292 295 294 290 289 288 288 287 286 286 286 286 285 286 285 287 288 288 287 287 287 287 287 286 284 281 280 278 277 278
277 271 275 294 295 287 290 295 296 295 294 293 293 294 295 292 289 288 286 286 287 286 286 286 287 287 285 285 287 287 286 285 285 284 285 285 283 280 280 279 278 276 267 271
285 284 292 295 294 296 298 296 295 294 296 296 296 295 291 289 287 287 285 285 286 285 286 287 287 287 285 286 287 286 284 283 283 283 283 282 280 279 279 278 274 274 276 269
288 293 294 296 298 298 298 296 296 299 299 299 296 291 287 287 286 285 284 284 285 285 285 285 287 287 286 286 286 284 283 282 282 281 282 281 280 280 278 273 272 276 273 272
287 293 295 297 296 297 296 297 298 300 299 296 289 286 286 285 285 284 284 285 285 285 285 286 286 286 286 286 285 283 282 282 280 280 279 280 280 278 278 277 275 273 272 271
285 294 294 295 297 298 296 297 299 297 289 288 287 286 285 284 285 284 284 285 285 286 286 286 286 285 285 285 285 283 281 280 279 277 276 279 279 278 282 281 283 284 282 271
295 299 298 297 298 299 299 298 296 290 288 286 286 285 285 284 285 285 285 285 285 285 285 284 284 284 286 286 285 283 281 281 278 278 278 276 277 279 276 277 282 282 283 282
299 298 294 295 294 300 300 295 291 288 287 286 286 286 285 285 285 284 284 285 285 285 285 284 284 284 286 286 284 283 282 279 277 277 276 276 278 278 278 272 269 270 277 281
297 297 296 297 299 294 290 289 286 285 285 285 286 285 285 284 283 283 284 284 284 283 283 284 283 283 287 285 284 283 282 276 273 279 279 279 279 277 276 274 273 275 270 273
296 297 297 297 291 288 288 287 285 285 285 284 284 283 284 284 283 283 283 283 280 281 283 282 278 282 286 286 284 284 282 277 273 277 279 278 278 277 277 274 277 275 270 268
295 294 291 287 287 287 286 287 286 285 284 284 283 283 283 281 280 282 282 281 282 282 283 283 281 285 286 286 284 282 280 277 278 279 279 278 277 278 277 276 275 270 275 271
294 291 290 289 287 287 286 285 284 283 283 283 279 273 272 273 278 278 280 282 282 283 283 282 283 285 285 286 284 281 276 276 274 274 274 270 273 275 278 275 272 270 270 269
290 289 289 289 288 286 285 284 284 283 278 276 274 275 273 277 279 280 279 276 282 282 282 280 282 285 285 284 281 275 272 269 271 274 274 275 268 271 276 276 273 277 275 269
288 289 288 287 286 283 282 283 279 282 283 278 271 275 280 278 277 277 277 277 281 282 282 281 283 284 283 283 282 277 272 269 271 273 275 274 268 269 276 275 277 271 268 267
284 285 284 283 282 280 278 278 276 280 282 276 278 281 278 278 276 274 274 279 282 279 281 280 285 283 285 283 282 280 277 276 275 274 276 276 270 270 273 276 276 277 269 264
284 283 279 279 280 282 282 282 282 279 278 282 281 279 274 278 276 275 275 279 283 278 281 284 284 285 285 285 283 282 282 280 278 277 277 278 277 272 271 275 274 277 273 267
284 284 283 279 277 282 283 281 279 278 279 279 278 278 282 280 277 275 279 281 282 284 285 284 284 285 285 285 285 282 281 280 278 277 277 278 279 277 277 277 277 276 275 275
284 284 284 283 279 279 280 284 283 283 280 280 280 280 279 276 275 278 280 279 283 279 284 285 285 284 285 284 284 283 282 280 280 279 278 278 278 278 279 278 275 274 277 276
282 283 283 279 282 282 283 284 283 282 282 282 281 281 279 282 281 282 276 277 276 279 284 284 285 285 285 285 283 282 281 281 281 281 280 279 279 279 279 278 275 275 275 277
284 282 282 284 283 283 283 281 280 279 276 277 276 276 282 283 281 278 276 274 276 281 283 284 284 284 284 285 285 284 284 283 282 281 281 281 281 280 278 277 276 275 275 275
283 279 281 282 282 282 281 280 279 284 278 279 281 282 279 280 277 273 272 279 273 281 279 279 280 282 283 284 284 284 284 284 283 282 282 282 281 280 278 276 276 275 275 276

GFSNGP_sfc_thetae_027.txt.gz
Theta_e
288 289 288 287 287 288 286 286 282 284 285 289 292 292 294 295 294 294 294 295 294 293 294 293 292 289 289 289 290 290 290 290 290 291 291 291 291 291 291 290 290 292 290 288
284 289 288 285 287 286 286 287 288 287 287 294 294 294 294 294 294 293 295 295 294 293 294 293 289 288 289 288 289 289 289 290 291 290 290 289 289 289 289 292 289 288 288 286
278 284 283 278 285 288 289 290 289 284 289 293 291 292 293 293 293 293 293 293 293 293 292 288 287 288 287 287 288 287 289 290 290 290 289 289 288 288 288 287 286 285 284 282
275 277 271 285 290 292 289 290 291 291 291 293 292 292 293 294 293 292 292 292 291 288 288 287 287 287 287 286 286 288 288 288 289 288 288 288 287 288 288 287 283 282 281 281
274 276 280 286 291 289 288 287 293 291 291 292 292 291 290 293 293 292 293 292 288 287 287 286 286 286 286 285 286 287 286 286 287 287 287 287 286 285 285 283 281 281 282 280
278 270 270 282 292 295 293 282 294 293 292 291 290 282 287 293 293 293 289 287 286 286 286 285 285 285 285 285 285 285 286 286 286 286 286 285 285 284 286 284 282 282 281 279
270 270 279 287 294 295 282 282 294 294 293 291 288 289 292 294 294 290 286 286 286 285 285 284 285 285 285 285 284 286 286 286 285 284 283 283 283 283 282 280 280 278 278 277
279 273 277 292 292 287 290 291 295 294 293 292 294 294 296 294 288 286 285 285 285 284 285 285 286 286 284 284 286 286 285 284 283 283 283 282 280 280 280 279 279 277 266 270
284 284 290 293 293 294 295 295 295 294 294 295 295 295 291 287 287 285 284 283 285 284 284 285 285 285 284 285 285 285 284 283 282 282 282 281 279 278 278 278 274 274 275 269
287 290 292 293 295 296 297 295 295 296 296 297 296 291 287 285 284 284 283 283 284 284 284 284 285 286 285 285 285 284 283 283 282 281 281 281 280 279 278 273 271 275 273 272
286 291 293 296 297 296 295 296 297 298 297 296 292 286 285 284 284 284 283 284 284 284 284 284 285 285 285 284 284 284 284 283 281 281 279 280 279 278 279 277 276 273 273 272
285 293 293 293 296 296 295 295 297 295 290 288 287 285 284 284 284 284 283 284 284 284 284 284 284 283 284 284 284 284 283 283 281 279 276 279 279 278 282 281 282 283 283 272
293 295 295 294 295 297 296 298 295 289 288 286 286 285 284 284 284 285 284 284 283 283 284 283 282 282 284 284 283 284 283 283 282 279 279 277 277 279 276 277 281 281 282 283
298 296 293 294 294 298 298 292 290 288 288 287 286 285 284 284 284 283 283 283 283 283 282 282 282 283 284 283 284 283 283 281 280 280 280 279 278 279 278 276 269 270 277 280
296 296 296 296 297 293 289 288 286 285 285 285 285 284 284 283 282 282 283 283 282 282 282 282 283 283 283 284 285 284 283 281 280 277 279 276 278 275 276 276 271 272 270 272
295 295 295 294 289 288 288 287 285 284 284 284 283 283 284 283 282 282 283 282 280 279 282 282 282 283 282 285 286 285 284 281 278 276 277 276 277 274 276 276 275 275 268 268
292 291 287 287 287 287 287 287 286 285 285 284 283 283 282 279 279 281 281 279 276 277 281 282 282 285 283 285 285 285 283 281 280 279 276 275 274 275 276 276 276 271 269 267
291 290 290 289 287 287 285 285 285 284 283 283 278 273 272 274 278 278 277 277 276 277 280 281 281 284 284 285 285 284 281 279 277 274 272 268 271 272 271 272 273 273 270 269
290 289 289 289 288 286 286 285 284 283 278 276 274 276 274 275 277 278 276 274 275 277 281 279 280 281 283 284 283 282 279 274 273 273 272 270 267 269 270 272 275 275 276 270
290 290 289 288 286 284 283 283 280 282 283 278 272 277 279 276 275 275 273 275 279 281 281 281 279 280 283 283 283 282 279 275 273 272 268 271 271 269 268 270 272 274 274 271
284 284 284 282 282 280 279 279 277 280 282 274 274 280 281 279 276 274 273 277 280 278 280 278 281 283 284 284 284 283 281 279 277 276 275 275 276 274 271 270 272 272 272 273
284 282 280 279 279 281 281 281 281 276 277 276 276 282 281 279 277 275 275 278 281 276 278 280 283 284 284 284 284 284 283 281 280 280 276 276 277 277 275 274 272 273 276 273
284 284 283 279 278 282 282 280 278 276 277 278 277 278 277 280 280 276 278 280 279 277 282 284 284 284 284 284 284 284 283 282 281 280 279 279 278 278 278 277 276 276 276 274
284 284 283 283 278 279 280 284 283 282 278 279 278 277 277 278 279 278 281 281 276 274 280 283 283 284 284 284 284 284 283 283 282 281 280 279 280 279 279 279 278 277 276 276
281 283 283 278 281 282 283 283 282 281 280 280 280 280 278 278 278 276 275 277 274 278 277 278 282 282 283 283 283 283 283 284 282 281 281 280 280 280 280 280 279 278 276 276
283 282 282 283 282 281 282 281 280 280 278 278 279 277 277 275 280 282 279 273 278 273 271 274 272 275 278 279 279 280 281 283 283 283 283 282 281 280 281 280 279 276 276 276
281 278 281 281 282 282 281 280 280 281 283 282 281 284 281 283 283 281 276 276 274 274 273 271 270 271 271 271 271 272 273 276 279 281 283 283 282 282 281 280 279 276 275 274

GFSNGP_sfc_thetae_033.txt.gz
Theta_e
290 290 290 289 290 290 289 289 288 289 288 292 295 299 299 299 298 297 297 297 298 298 297 297 297 294 294 294 294 295 293 294 295 295 294 294 293 293 293 293 293 293 291 291
288 289 288 288 289 290 290 289 290 289 289 295 296 297 297 297 297 296 297 297 297 296 297 297 294 294 293 293 293 293 292 293 294 293 293 293 292 292 292 292 291 291 290 288
284 284 285 284 288 290 289 290 292 288 294 296 295 295 297 297 297 297 297 297 296 296 296 295 293 292 292 292 292 291 292 293 292 292 291 291 291 291 291 291 290 290 288 287
283 281 279 289 292 292 291 292 292 292 294 296 296 296 297 299 298 297 297 297 296 295 293 292 292 292 291 290 290 290 292 291 291 291 290 290 290 289 290 291 291 289 286 286
283 281 284 288 288 290 290 290 294 293 294 295 295 297 297 299 299 299 299 298 296 293 292 292 291 290 289 289 290 290 289 290 290 290 289 288 288 288 289 289 289 287 286 285
280 281 279 287 290 296 295 288 294 295 294 294 295 293 297 298 298 298 298 296 291 291 291 290 290 289 289 289 289 289 289 290 290 290 288 288 287 287 288 290 289 287 285 284
277 283 284 289 292 296 287 289 294 296 296 294 295 299 297 298 297 296 293 289 290 290 290 289 289 289 289 288 288 289 289 289 289 289 288 288 287 287 287 287 286 285 283 283
279 280 282 292 295 291 296 295 296 297 297 296 297 296 295 295 292 289 288 288 289 289 289 289 289 289 288 288 289 289 289 289 288 288 287 287 286 286 285 285 284 283 281 282
287 288 294 294 297 297 296 296 298 297 298 298 295 295 293 289 288 288 287 287 288 288 288 289 289 289 288 289 289 288 288 288 288 288 287 287 285 285 284 284 283 282 282 282
289 293 292 294 296 296 298 298 300 300 300 298 297 295 289 287 289 288 287 287 287 287 287 287 288 288 288 288 288 287 287 287 287 287 287 286 285 285 284 283 282 282 281 281
290 293 293 295 296 299 298 299 299 299 299 299 296 289 288 289 287 286 287 287 287 287 286 286 287 287 287 287 287 286 286 287 287 287 286 285 285 284 284 284 283 282 282 282
289 294 295 296 298 300 298 298 299 298 294 292 292 290 288 285 286 286 287 286 286 286 285 286 286 286 286 286 286 285 285 286 287 286 286 285 284 284 284 283 283 283 283 282
295 297 297 298 298 299 299 298 295 292 291 288 287 287 286 286 287 286 286 286 286 285 286 285 285 284 286 286 285 284 284 285 286 285 285 284 284 283 282 283 284 283 283 283
299 298 297 297 297 297 292 290 289 288 289 288 288 287 287 286 286 285 285 286 286 286 285 285 284 284 286 286 285 284 285 284 285 286 286 285 284 283 283 281 281 281 282 281
296 298 296 292 289 288 289 289 288 287 287 286 287 286 287 285 285 285 286 286 285 285 285 284 284 285 287 286 285 285 285 285 285 285 285 284 284 283 282 282 281 281 282 280
290 288 288 288 288 288 288 287 285 284 284 285 288 287 286 286 286 285 286 286 283 283 284 282 281 284 286 286 286 286 286 285 285 285 284 284 283 282 282 281 281 281 281 282
291 286 287 286 286 286 286 286 286 286 287 289 287 285 286 284 282 283 284 283 282 281 282 281 282 286 285 286 286 286 285 285 285 285 283 283 283 282 282 281 281 280 281 283
289 288 288 287 287 286 286 286 288 288 287 286 283 283 282 281 282 282 282 282 279 279 282 283 283 284 284 285 286 286 285 284 284 283 283 283 282 282 282 281 280 280 281 281
290 289 289 289 289 289 289 288 287 285 283 283 282 283 282 281 281 282 281 279 279 281 284 284 283 283 284 284 283 285 285 284 284 284 283 282 282 281 281 280 280 280 280 280
289 289 289 289 288 286 284 285 283 284 285 282 281 281 281 282 281 279 279 279 282 285 286 285 284 283 283 283 283 283 283 283 282 283 283 282 282 282 282 280 280 281 281 281
284 284 283 283 283 282 281 281 281 283 283 279 279 281 280 280 281 283 281 281 286 284 284 282 282 283 283 284 284 284 284 284 284 284 283 283 282 282 281 282 282 282 281 282
285 283 280 280 281 282 283 283 282 279 280 279 278 276 276 280 281 282 282 282 286 280 282 284 284 283 285 284 284 284 283 283 283 283 283 284 283 283 283 282 282 283 283 282
284 284 283 281 280 282 282 282 280 280 278 279 279 280 281 282 282 281 282 286 283 284 282 284 284 283 284 284 284 284 283 283 283 283 283 284 284 283 283 283 283 283 283 283
284 283 282 282 281 280 279 280 280 280 279 279 280 278 280 281 282 284 284 283 281 280 282 283 283 282 278 281 280 280 279 279 278 279 279 279 281 283 283 283 283 283 283 283
280 280 280 279 278 277 277 277 278 278 278 279 279 280 281 283 281 283 283 283 282 282 283 282 278 275 276 275 274 273 273 273 273 273 274 275 276 278 280 281 283 283 283 283
278 278 278 277 276 276 275 274 274 276 275 274 276 277 278 279 280 282 283 284 284 283 281 278 275 273 273 271 271 270 270 270 269 269 269 270 270 271 272 274 278 283 284 284
275 273 274 274 274 273 272 271 270 270 271 272 273 275 275 276 277 278 279 281 283 279 275 273 272 270 270 269 269 269 268 268 267 266 267 268 268 269 270 271 273 280 284 283

GFSNGP_sfc_thetae_036.txt.gz
Theta_e
296 295 295 295 296 297 295 296 292 294 294 297 300 302 304 308 308 307 306 305 306 306 305 303 302 302 302 301 300 299 297 297 297 299 298 297 297 296 296 296 296 296 294 294
293 295 294 293 296 296 297 297 296 297 296 302 303 303 304 305 306 305 305 305 305 305 304 303 302 301 300 299 298 298 297 296 297 297 296 296 296 295 295 295 295 295 294 293
289 291 291 289 295 296 296 299 298 294 299 301 300 301 303 304 305 305 305 305 305 304 303 302 302 299 298 297 297 296 296 295 296 295 295 294 294 294 294 294 295 293 292 293
290 287 285 293 297 297 297 299 300 299 300 301 301 304 304 307 306 305 305 305 305 304 302 302 299 298 297 296 295 295 294 294 294 294 293 293 293 293 293 294 293 292 291 291
290 287 291 293 293 293 293 294 300 299 300 300 302 302 304 306 307 307 307 307 306 304 300 298 297 296 295 294 294 293 293 293 293 293 293 293 292 292 292 292 292 291 291 291
288 289 287 293 296 300 299 291 299 300 300 300 301 298 300 306 306 306 307 307 303 298 297 294 296 295 294 293 292 291 292 293 293 293 293 292 292 292 292 292 291 290 290 290
290 290 292 296 296 300 289 292 301 302 302 302 300 303 304 306 306 307 306 302 297 294 293 294 294 294 292 292 291 292 293 293 292 292 292 292 292 292 291 291 290 290 288 289
289 288 286 297 299 294 300 303 302 303 304 304 305 303 303 304 303 301 298 294 294 293 293 293 293 292 291 290 292 293 293 292 291 292 291 290 291 291 290 290 288 287 286 286
295 296 299 301 303 304 304 303 304 304 305 305 304 302 301 301 299 296 294 293 295 295 292 292 292 292 289 291 292 292 291 291 291 291 290 291 290 289 289 288 287 286 284 284
294 298 299 301 303 304 304 303 304 305 305 305 304 304 300 296 294 293 292 292 291 292 291 290 290 290 291 291 291 290 290 290 290 290 290 290 289 288 287 287 285 284 283 283
296 299 300 301 301 303 304 306 305 306 305 305 305 302 297 294 294 292 289 290 292 290 290 289 290 290 291 290 291 289 289 289 290 290 290 289 289 288 287 287 286 284 284 284
296 298 299 300 304 305 303 304 305 304 300 301 302 297 296 292 290 289 289 291 290 289 288 288 289 289 290 290 289 288 288 288 289 289 289 288 288 286 285 284 284 284 283 284
299 303 303 304 304 304 302 300 300 299 298 295 294 292 290 290 290 289 289 289 288 288 288 288 288 288 289 289 288 288 287 287 287 286 286 286 286 286 284 285 284 284 284 284
302 303 301 299 296 296 296 295 294 293 292 291 290 290 289 289 289 289 288 288 289 288 288 288 288 288 289 289 289 287 288 285 287 286 286 286 287 286 286 284 283 284 284 283
296 300 297 296 295 294 293 291 287 287 287 287 288 288 289 288 288 288 288 288 288 288 288 288 287 288 290 290 288 288 288 288 288 287 286 285 286 286 285 284 283 283 285 283
294 295 294 292 290 289 288 288 286 287 288 289 290 291 291 289 288 288 289 289 286 286 288 287 286 288 290 290 290 290 289 286 286 287 286 286 285 284 284 284 284 283 282 283
291 288 288 287 288 288 289 289 290 291 291 292 292 290 289 288 286 287 288 288 287 286 287 286 286 290 290 290 290 290 289 289 286 287 286 285 284 285 285 285 284 283 285 286
293 292 292 291 290 289 289 291 291 291 290 288 286 286 285 285 285 286 287 287 285 285 286 287 288 289 289 290 290 289 288 288 287 286 286 286 284 284 285 285 284 284 285 285
293 292 292 292 292 291 290 289 288 288 286 286 285 286 286 285 286 286 286 284 284 285 289 292 287 286 288 288 286 286 287 286 285 284 284 285 285 284 284 285 284 285 285 284
290 291 290 289 288 288 287 287 287 288 288 286 285 285 286 286 286 285 285 284 286 288 290 289 289 288 288 288 284 285 286 285 284 284 284 285 284 284 285 284 284 285 284 284
288 288 286 286 286 286 285 285 285 285 286 284 283 283 282 284 284 284 285 287 289 290 289 287 288 289 290 288 287 287 286 285 285 285 284 284 284 284 285 284 284 284 284 284
288 286 285 285 286 286 286 285 284 283 282 282 282 282 282 283 284 284 285 284 287 285 286 287 287 287 288 285 287 286 286 285 285 285 284 284 284 284 284 285 284 284 285 285
288 287 285 284 284 284 284 282 281 281 280 280 281 281 281 282 283 282 280 285 285 284 285 285 285 284 284 285 285 285 284 283 282 282 282 282 282 283 283 284 284 285 285 285
286 284 283 282 282 281 279 280 280 280 280 280 280 280 280 280 282 283 284 283 283 284 285 285 284 284 283 284 283 283 281 280 279 279 278 277 279 278 279 280 281 283 284 285
282 282 281 280 280 279 278 278 278 279 278 278 278 279 279 280 279 280 282 282 281 282 284 284 282 279 281 280 279 278 278 277 275 275 274 275 275 275 275 276 276 277 278 281
280 280 280 278 277 277 277 276 275 276 275 276 276 277 277 278 278 279 279 279 279 278 278 278 275 276 276 275 275 274 275 274 273 273 272 273 272 273 273 273 274 275 276 279
277 276 277 277 276 275 274 273 273 273 274 274 273 274 275 276 276 276 275 275 275 274 274 274 272 271 271 271 271 271 271 272 270 269 270 270 270 270 270 270 271 273 274 275

GFSNGP_sfc_thetae_039.txt.gz
Theta_e
300 300 300 299 299 299 298 298 295 296 297 300 301 302 305 307 308 309 311 312 312 312 312 312 309 308 305 305 304 303 302 300 300 300 300 299 298 298 298 297 297 297 296 295
297 300 299 297 299 299 298 299 298 298 297 304 305 306 304 305 306 307 309 311 311 311 311 309 307 306 306 304 303 302 300 299 299 298 298 298 297 297 296 296 296 296 295 294
291 295 294 291 296 298 299 300 300 296 301 304 303 303 304 304 306 306 308 310 310 310 310 309 307 306 304 302 301 299 298 297 296 297 296 296 296 295 295 295 295 295 293 292
292 289 284 296 299 299 298 300 302 301 302 303 303 305 306 307 307 307 308 310 310 310 310 309 308 304 301 301 299 298 297 295 296 296 295 295 295 294 295 295 294 294 293 292
291 290 294 295 297 296 295 295 301 299 301 302 304 305 305 308 308 308 310 311 311 311 310 307 303 300 299 297 297 295 294 294 294 295 294 294 293 294 294 294 293 293 293 291
291 288 286 296 299 302 301 292 301 301 301 301 303 299 302 307 307 308 310 311 310 310 307 303 300 299 297 297 296 294 293 293 294 294 293 293 293 293 294 293 292 292 291 292
293 292 295 300 300 302 291 295 303 303 303 303 301 305 308 308 308 309 310 310 309 306 301 300 299 298 296 295 293 293 294 294 293 293 293 293 293 293 293 292 292 290 289 290
295 289 287 301 301 295 303 304 305 305 305 306 307 307 306 307 307 308 308 306 302 300 297 296 298 295 293 292 293 294 293 293 292 292 292 292 292 292 292 292 290 289 289 287
298 298 302 303 302 305 306 304 305 305 306 306 306 306 306 305 306 304 303 299 298 296 296 294 293 293 290 292 293 293 292 291 291 292 292 292 291 291 290 290 289 288 286 286
297 300 300 302 304 305 306 306 307 307 306 307 306 307 306 304 302 299 298 297 296 294 292 291 293 291 292 292 292 291 290 290 291 291 291 292 291 291 289 288 287 286 285 284
299 301 302 303 305 306 306 307 307 308 308 306 307 306 305 300 298 297 294 293 292 291 291 290 291 291 291 291 291 290 290 290 290 291 291 291 291 291 289 289 288 287 286 286
299 301 302 303 306 306 305 304 305 305 304 303 304 301 300 296 294 292 290 291 290 290 290 290 290 290 290 291 290 290 289 289 290 290 290 290 289 288 288 285 285 285 285 285
302 305 305 305 302 302 299 299 299 299 298 295 296 295 293 290 289 288 289 289 289 290 290 290 289 289 290 291 290 289 288 289 289 287 287 286 286 287 286 288 285 285 285 284
303 304 301 299 297 299 297 295 294 293 292 291 290 290 289 288 289 289 290 291 291 290 289 290 290 290 291 292 291 290 290 286 289 289 289 288 287 287 287 287 286 287 285 284
299 301 299 299 297 294 295 294 290 289 289 289 291 291 291 290 290 291 291 291 290 290 290 290 290 290 292 293 291 290 290 290 291 291 290 288 287 286 285 286 286 286 286 285
296 296 294 293 293 293 292 292 290 290 291 292 292 292 293 292 291 290 291 291 288 288 290 287 288 290 292 292 291 292 292 288 287 290 289 288 287 286 286 286 285 285 285 285
292 290 290 291 291 292 292 292 292 293 293 292 290 289 290 289 289 289 290 290 289 286 288 288 288 291 292 292 292 291 292 291 287 289 289 289 288 286 286 286 286 286 286 287
296 295 294 293 292 291 291 292 292 290 289 289 287 285 285 285 286 288 289 289 286 286 289 290 291 292 292 293 292 292 291 291 290 288 289 288 287 287 287 286 286 285 286 287
295 293 293 292 292 291 290 289 289 289 287 286 285 284 285 286 288 287 288 285 285 286 290 292 287 288 291 290 289 291 289 288 287 287 287 285 285 286 285 286 286 286 286 286
291 291 291 289 289 289 288 288 290 289 289 286 285 285 284 285 284 285 285 284 287 290 289 288 286 287 289 289 287 290 288 286 286 286 286 286 286 285 285 285 285 285 285 285
289 289 288 288 288 287 286 286 285 285 285 284 282 282 282 283 285 284 284 283 285 287 286 285 285 286 287 288 288 287 287 286 285 286 285 285 285 285 285 285 284 285 285 285
289 287 286 288 288 287 286 285 284 282 282 281 282 281 280 281 282 283 285 283 285 283 285 285 287 285 286 284 286 285 285 286 286 286 285 284 284 283 283 283 283 284 285 285
290 288 286 284 286 285 284 282 282 282 280 280 280 279 279 280 281 280 280 282 282 283 282 283 283 283 283 285 285 285 284 285 284 283 281 281 280 280 280 279 280 281 282 283
287 287 285 284 283 282 281 281 281 281 281 281 281 280 279 279 280 281 281 281 280 280 281 281 279 278 280 282 283 282 282 281 281 280 278 278 278 277 277 277 276 277 277 279
285 284 282 282 282 281 280 279 279 280 279 279 279 279 279 279 278 279 280 279 277 277 277 277 275 274 277 277 277 276 277 276 276 276 275 275 275 275 275 275 274 274 276 276
283 283 282 280 280 279 279 278 277 278 277 277 277 278 278 279 278 277 277 276 276 275 275 275 274 273 273 273 273 273 273 273 272 271 272 272 272 272 272 272 272 272 273 274
280 279 281 280 279 277 277 276 276 275 276 275 274 276 277 277 276 276 275 275 274 274 273 273 273 271 270 270 270 270 270 270 269 268 269 269 269 269 269 269 270 270 271 273

GFSNGP_sfc_thetae_042.txt.gz
Theta_e
298 299 300 299 299 299 297 298 294 296 296 299 302 303 304 308 307 307 308 311 312 314 314 314 313 312 309 307 305 305 303 301 300 301 300 299 298 297 297 296 296 296 295 295
297 300 299 296 298 298 298 298 297 298 297 304 305 305 304 305 304 305 307 310 312 314 314 313 312 309 308 305 305 304 301 300 300 299 299 297 296 297 296 296 295 295 294 293
293 296 294 289 296 297 298 300 299 295 300 304 303 303 304 305 305 305 307 308 311 312 312 312 310 308 305 305 304 301 299 299 298 298 297 296 296 295 294 294 294 293 293 292
294 289 285 295 301 299 296 297 299 300 300 301 302 304 305 306 306 307 309 308 310 311 312 312 309 307 306 303 300 298 298 297 297 296 295 295 294 294 294 294 293 292 291 291
290 290 293 296 298 296 295 295 300 298 300 301 303 304 304 307 308 307 308 309 310 311 311 310 308 304 301 299 298 296 295 295 294 294 294 293 293 293 293 292 291 290 291 290
293 289 284 297 299 302 300 292 301 301 301 301 302 297 301 307 308 307 308 309 309 310 310 306 302 300 298 295 295 294 294 293 294 294 293 292 292 292 292 292 291 290 289 289
292 291 295 300 301 302 291 295 303 303 303 303 301 305 307 308 307 309 308 309 310 307 303 300 300 298 296 294 293 294 294 294 293 293 292 292 292 291 290 290 289 288 286 287
296 288 286 301 300 294 302 305 304 304 305 305 307 307 308 307 306 307 306 303 302 299 296 295 296 295 292 292 293 294 293 293 292 292 291 291 291 290 290 289 287 286 285 284
298 297 304 304 302 305 306 304 305 305 305 306 305 305 306 306 306 304 300 299 298 295 293 293 293 292 290 291 293 293 292 290 290 291 291 291 290 289 288 288 284 284 284 283
299 300 301 303 305 306 306 306 306 307 307 307 305 306 306 303 301 296 295 294 294 293 292 291 291 291 292 292 291 290 289 290 290 290 290 290 290 289 287 285 284 284 283 284
299 301 302 304 305 305 306 307 306 307 304 302 304 303 300 297 294 293 292 292 292 291 290 290 291 291 292 291 291 289 289 289 289 289 289 289 290 289 285 286 285 284 284 285
299 302 303 301 302 303 301 300 301 301 298 297 297 294 293 291 291 290 290 290 289 290 290 291 291 291 291 291 290 289 288 288 287 287 287 287 287 286 288 286 286 286 286 284
302 305 304 301 300 299 297 297 296 296 295 292 292 291 290 288 288 288 289 290 290 291 291 291 290 289 290 291 290 288 287 286 286 285 286 285 285 285 283 286 287 286 286 286
303 304 298 300 296 297 295 294 294 293 293 292 291 291 290 290 290 290 290 291 291 290 290 290 290 289 291 291 290 287 287 286 286 287 287 288 286 285 285 283 283 283 286 285
300 301 298 297 296 295 295 293 291 290 291 291 292 292 292 291 290 290 291 290 290 290 290 290 289 289 291 291 289 288 288 288 288 288 287 286 286 285 284 284 284 283 284 283
297 297 296 294 293 293 293 292 290 290 292 292 291 290 290 290 289 289 290 290 287 286 288 284 285 287 290 291 290 289 289 287 286 288 287 286 286 286 285 284 284 283 283 283
292 291 292 291 291 291 291 292 291 290 290 288 288 287 287 287 287 287 288 288 286 285 285 286 286 291 290 292 291 290 289 289 287 287 287 286 286 285 285 285 284 283 283 284
296 295 294 292 291 291 291 291 289 289 287 286 284 284 283 283 285 286 285 286 285 285 286 288 285 286 288 290 289 288 287 287 287 286 286 285 286 286 284 283 282 282 284 283
294 293 293 292 292 290 289 288 288 287 285 284 283 283 283 283 283 283 284 281 282 284 285 286 284 284 284 285 285 285 285 285 286 286 285 285 285 284 283 283 282 283 284 283
292 291 290 289 289 288 286 287 287 287 285 282 279 279 280 279 280 280 281 282 284 282 282 283 283 283 283 284 283 283 283 283 283 283 284 284 284 283 283 282 282 282 283 284
289 289 287 286 286 285 283 283 282 282 282 278 279 278 277 278 280 278 280 280 282 281 281 280 281 281 281 280 280 282 282 282 283 282 283 284 284 281 282 282 282 282 283 283
288 286 285 286 286 285 283 283 282 279 279 277 275 274 275 278 278 279 278 279 280 278 278 279 280 275 275 274 280 281 281 282 283 283 283 283 281 279 278 279 278 277 278 278
288 286 285 284 283 283 282 281 279 279 277 276 276 277 277 278 279 277 276 279 279 276 277 277 275 272 271 276 277 277 277 278 277 277 278 278 278 277 276 276 276 275 275 275
288 286 284 284 283 282 281 280 280 281 277 278 277 275 277 277 277 279 279 277 275 274 275 276 273 271 271 273 273 273 273 273 272 273 273 274 274 274 274 274 272 273 273 274
284 283 283 283 282 280 280 279 279 279 278 278 278 278 277 279 276 276 277 276 275 274 274 274 273 270 271 271 271 270 270 271 269 269 269 270 270 271 270 269 269 269 270 270
284 283 281 280 279 278 278 277 276 277 276 276 276 276 277 278 277 276 276 274 274 273 273 273 272 271 270 269 269 268 268 268 267 267 267 267 267 267 267 267 267 268 268 268
280 280 281 280 278 277 276 276 275 274 275 274 273 274 276 276 275 274 272 273 273 272 272 271 271 270 269 269 268 268 267 267 266 266 265 265 265 265 265 265 266 266 266 268

GFSNGP_sfc_thetae_045.txt.gz
Theta_e
294 297 297 296 295 296 295 294 288 291 293 296 296 296 297 299 300 301 303 307 307 308 308 309 310 309 308 305 303 303 302 301 300 301 298 297 296 295 295 294 294 294 293 293
291 297 295 291 294 294 294 294 293 293 292 298 297 298 298 299 299 300 301 303 307 309 310 309 309 305 305 302 302 303 301 299 298 298 296 296 295 295 294 294 293 293 292 292
285 291 290 283 291 293 294 295 293 288 293 297 296 298 298 298 300 300 301 302 306 307 308 308 307 305 302 302 303 301 298 297 297 297 296 295 294 293 292 291 291 291 291 291
283 283 275 291 296 295 293 294 294 294 294 296 296 298 299 300 299 300 302 303 304 305 305 304 304 302 302 300 298 297 295 295 294 294 294 293 292 292 291 292 291 290 289 290
281 281 288 292 294 294 291 290 296 294 295 296 297 298 299 302 302 301 301 302 303 304 302 300 299 298 297 296 295 295 294 293 293 293 292 292 291 291 291 290 290 289 289 288
283 279 275 290 295 299 296 285 297 297 296 298 297 289 295 301 303 302 302 301 300 297 296 295 294 294 294 293 292 291 292 292 293 293 292 291 291 290 290 290 290 289 288 287
278 278 285 297 298 299 283 286 298 298 298 297 295 298 300 302 302 300 297 294 293 292 292 292 293 293 291 292 291 292 293 293 293 293 292 291 290 289 289 288 287 286 285 285
284 283 281 298 296 290 295 298 299 298 298 298 299 301 302 301 297 296 292 292 291 290 289 290 291 291 290 289 292 292 292 292 292 291 290 291 289 288 288 287 285 284 280 282
290 288 298 298 299 301 301 299 299 300 301 302 301 301 299 293 292 292 291 291 291 290 289 290 290 291 289 290 292 292 291 290 289 290 290 290 287 286 285 285 282 283 282 279
291 296 297 301 302 303 303 301 300 299 298 300 298 295 292 291 291 290 290 289 290 290 290 289 290 291 290 290 290 288 287 287 288 287 287 287 287 286 284 280 279 281 280 280
293 298 299 299 300 300 300 300 296 295 294 294 293 292 291 290 289 290 290 290 290 289 288 288 290 290 290 289 289 287 287 287 286 286 285 285 286 285 282 282 281 280 280 280
287 297 296 294 296 297 295 295 295 293 291 292 291 289 290 289 290 289 288 289 288 288 288 288 289 287 288 288 287 286 285 284 282 282 282 283 283 283 285 285 286 286 286 282
298 299 296 295 294 295 293 293 293 291 291 289 289 288 288 286 286 287 287 287 288 288 288 286 286 286 287 288 286 285 283 283 282 283 282 282 281 282 282 283 287 287 287 287
300 297 293 294 291 293 292 292 292 290 290 289 288 288 287 286 287 287 288 287 287 287 286 286 286 285 287 287 286 284 283 283 283 283 283 283 283 283 284 282 281 281 283 285
295 297 294 294 292 291 291 290 289 288 288 288 288 288 288 286 286 286 287 287 286 286 286 286 285 285 287 286 286 284 284 282 283 284 284 284 285 285 284 283 280 281 282 280
294 293 292 291 291 290 290 288 287 286 288 287 286 285 286 286 286 286 287 285 282 281 282 281 281 284 286 288 288 288 287 285 286 286 284 285 284 284 284 284 284 283 282 280
290 288 290 290 290 290 289 289 288 287 286 283 281 282 283 283 283 283 282 282 282 281 282 284 283 285 284 285 284 283 283 283 281 283 283 284 283 284 284 284 284 283 280 279
294 293 292 290 290 288 287 287 285 284 282 282 282 282 281 280 279 280 280 279 276 277 281 281 280 281 281 282 282 281 281 281 280 280 281 281 281 284 284 281 278 277 278 279
293 292 292 291 289 288 287 285 283 282 280 281 277 277 278 275 279 280 279 274 275 276 278 279 279 279 279 278 277 276 276 277 278 279 279 280 280 282 283 281 280 277 276 278
289 288 287 287 286 285 283 284 282 280 281 277 273 270 273 271 270 270 273 275 277 277 278 278 278 275 274 274 273 275 276 277 278 279 280 280 281 280 282 281 278 279 279 279
286 285 283 283 282 282 280 279 279 279 279 270 271 267 267 270 271 268 273 275 277 275 276 275 274 272 272 271 274 274 274 274 275 275 276 276 277 277 277 277 276 271 272 272
286 284 283 282 281 280 281 280 279 275 272 268 265 265 266 274 271 273 269 274 276 269 273 275 273 268 270 269 272 271 271 271 270 271 271 272 273 273 274 274 272 271 271 270
285 284 283 281 279 279 279 278 272 272 269 267 266 268 270 274 274 270 272 275 274 271 273 273 266 265 265 268 268 268 267 268 266 267 268 269 269 270 270 268 269 269 269 269
284 283 281 281 280 279 276 277 278 277 269 273 268 266 272 267 265 274 274 269 266 265 266 269 267 265 262 262 265 266 265 266 265 265 266 266 267 267 266 267 266 267 267 267
282 282 281 279 278 276 276 277 277 276 275 276 274 274 273 274 267 268 266 266 268 266 264 265 267 266 260 258 258 259 260 261 263 263 264 264 264 264 264 265 265 265 265 266
280 278 277 277 276 275 275 275 273 273 272 268 268 264 267 269 269 268 265 265 267 266 264 261 261 263 262 258 258 258 261 262 261 263 261 261 262 262 262 263 263 264 264 265
278 277 276 275 275 275 273 272 269 268 267 262 263 264 268 268 263 265 261 260 260 264 260 260 261 259 261 261 257 259 257 257 258 261 255 257 259 259 260 261 262 263 263 263

GFSNGP_sfc_thetae_048.txt.gz
Theta_e
293 294 295 293 293 293 291 291 286 289 290 294 295 294 294 296 298 301 305 307 307 306 306 307 309 308 306 304 303 303 303 302 302 302 298 297 295 294 293 293 292 292 293 292
290 294 293 290 291 291 292 292 292 291 290 294 295 296 296 296 298 298 300 303 305 307 307 308 308 305 304 303 302 303 302 301 300 297 297 296 294 293 294 293 292 292 292 292
284 288 288 283 290 291 291 292 292 287 291 293 294 295 295 296 298 298 300 302 306 306 307 307 306 304 302 301 302 298 298 297 297 296 295 294 293 293 291 291 291 291 290 290
281 282 276 291 296 294 291 291 292 292 292 295 295 296 297 297 297 298 299 301 302 303 303 301 300 299 298 297 296 295 293 293 294 294 293 293 292 292 291 292 290 290 289 289
280 280 286 291 292 291 290 289 293 293 294 294 297 297 297 300 299 298 299 296 295 295 295 296 296 296 294 293 292 292 292 292 292 292 292 292 292 291 291 289 289 289 289 287
281 278 276 288 293 296 295 284 295 296 296 296 295 288 293 298 295 292 292 292 291 292 292 291 291 292 291 291 291 290 291 291 292 293 293 292 291 289 289 288 287 287 286 286
276 277 283 293 296 297 283 285 296 297 296 295 294 295 297 293 292 292 291 290 291 290 289 290 292 292 290 290 289 292 294 294 294 293 291 289 288 287 287 286 285 284 284 284
281 277 279 298 295 289 291 296 297 297 296 297 297 296 294 292 290 290 289 289 290 289 290 291 291 291 290 290 292 293 293 292 290 289 289 289 286 286 285 284 283 282 278 281
288 286 295 298 297 298 299 297 297 298 299 299 294 291 291 289 289 289 289 289 290 289 289 290 291 290 288 289 290 291 290 288 287 287 287 287 285 284 283 282 280 281 281 280
291 295 296 298 299 299 298 294 294 296 296 295 291 291 289 289 289 289 290 290 291 290 288 288 289 289 289 289 289 287 286 285 285 285 285 285 284 284 282 278 277 280 280 280
292 295 296 296 296 295 294 294 293 293 293 292 291 289 289 288 289 289 289 289 289 288 288 288 288 287 287 287 287 286 285 285 284 284 283 283 284 284 283 282 281 280 280 280
286 296 293 292 294 295 293 292 292 290 289 290 290 288 288 287 288 288 288 288 288 288 287 286 286 286 286 286 286 284 283 283 282 281 281 282 282 283 285 285 285 285 286 282
295 296 293 292 292 293 291 291 290 289 289 287 287 287 286 285 287 287 286 286 285 284 285 284 284 284 285 285 284 283 282 282 282 282 282 281 282 281 281 285 286 286 286 287
295 294 290 291 289 291 290 290 290 288 288 287 286 286 285 285 285 284 284 284 285 284 284 284 284 284 286 286 285 283 282 282 281 281 282 283 282 282 283 282 282 283 285 285
294 294 292 291 290 289 289 289 287 286 286 285 285 285 285 284 284 284 284 284 283 282 283 284 283 283 284 284 283 282 282 282 282 282 282 282 284 284 284 284 284 284 285 281
291 291 290 288 288 288 288 287 285 283 284 284 283 284 284 284 283 282 282 281 280 281 283 281 279 280 281 282 281 280 280 279 279 280 280 280 280 280 281 282 282 283 283 281
288 286 287 287 287 287 287 286 285 283 283 281 281 282 282 281 281 280 280 280 277 280 279 277 277 279 280 279 276 276 275 276 276 277 277 277 277 278 278 279 279 281 283 281
292 291 291 290 288 286 285 284 283 282 282 282 281 277 275 276 278 279 277 276 274 274 277 278 278 276 276 276 275 275 275 275 276 276 277 277 278 279 279 280 280 280 282 280
292 291 290 289 288 286 284 282 281 282 280 278 276 275 275 274 277 277 276 271 271 273 275 277 276 274 273 274 274 274 274 273 272 273 274 274 275 277 276 275 277 280 279 277
288 288 287 286 286 283 281 280 281 280 278 275 272 272 274 271 268 269 273 273 273 274 276 274 273 272 272 272 271 272 270 271 269 269 269 270 271 271 273 273 272 273 272 272
285 284 283 282 281 281 281 279 278 277 276 272 272 268 268 271 269 267 272 273 274 273 274 273 271 270 271 268 270 267 266 267 265 265 266 266 267 268 268 268 269 269 269 270
284 282 281 280 280 279 279 279 278 276 273 270 267 266 268 273 270 271 269 272 274 266 271 272 271 263 267 264 268 264 265 266 264 263 264 264 264 265 265 265 265 266 267 267
283 282 281 279 279 279 278 277 274 274 271 270 269 269 271 273 273 268 268 274 273 268 271 268 263 260 260 258 257 257 256 259 261 261 262 262 262 263 263 263 264 264 265 265
283 282 280 280 279 278 276 277 277 275 272 272 268 265 271 267 265 272 272 266 262 261 260 262 260 261 258 254 254 254 256 255 255 258 259 257 260 260 260 261 262 263 264 264
282 281 280 278 277 276 277 277 276 276 275 273 272 272 272 273 266 267 263 263 265 264 260 259 260 260 255 253 252 252 254 252 252 258 252 255 258 258 257 259 260 261 262 262
279 278 277 277 276 275 275 274 272 272 271 267 267 260 261 268 267 266 262 261 262 262 259 256 254 254 253 257 254 252 253 255 253 257 251 253 255 256 256 257 258 259 260 261
276 276 275 274 274 274 273 271 268 267 266 260 261 260 267 263 260 262 256 254 254 256 254 256 253 254 254 254 258 255 252 252 251 253 248 249 251 253 254 256 257 257 258 260

GFSNGP_sfc_thetae_051.txt.gz
Theta_e
291 292 292 291 291 291 290 289 285 288 288 292 293 294 293 294 295 298 303 306 306 305 307 308 308 308 305 304 304 303 303 303 302 302 300 298 296 293 293 294 293 293 292 292
287 291 292 289 291 291 291 291 290 290 289 292 293 293 294 295 297 298 301 302 305 305 306 306 307 304 303 302 303 304 303 303 299 297 296 296 295 294 293 293 293 292 292 291
284 287 287 283 289 291 291 291 291 286 290 292 292 294 293 295 297 298 299 302 304 303 304 305 303 302 300 301 303 300 298 297 297 296 295 294 293 292 292 292 292 291 290 290
281 282 275 289 294 293 290 289 290 290 291 293 293 294 295 295 295 297 297 297 297 300 299 299 298 298 297 296 295 295 295 294 293 293 292 293 293 293 293 293 290 289 288 288
280 280 285 289 290 290 289 287 292 291 292 294 295 295 295 295 294 292 291 291 291 292 293 294 293 293 293 292 292 292 291 292 292 293 292 292 293 292 291 289 288 287 287 286
279 278 276 288 293 294 293 283 294 294 293 294 293 286 291 292 291 290 290 290 290 290 290 290 290 291 291 289 289 290 291 292 293 293 294 293 291 289 288 287 286 285 284 284
278 278 283 291 294 294 283 285 294 295 295 294 292 292 291 290 289 289 289 289 290 290 289 289 290 291 290 290 290 293 294 294 295 294 291 290 287 286 285 284 283 282 283 283
280 277 280 295 293 287 290 293 295 295 295 294 292 290 289 289 288 288 287 288 289 289 288 289 290 292 291 291 293 294 293 292 290 290 288 287 285 284 284 283 282 282 278 281
288 286 293 296 294 295 296 296 295 296 297 293 290 289 289 288 288 288 287 286 288 288 289 290 290 290 289 289 289 289 289 287 286 286 286 285 283 283 282 281 280 280 281 280
290 293 294 295 295 295 296 295 296 297 294 292 289 289 288 288 288 287 287 287 289 288 288 288 289 289 289 288 287 286 284 284 284 283 283 283 283 283 281 280 279 281 280 280
290 293 294 294 292 292 292 292 292 292 292 290 289 288 288 287 287 287 287 288 288 288 288 287 287 286 285 284 285 283 283 283 283 283 282 282 282 283 283 283 283 283 283 282
287 295 294 292 292 293 292 290 290 290 289 290 289 288 287 286 287 288 287 288 287 286 285 284 283 284 284 285 284 283 283 282 281 280 280 281 281 282 285 285 285 286 286 284
295 298 293 292 291 292 290 290 290 289 288 287 287 287 286 285 286 286 285 285 284 283 283 282 282 282 283 284 283 282 281 282 281 281 281 281 281 281 280 283 286 286 286 286
293 293 289 290 288 290 289 289 289 287 287 286 285 285 284 284 284 284 283 282 283 282 282 281 281 279 280 281 281 280 279 280 278 278 279 279 279 279 280 279 279 279 283 285
292 293 291 289 289 287 288 287 286 285 284 284 284 284 284 282 281 280 281 282 282 283 280 278 277 277 280 279 278 278 277 276 276 275 276 276 276 276 277 277 277 277 279 280
289 289 289 287 286 287 286 285 283 282 282 283 283 283 282 281 280 281 281 281 280 278 276 272 277 278 279 276 275 275 275 274 274 275 275 276 276 276 277 277 277 277 278 278
286 285 285 285 286 286 285 285 284 282 282 282 281 281 280 280 280 279 278 278 276 275 276 276 275 275 276 275 275 274 274 274 273 274 274 274 274 273 275 275 273 273 274 278
291 290 289 288 287 285 283 283 283 282 281 281 279 277 276 277 278 276 275 275 273 273 276 275 274 274 274 274 274 274 272 272 271 270 271 269 270 272 272 272 271 271 271 273
292 291 290 288 287 285 283 282 282 281 279 278 277 275 276 275 278 276 274 271 270 271 274 274 274 272 272 272 271 270 268 268 266 267 267 266 267 267 268 267 268 268 269 270
289 288 287 285 284 283 281 281 280 279 278 277 276 275 274 271 272 271 272 271 272 273 275 272 272 270 270 270 267 268 265 263 264 264 263 264 263 264 265 264 264 265 266 267
285 284 283 281 280 280 280 279 277 276 276 275 274 272 272 272 271 269 270 272 273 273 274 271 270 269 269 266 267 262 260 259 258 260 260 261 260 262 261 262 262 262 263 264
284 282 281 280 279 279 279 278 277 275 273 271 269 269 270 272 270 271 268 272 273 267 271 270 269 262 265 261 265 257 261 260 259 257 257 258 258 260 259 259 260 261 262 262
282 281 280 279 278 278 278 276 275 273 272 270 270 270 272 273 272 268 269 273 272 266 270 266 262 259 257 255 254 252 252 252 253 256 253 252 254 257 257 257 258 259 260 261
281 280 280 279 277 276 275 276 276 274 271 271 268 266 272 268 266 272 271 264 261 259 259 259 258 259 255 251 251 250 251 250 249 252 252 252 251 252 254 255 256 257 258 259
280 279 279 278 277 277 277 277 275 274 273 272 272 272 272 271 265 266 262 262 263 261 258 256 257 256 251 250 250 249 250 249 248 250 248 247 250 251 251 252 254 255 256 257
279 278 277 277 276 276 275 274 272 272 270 266 266 260 265 266 266 265 260 258 260 259 257 253 251 251 250 252 253 252 250 252 249 250 247 247 249 250 250 252 253 254 255 255
276 275 275 274 274 273 272 271 270 269 267 264 263 261 264 264 262 261 254 252 252 252 252 252 250 252 251 249 251 254 252 249 248 249 245 245 247 247 248 250 251 253 254 254

GFSNGP_sfc_thetae_054.txt.gz
Theta_e
289 290 291 290 290 290 289 288 285 288 287 291 292 292 292 293 293 295 299 304 305 305 306 307 308 306 305 304 303 304 302 302 302 302 301 300 299 296 295 294 292 293 293 293
287 289 289 288 289 289 289 289 288 288 288 293 291 292 293 294 297 299 300 301 302 304 304 306 305 304 302 301 301 303 302 301 301 300 298 295 294 294 294 293 293 293 293 292
284 286 287 283 288 289 289 290 290 286 290 291 291 293 291 293 295 296 297 297 300 301 302 303 301 300 299 300 301 299 298 298 297 296 295 294 293 292 292 293 294 292 292 290
280 281 275 289 292 292 291 290 290 288 288 290 292 292 293 293 294 292 291 291 292 295 295 295 296 295 295 295 295 294 294 293 293 293 292 293 294 294 294 294 293 291 288 287
281 280 284 287 290 289 288 287 291 289 291 292 294 293 292 291 290 289 289 289 288 289 290 291 291 292 291 291 291 291 292 292 293 293 293 293 293 293 293 291 289 286 286 285
279 277 276 286 291 292 291 283 292 292 292 292 292 285 289 289 289 287 288 288 288 288 289 288 289 290 290 290 291 291 292 292 294 295 295 294 293 291 289 287 286 285 284 284
275 277 283 292 292 293 283 285 292 293 293 292 290 289 288 288 287 287 287 287 288 288 288 288 290 291 290 291 291 293 295 296 295 294 292 290 287 286 284 283 283 282 282 282
279 277 281 294 292 288 290 291 293 294 294 293 288 288 287 287 286 287 286 287 288 287 287 288 289 290 290 291 293 293 292 290 289 288 287 286 284 283 283 282 281 281 279 281
288 288 293 294 293 294 294 294 294 295 295 292 288 287 287 286 286 285 285 286 287 287 287 288 288 289 288 288 288 287 286 285 284 284 284 283 283 282 282 281 280 281 281 281
290 293 294 295 295 295 294 295 296 296 293 291 288 287 286 286 286 285 285 285 286 287 286 286 286 286 286 286 286 284 283 282 283 282 283 282 282 282 281 279 279 281 281 281
289 292 294 295 292 293 292 293 292 291 290 289 288 287 287 285 285 285 285 286 287 285 285 284 286 285 285 284 284 283 282 282 282 281 281 281 281 281 281 281 281 281 282 282
288 296 295 294 292 293 292 290 291 289 288 288 288 287 286 285 285 285 285 286 284 284 284 283 282 281 282 282 281 280 280 280 279 279 278 279 279 279 283 283 284 284 284 282
296 298 292 292 291 291 289 289 289 288 288 286 286 286 285 284 283 285 285 284 284 283 282 280 278 278 279 280 280 279 278 278 277 277 277 277 276 276 274 278 281 281 282 282
293 293 289 290 288 289 288 288 288 286 286 285 285 284 283 283 283 283 283 283 283 280 279 278 277 278 278 277 278 277 276 275 274 274 274 274 273 275 275 275 275 276 278 279
290 291 291 289 288 286 287 286 284 283 284 283 284 283 283 282 281 281 282 282 279 277 277 277 276 276 277 276 275 275 275 274 274 272 272 275 275 274 273 274 275 273 273 274
289 288 288 286 285 286 285 285 283 282 283 283 282 282 281 280 280 280 281 280 277 275 276 273 274 274 276 275 275 274 274 273 272 273 272 271 271 271 272 272 271 270 270 270
286 284 285 285 284 284 284 284 284 284 284 283 281 280 280 280 279 278 277 276 275 275 275 274 273 274 274 274 274 272 272 272 269 270 269 269 268 269 269 268 267 268 268 269
290 289 288 287 285 283 282 283 284 283 282 281 280 278 278 278 277 276 275 275 274 274 274 273 273 273 273 272 272 270 269 268 268 267 267 266 266 266 267 265 265 265 265 266
290 288 288 287 286 284 283 282 282 281 279 278 277 276 277 277 276 275 274 272 270 272 273 273 273 271 270 271 269 268 266 263 263 265 263 262 261 262 263 262 262 262 262 264
288 288 286 284 284 283 281 281 280 279 278 277 276 275 275 274 273 272 272 271 272 273 273 272 271 270 269 269 266 266 263 259 262 260 258 260 255 256 257 258 260 260 259 261
284 284 283 282 281 281 280 279 278 277 277 276 275 274 274 273 272 271 271 271 272 273 273 271 270 268 268 266 266 260 256 254 254 255 254 252 252 254 253 254 257 257 258 259
282 281 280 280 279 278 278 278 277 275 274 273 272 272 272 272 270 270 270 272 273 269 271 270 269 262 264 260 264 256 259 257 255 253 251 250 249 251 251 251 254 255 256 257
281 280 279 278 278 277 276 275 274 274 273 272 271 272 273 273 272 270 269 272 272 267 270 266 261 259 257 254 252 251 251 250 249 251 248 246 247 248 250 252 253 253 254 255
280 280 278 278 277 276 274 275 275 274 272 272 270 268 272 268 267 271 270 265 262 260 259 259 258 259 255 250 249 249 249 248 247 246 249 248 245 246 248 248 251 252 253 254
280 279 278 277 277 276 276 275 274 273 273 273 272 272 272 271 266 267 263 264 265 262 259 256 257 255 250 249 249 249 249 247 246 246 245 244 246 247 247 248 248 250 252 253
279 278 277 277 276 276 275 275 273 272 270 268 268 264 264 265 265 265 262 260 261 259 258 254 252 250 249 249 249 249 252 252 248 247 245 244 244 247 246 248 248 249 250 252
275 275 274 272 272 272 272 272 270 269 267 264 265 263 264 262 260 261 255 254 253 252 252 252 249 250 250 248 248 250 251 250 247 248 243 242 242 244 245 246 247 248 250 251

GFSNGP_sfc_thetae_057.txt.gz
Theta_e
292 292 293 294 294 293 293 294 291 294 291 297 298 299 298 298 300 304 305 306 308 311 314 316 316 315 314 311 309 308 307 306 304 304 302 302 302 301 297 297 296 296 296 295
291 292 292 291 293 294 294 293 293 293 292 298 298 298 298 299 303 303 303 304 306 307 310 312 311 310 307 307 307 309 307 304 302 301 300 298 297 296 296 296 295 294 294 294
288 290 291 287 292 292 293 294 295 291 297 297 296 296 297 299 300 299 299 300 302 302 304 306 306 305 304 305 305 304 303 301 298 297 296 296 294 294 293 293 297 296 294 294
286 285 282 294 295 296 295 295 295 294 295 295 296 296 296 296 297 295 295 296 297 299 299 300 301 301 300 300 299 298 296 295 295 294 293 296 296 296 296 296 295 296 294 295
286 286 289 291 293 294 294 294 296 295 294 295 296 297 294 293 293 293 293 292 293 295 296 296 297 297 297 296 296 294 293 294 295 295 295 296 295 294 295 295 294 294 293 293
284 284 282 292 295 296 297 289 296 296 295 296 296 294 297 292 292 291 292 292 292 293 294 294 295 296 295 294 294 294 296 297 298 297 296 295 294 293 294 294 292 291 291 291
283 287 288 293 296 297 289 293 297 297 298 298 296 296 294 291 290 291 291 291 293 293 292 293 295 296 294 295 294 296 297 295 293 292 292 293 292 292 291 291 290 290 289 290
285 285 285 297 294 292 299 297 298 298 298 298 292 291 290 290 290 290 290 291 292 292 292 294 296 296 294 292 293 293 291 290 290 290 289 289 290 290 289 289 288 288 288 288
292 293 299 297 300 299 298 299 298 299 299 294 291 290 290 289 289 289 290 290 292 291 290 291 292 292 289 289 290 290 289 288 288 288 288 288 288 287 287 287 286 285 285 285
294 296 297 298 299 299 299 299 299 300 297 294 291 290 289 288 288 288 289 289 290 289 287 287 288 288 287 287 288 288 287 286 286 285 284 285 284 284 284 283 283 282 282 282
293 296 297 299 299 298 297 297 295 295 295 293 291 289 288 288 288 288 289 288 288 287 286 286 285 284 284 284 286 285 284 283 282 282 281 281 282 282 281 282 282 281 282 281
293 299 300 300 300 297 296 295 294 292 291 292 291 289 289 288 288 288 287 287 287 285 283 282 281 281 282 283 282 282 280 280 279 280 280 280 279 279 280 280 280 281 281 280
299 301 295 294 293 295 294 293 293 292 291 289 290 289 288 287 287 286 286 286 284 281 280 280 280 279 280 280 280 279 278 278 278 278 278 278 278 277 276 279 279 280 278 278
295 295 292 293 293 292 291 291 290 290 289 289 288 288 287 286 286 285 284 283 281 280 279 280 278 277 278 278 278 278 277 276 277 277 277 277 277 276 276 275 275 276 276 276
294 293 294 291 290 289 288 288 286 285 286 286 287 286 285 284 284 283 282 280 279 279 278 277 276 276 277 278 277 276 276 276 275 276 275 274 275 274 275 274 273 273 274 274
290 290 290 289 288 287 287 287 285 284 285 285 285 285 284 284 283 280 279 280 278 276 276 274 274 276 277 276 276 275 275 273 273 274 273 273 272 272 272 272 271 271 271 270
287 285 286 286 286 286 286 287 286 285 285 284 283 282 282 281 280 278 278 277 276 275 274 274 274 275 275 275 274 274 274 272 270 272 271 270 270 270 270 269 268 269 269 269
291 290 290 288 286 285 285 286 286 285 283 282 281 280 279 279 277 276 276 276 274 274 274 274 274 273 273 272 272 271 271 270 270 269 269 268 267 268 268 267 267 266 267 267
290 289 288 287 286 285 284 283 282 281 280 280 279 278 278 277 277 276 275 274 273 273 272 273 273 272 271 271 270 269 268 267 267 267 266 265 265 265 265 265 265 265 265 265
287 286 285 285 285 283 281 281 281 280 279 279 278 277 276 275 275 274 274 273 274 274 274 272 272 270 270 269 268 268 267 266 265 265 264 264 263 263 263 262 262 263 263 263
284 284 283 282 281 281 281 280 279 278 278 278 277 276 275 274 274 273 273 272 273 274 273 271 271 270 270 269 268 267 266 265 264 264 263 262 261 261 261 261 261 261 262 262
282 280 279 279 279 278 279 279 278 277 276 275 275 275 274 273 273 273 274 273 274 272 272 272 271 266 268 266 268 267 266 265 264 263 262 261 261 260 260 260 259 260 260 261
280 280 279 278 277 277 277 276 276 276 275 274 274 274 275 274 274 272 271 273 273 271 272 270 266 264 262 266 266 265 265 263 262 262 261 260 260 259 258 258 258 258 259 259
279 279 277 277 277 276 275 275 275 275 274 274 273 274 274 272 272 273 273 269 268 269 269 267 266 263 262 265 264 264 263 263 262 261 261 256 259 258 258 257 256 257 257 257
279 279 279 278 277 276 275 275 274 274 274 274 274 274 273 273 273 271 270 269 268 268 268 261 262 260 264 264 263 262 262 262 262 261 260 259 258 257 257 257 255 256 256 256
277 276 276 276 276 276 275 275 273 272 272 271 271 270 270 270 269 269 267 266 267 265 266 265 264 263 263 262 262 261 261 262 261 260 258 258 257 256 256 255 254 255 255 256
275 275 274 273 273 273 273 273 272 270 270 270 270 269 269 268 267 267 264 265 264 263 263 263 263 261 262 261 261 261 261 261 259 259 258 257 256 256 254 254 254 254 254 254

GFSNGP_sfc_thetae_060.txt.gz
Theta_e
298 298 298 297 297 298 296 297 294 296 296 301 304 306 307 306 306 309 310 310 312 318 321 323 324 324 320 315 312 311 309 308 307 306 305 303 302 301 302 302 299 299 297 296
295 298 297 295 297 298 298 298 299 299 298 306 307 306 304 305 307 308 309 310 312 315 319 318 319 318 317 315 314 312 308 305 303 303 302 301 301 302 303 301 299 297 296 295
291 296 295 290 296 298 299 301 301 296 302 306 305 304 304 306 307 307 307 309 310 312 314 314 314 314 313 312 312 310 306 304 304 305 304 303 302 298 295 296 295 295 295 296
292 291 286 297 302 303 300 301 303 303 303 305 305 305 305 307 307 305 306 306 308 309 310 310 311 310 310 309 307 305 303 303 302 301 299 298 299 298 297 297 296 297 298 296
292 290 295 295 297 299 299 299 305 303 305 304 303 303 300 302 305 304 304 304 305 307 307 308 307 307 306 304 302 300 300 301 301 301 300 298 297 297 297 297 297 296 298 297
291 290 288 297 303 305 304 295 305 304 304 303 302 299 303 301 301 300 302 302 303 304 305 305 305 305 303 301 301 301 301 300 301 302 300 297 295 295 299 299 297 296 294 295
292 292 296 301 301 303 293 297 306 306 305 304 302 305 304 301 300 301 301 301 302 303 302 303 303 303 301 301 300 300 301 299 298 296 297 297 296 296 296 295 294 294 293 294
294 291 289 301 299 298 305 307 308 307 307 306 304 301 299 299 298 298 298 299 300 300 300 302 303 302 300 298 299 299 297 294 294 294 293 293 294 294 294 294 292 292 292 290
296 298 305 304 307 308 308 308 306 308 307 308 300 298 298 297 297 297 298 299 300 299 299 299 299 299 296 295 296 295 294 293 292 292 292 291 291 291 290 289 287 287 286 286
298 303 303 304 306 306 306 306 306 307 307 304 300 299 297 296 296 296 297 297 297 295 294 293 294 294 293 293 294 293 291 290 290 287 288 287 287 287 286 286 285 284 284 284
301 305 302 304 306 308 306 305 305 306 306 303 301 298 296 295 295 296 296 296 296 294 292 291 291 290 290 291 291 289 288 286 286 286 285 286 285 284 284 284 282 282 283 282
299 306 306 308 308 310 306 305 304 304 302 302 300 297 296 295 296 295 294 294 293 291 289 287 286 285 285 287 288 286 284 284 283 284 284 284 284 284 280 279 279 280 279 279
305 308 309 303 301 306 306 305 304 303 302 299 299 297 296 294 295 292 293 292 290 287 285 283 282 282 284 284 284 283 282 282 282 282 282 282 282 281 281 282 279 279 277 277
307 303 303 301 304 301 302 302 300 301 300 299 297 296 295 293 291 292 290 288 287 285 282 281 281 281 282 283 282 281 280 278 282 282 281 281 281 280 280 279 278 279 278 276
304 304 303 302 300 299 299 297 296 295 295 294 295 293 292 290 290 289 287 285 284 283 281 282 281 280 281 282 280 280 280 280 280 280 279 278 279 279 278 278 277 277 277 277
303 299 298 298 298 296 295 295 294 292 292 292 292 291 292 290 287 285 285 284 282 280 280 278 278 279 280 280 280 280 278 275 276 278 278 277 277 277 276 276 275 275 275 275
296 294 296 295 295 295 295 295 294 292 292 291 290 290 288 285 283 281 280 279 278 277 277 277 277 278 278 278 277 278 278 276 273 277 276 275 275 275 274 274 273 273 273 273
299 298 298 297 295 293 292 293 292 290 289 287 285 282 281 280 278 277 276 276 276 276 276 276 276 276 275 275 275 275 275 274 275 274 274 273 272 273 273 272 272 271 272 272
296 295 295 294 293 292 289 288 286 284 282 282 281 279 279 278 278 277 276 275 274 274 274 275 274 274 273 272 273 274 273 273 273 272 271 270 272 271 271 271 270 270 270 270
287 287 287 287 286 285 283 283 282 282 282 281 280 278 277 276 277 276 277 276 277 275 275 274 274 273 272 271 271 272 272 272 271 271 271 270 270 269 269 268 268 268 269 269
283 283 282 282 281 281 281 281 281 280 280 280 278 277 276 276 276 276 275 274 274 275 274 273 274 273 273 272 272 272 272 271 270 270 270 269 268 268 268 268 267 267 268 268
281 280 281 281 280 280 281 280 280 279 278 278 277 276 275 275 276 275 276 276 276 274 275 275 273 270 271 269 272 272 271 270 270 269 269 268 267 266 266 266 266 266 266 266
282 281 280 279 279 279 279 278 278 278 277 277 277 277 277 277 277 276 274 275 276 274 275 274 270 268 266 272 272 271 270 269 268 268 267 267 266 265 265 265 264 264 264 265
280 279 279 279 280 279 277 278 278 277 276 277 276 277 277 276 276 276 276 273 272 273 273 272 270 265 266 271 270 269 268 268 268 267 267 264 266 265 265 264 263 263 263 263
280 280 280 279 278 277 277 277 277 276 276 276 276 276 276 276 277 275 275 273 271 272 273 266 265 264 269 269 268 267 267 267 267 266 266 265 265 264 264 263 262 262 261 261
278 277 278 278 278 277 277 277 275 276 276 275 275 275 275 274 274 273 272 271 271 269 271 271 269 268 268 268 267 266 266 267 266 266 264 264 264 263 262 262 261 261 261 261
276 276 275 275 275 275 276 276 275 274 275 275 274 274 274 274 272 272 270 271 271 270 269 269 269 267 267 266 266 266 266 266 264 264 263 263 263 262 262 261 260 260 259 259

GFSNGP_sfc_thetae_063.txt.gz
Theta_e
299 300 300 299 298 299 298 299 295 297 298 301 304 306 308 310 310 310 311 311 312 318 321 323 326 324 321 317 315 315 312 309 307 306 305 304 303 302 302 302 301 299 298 297
296 299 299 296 298 299 299 299 298 299 298 305 307 308 307 308 308 310 311 312 314 317 322 323 324 320 315 312 310 310 307 305 305 305 303 303 302 300 300 299 299 298 298 297
293 298 298 293 297 298 299 301 300 296 302 306 305 306 307 308 310 310 312 313 315 318 320 320 320 318 315 312 311 308 306 306 306 305 304 304 304 302 300 300 298 296 295 295
294 294 287 298 304 303 300 302 303 303 304 306 306 308 309 310 311 311 311 312 314 316 316 317 317 316 315 314 312 310 309 308 307 305 303 303 302 302 300 297 296 297 297 298
293 292 295 298 300 300 299 299 304 303 305 306 308 308 306 309 312 311 311 312 313 314 314 313 313 312 310 309 308 306 305 304 304 304 302 302 300 299 300 298 298 299 300 299
295 289 287 297 303 307 306 296 306 306 306 306 307 301 304 308 311 309 309 309 310 311 311 310 310 309 307 306 306 305 304 304 304 303 302 301 300 300 300 301 298 298 296 296
294 292 296 302 304 307 295 298 307 307 307 307 305 307 310 308 307 307 307 307 309 309 308 308 309 308 306 306 304 304 304 303 302 300 299 300 299 298 297 296 295 295 294 295
295 293 290 305 303 299 306 310 310 310 309 309 310 309 307 306 305 305 305 305 307 306 306 307 307 306 304 302 303 302 301 299 298 297 296 296 296 295 295 295 294 292 291 290
299 299 307 306 307 309 311 311 312 311 311 311 309 306 305 304 304 304 304 304 305 305 304 305 306 305 302 301 300 299 298 296 295 294 294 293 293 292 292 290 289 288 287 287
302 304 306 307 309 310 311 311 312 312 312 311 308 306 304 303 303 303 304 303 304 303 302 301 301 300 299 299 298 296 294 293 292 291 290 289 289 289 288 288 287 285 285 285
300 302 304 308 309 310 311 311 310 310 311 311 308 305 304 303 302 303 303 303 302 300 298 297 297 296 296 296 296 293 291 290 289 288 288 287 287 286 285 284 282 283 284 283
299 304 306 307 310 313 311 311 310 309 308 310 308 305 304 302 302 302 301 300 299 297 296 294 293 292 293 293 292 290 287 287 287 287 286 286 286 284 280 280 280 280 278 279
303 307 308 310 307 308 310 311 311 309 309 307 307 305 304 301 302 297 300 299 297 294 292 290 288 288 288 288 288 287 286 285 283 284 284 284 284 284 283 281 280 280 278 277
308 308 306 308 306 307 307 309 307 309 308 307 306 304 302 300 298 298 297 297 294 290 288 287 285 284 286 286 285 283 282 281 284 284 284 284 283 282 282 281 280 281 279 277
307 309 308 309 306 305 305 305 303 304 304 304 303 301 300 298 296 296 295 291 289 287 285 284 282 282 284 285 283 283 283 282 283 282 281 280 281 281 280 279 279 279 279 279
307 308 308 304 305 304 302 301 302 301 301 300 300 299 298 296 294 290 289 288 285 283 282 280 280 282 283 283 282 281 279 277 278 280 280 279 279 278 278 278 277 278 277 277
303 302 302 302 303 301 300 301 301 299 298 298 297 296 294 289 287 284 281 281 279 278 279 279 279 279 279 280 280 280 280 277 274 278 278 277 277 276 276 276 276 276 276 276
303 302 302 302 302 300 299 299 298 297 294 292 288 286 285 282 279 278 277 277 277 276 277 277 276 276 276 276 277 276 276 275 276 276 276 276 274 275 275 275 274 274 274 275
299 299 299 299 298 295 292 287 285 284 283 283 281 279 279 278 277 277 276 275 274 274 274 275 275 275 274 274 275 275 275 275 275 275 274 272 274 274 274 274 273 273 273 272
287 289 287 285 285 284 283 283 282 280 280 279 279 278 277 277 277 277 278 277 277 275 275 275 274 273 273 272 273 274 274 274 273 273 274 271 273 272 273 271 271 272 272 271
281 282 282 282 282 283 283 283 282 280 280 280 278 277 277 277 277 277 275 273 274 275 275 274 275 274 273 273 273 275 274 273 273 272 272 272 272 272 271 271 270 270 270 270
282 282 282 282 281 281 282 282 281 280 279 278 277 277 277 276 276 276 278 275 275 275 276 275 274 271 272 271 274 274 273 272 272 272 271 271 270 270 269 269 269 269 269 268
283 282 282 281 280 280 281 281 280 279 278 278 278 278 277 277 277 276 274 276 276 276 276 275 271 270 269 273 273 272 272 271 271 271 270 270 269 269 268 268 268 267 267 267
282 282 281 281 281 280 278 278 278 278 278 278 278 279 278 277 277 277 277 275 274 275 274 272 271 268 267 272 272 271 271 270 270 270 270 268 268 268 267 267 266 267 266 265
281 281 280 279 278 278 278 278 278 278 277 277 277 277 277 278 278 277 276 274 272 274 274 269 268 267 271 271 271 270 269 269 269 268 267 267 267 267 267 266 266 265 264 263
278 278 279 279 279 279 279 279 278 278 278 277 277 277 277 277 276 275 274 273 273 271 272 272 271 270 270 270 269 269 269 268 268 268 267 266 266 266 266 265 265 264 263 263
277 278 277 277 277 277 277 277 276 274 275 276 275 276 275 275 274 274 272 273 272 272 271 271 271 269 269 268 267 268 268 268 267 266 265 265 265 265 264 264 263 263 262 261

GFSNGP_sfc_thetae_066.txt.gz
Theta_e
298 299 299 298 297 298 296 298 295 297 297 301 304 305 307 311 310 309 310 311 313 315 319 322 323 320 319 317 316 314 310 307 305 306 304 303 302 302 302 301 301 299 298 297
296 299 298 297 299 299 298 298 298 299 299 305 306 307 306 308 309 309 310 313 314 316 320 323 319 314 312 310 309 309 305 304 304 303 303 302 302 300 299 298 298 297 296 296
291 297 296 290 297 298 299 301 300 295 301 305 304 305 307 308 308 309 312 313 314 317 322 319 316 313 310 307 307 306 305 304 304 304 302 301 301 299 298 297 298 297 296 296
291 291 285 297 303 302 300 301 302 302 303 304 305 307 309 311 310 311 313 313 316 319 319 317 315 313 311 310 308 307 306 306 305 304 303 302 301 301 299 297 295 295 295 296
289 290 294 297 300 300 299 298 304 302 304 305 306 309 308 311 313 313 313 314 316 317 316 316 314 314 312 310 309 308 306 305 304 303 302 301 299 297 297 297 297 297 298 297
294 287 285 297 303 306 305 293 304 305 305 305 307 301 305 310 313 312 313 313 313 314 313 312 311 310 308 306 305 304 303 303 303 303 301 299 299 298 298 299 298 298 295 294
291 290 295 302 304 305 293 296 307 308 308 308 306 308 310 310 311 311 311 310 312 311 309 309 309 308 305 305 303 304 304 303 302 301 300 300 299 299 298 294 294 290 290 290
293 289 287 306 304 297 303 309 311 310 310 312 310 309 309 309 308 308 307 308 309 308 307 307 308 307 304 303 304 303 303 300 299 299 298 297 294 293 293 293 290 287 285 285
297 296 307 306 306 309 312 312 311 312 312 312 310 308 307 306 306 306 306 306 308 306 305 306 307 306 302 302 302 300 298 296 295 295 294 294 292 290 289 288 285 284 283 283
297 303 305 308 308 310 310 310 312 312 313 312 310 308 306 306 305 305 305 305 306 305 304 303 305 304 302 300 299 297 294 293 292 290 289 288 288 287 287 284 283 282 282 281
299 303 304 305 306 309 310 312 312 311 311 310 311 307 306 305 304 304 304 304 304 303 303 302 301 299 299 298 297 294 292 290 287 287 287 286 283 283 282 280 280 280 280 280
298 304 306 306 309 310 309 310 312 310 309 310 312 308 307 305 305 304 304 303 303 302 299 297 296 295 295 296 294 290 288 287 286 285 284 285 283 281 282 280 281 280 279 278
300 307 307 310 310 310 307 309 311 310 310 308 311 309 306 304 304 300 303 302 300 297 296 294 292 291 291 291 290 287 284 284 283 284 283 282 282 282 278 279 281 280 279 278
307 306 305 308 307 308 307 308 309 310 310 310 309 307 305 303 302 301 300 299 297 293 291 289 287 285 286 286 284 282 282 283 283 283 283 282 281 281 280 279 278 278 279 278
304 306 307 310 309 307 306 306 305 305 306 305 306 304 303 301 299 298 296 293 291 288 287 285 283 283 284 285 283 283 282 282 282 281 279 279 280 280 279 278 278 278 278 278
306 307 306 306 305 305 304 303 302 302 302 303 302 301 300 298 292 290 289 288 285 282 280 279 280 281 283 282 280 278 277 278 279 279 279 279 279 278 278 277 277 277 276 275
302 302 303 303 303 303 301 302 302 301 301 300 297 292 287 281 280 279 279 279 279 278 278 278 277 279 279 280 280 279 278 275 275 278 277 276 276 276 276 275 275 275 274 271
302 302 302 301 301 300 294 289 288 288 286 284 282 280 278 277 276 276 276 276 276 276 276 276 276 276 275 276 276 276 276 276 276 275 275 275 274 274 274 274 274 273 272 273
293 293 292 291 290 288 286 284 283 282 281 280 278 276 276 276 276 276 276 275 274 273 274 276 275 274 274 275 275 275 275 275 274 274 274 272 272 274 273 272 272 271 271 271
284 285 284 284 283 282 280 280 280 279 279 278 277 276 275 275 276 277 276 275 275 274 275 275 274 273 273 273 274 274 274 273 273 273 273 271 271 272 271 271 270 270 269 269
281 281 281 281 281 281 281 280 279 278 279 278 277 276 276 276 276 275 274 272 274 275 275 275 274 274 273 273 273 274 274 273 272 272 272 271 270 271 270 269 269 269 268 268
282 281 281 281 280 279 280 280 279 278 277 277 277 276 276 275 276 275 275 273 274 275 275 274 272 271 271 270 274 274 273 272 272 271 271 271 270 269 268 268 267 267 267 265
281 281 281 280 279 279 280 279 279 278 278 278 277 277 277 277 277 275 273 275 276 276 274 271 270 269 268 271 273 272 272 271 270 270 270 269 269 268 267 267 266 266 265 265
281 281 280 280 280 278 277 277 278 277 277 277 278 278 278 276 275 276 275 274 274 273 272 271 269 268 266 271 272 271 270 270 269 269 269 267 268 268 267 266 266 265 265 264
280 280 279 278 278 277 278 278 278 278 277 276 277 276 276 277 275 275 274 273 272 273 270 268 267 267 270 271 270 269 269 268 268 267 266 266 266 265 265 266 264 264 262 261
277 277 277 278 278 278 278 278 276 278 277 275 275 276 276 276 275 274 273 272 272 271 271 271 270 269 269 268 267 267 267 268 267 267 265 264 264 264 264 264 263 263 262 261
276 276 275 275 275 275 275 275 273 273 275 275 273 274 274 274 274 273 272 271 271 271 270 270 270 269 268 267 267 267 266 266 265 264 264 263 263 263 262 262 261 261 260 260

GFSNGP_sfc_thetae_069.txt.gz
Theta_e
294 297 298 297 295 295 295 296 290 293 295 298 299 300 301 302 304 303 305 305 307 309 312 315 313 311 310 310 310 310 308 306 304 304 305 304 302 302 301 301 300 300 298 298
292 297 297 295 297 296 296 295 294 298 296 302 301 301 302 304 304 304 304 306 308 314 317 314 312 309 308 307 307 307 305 304 303 302 302 301 300 300 299 299 298 298 297 296
287 294 294 287 294 295 297 297 295 290 295 300 299 299 300 302 304 305 307 308 311 317 316 312 310 308 305 304 305 305 304 303 303 302 301 300 300 299 297 297 297 296 296 296
287 288 282 293 300 300 297 298 298 297 297 299 299 299 300 301 303 307 308 308 315 314 312 310 308 306 305 306 305 304 303 303 303 301 300 299 299 298 297 296 294 293 295 295
286 286 291 295 297 297 296 294 298 296 298 300 300 301 301 305 306 307 308 310 311 313 311 309 308 307 307 306 306 305 304 303 302 301 300 300 298 296 294 293 294 295 296 295
286 283 282 292 300 303 301 288 300 301 299 300 300 293 297 305 308 308 309 311 311 312 311 309 308 308 305 305 305 303 303 302 301 301 299 296 294 294 295 295 296 296 294 290
284 285 289 299 301 303 289 289 302 302 300 300 298 299 303 306 306 308 308 309 309 309 307 306 307 306 303 302 301 301 301 301 301 299 297 297 296 295 295 293 290 287 286 287
286 285 284 302 300 294 297 301 303 302 303 303 304 303 305 306 306 306 305 306 307 305 303 303 304 303 301 299 301 301 300 299 298 298 299 297 293 291 291 289 286 284 283 282
292 289 300 303 302 304 306 304 304 304 304 305 303 303 305 305 303 303 303 304 304 303 302 302 302 302 299 299 300 299 297 296 294 293 293 291 289 287 286 285 282 281 281 281
295 298 300 303 306 306 307 306 306 305 304 307 305 304 302 302 301 301 301 301 301 301 300 299 300 300 299 299 297 295 292 290 289 287 286 285 286 285 282 280 279 280 280 278
295 300 301 302 304 304 306 307 307 307 306 304 304 302 302 300 300 300 300 300 301 300 299 298 298 297 296 295 294 291 289 286 285 284 282 281 281 280 278 278 280 278 277 278
291 300 299 301 304 305 304 305 306 306 305 304 305 303 302 300 300 300 299 299 299 297 294 293 294 293 294 294 290 286 285 283 281 280 280 280 279 279 281 281 281 281 280 277
295 300 303 305 306 305 303 304 305 305 305 304 305 303 301 300 300 296 299 297 294 291 289 285 284 283 285 287 286 284 281 283 282 282 281 281 280 279 277 280 281 280 280 279
301 303 300 301 301 303 304 304 304 304 304 304 302 301 300 299 298 297 294 291 288 285 283 283 282 281 283 284 283 283 283 282 281 281 280 280 279 279 279 278 276 277 280 278
302 302 300 305 304 302 302 302 300 300 300 299 299 298 296 292 290 288 287 286 284 282 282 281 281 281 281 281 280 280 281 280 279 278 278 279 279 279 279 278 278 277 278 277
302 301 302 301 301 300 300 299 297 296 296 292 287 284 283 282 281 280 281 281 278 277 277 277 277 279 281 279 278 278 278 278 279 279 278 278 278 277 277 276 276 276 275 274
296 296 297 297 295 292 290 291 290 287 284 282 281 280 279 278 277 276 276 277 277 276 277 276 276 278 279 279 279 277 276 276 277 277 276 276 275 275 275 274 274 274 272 270
291 291 291 293 290 287 285 284 283 281 279 279 278 277 276 276 275 275 276 276 274 274 274 275 275 276 276 276 277 276 276 276 275 274 275 273 272 273 273 273 273 271 270 271
287 286 286 285 284 282 281 280 279 279 279 278 277 276 276 276 275 275 274 273 272 271 273 274 275 274 274 276 275 275 274 274 273 273 273 272 271 273 271 270 269 268 268 268
282 282 281 281 281 280 278 279 278 278 278 277 276 276 274 274 274 273 273 272 273 273 275 274 274 273 273 273 274 274 273 272 273 272 271 270 269 268 268 268 268 266 264 264
280 280 279 279 278 278 278 278 277 276 277 276 275 274 274 274 274 273 272 271 273 275 275 274 274 272 272 272 273 273 272 271 270 270 269 266 266 266 265 264 263 263 263 262
279 278 277 277 277 276 277 277 277 276 276 275 275 275 274 273 273 272 273 272 274 275 273 271 270 269 269 271 272 271 271 270 269 268 267 265 263 262 262 262 261 262 261 259
278 278 277 277 276 276 277 277 276 276 275 275 275 274 275 275 274 272 271 275 274 271 271 269 268 268 267 270 269 269 267 266 266 266 266 266 266 264 262 262 262 261 258 259
278 278 278 278 278 277 275 276 277 276 275 274 274 276 274 272 272 273 273 270 269 269 268 267 267 267 266 267 267 265 263 261 262 260 260 258 256 260 262 260 260 259 258 255
278 278 278 277 276 276 277 277 276 275 274 274 274 274 274 274 271 271 271 271 271 268 266 266 266 265 264 261 259 258 257 263 263 262 262 259 256 253 254 258 259 259 258 258
275 274 274 274 274 274 274 274 274 274 273 272 272 272 272 272 272 271 270 270 269 268 268 265 266 263 260 258 256 256 257 258 260 259 255 254 253 254 255 258 258 257 253 250
273 273 273 272 272 272 272 272 270 270 271 270 269 270 270 269 269 268 267 266 265 263 262 262 262 262 260 258 257 256 255 254 255 256 252 251 250 251 256 254 251 249 250 250

GFSNGP_sfc_thetae_072.txt.gz
Theta_e
292 295 295 294 294 295 293 293 290 293 294 297 298 299 300 300 301 300 301 305 307 307 313 312 313 313 313 312 310 313 310 309 306 306 306 305 305 304 304 304 304 304 300 298
289 294 295 292 295 296 296 294 295 295 294 301 302 299 300 301 302 300 302 302 305 310 313 311 310 310 310 309 308 309 307 304 304 304 303 303 301 300 300 300 300 299 298 298
284 293 292 287 292 295 295 296 295 290 296 301 300 300 298 300 301 301 302 307 311 313 314 310 310 309 307 307 308 306 305 304 303 303 301 300 300 299 298 298 298 297 296 296
282 287 281 291 299 299 297 298 298 296 297 298 299 299 298 300 301 303 305 309 312 313 310 308 308 307 307 307 306 305 304 303 303 302 300 300 299 298 297 297 296 295 295 295
283 284 289 292 296 297 295 294 299 296 297 298 297 299 298 301 303 306 305 311 311 311 308 306 305 306 306 305 305 304 303 302 302 301 299 299 297 296 295 294 295 295 296 296
283 281 278 289 298 302 300 289 300 299 298 298 298 291 295 303 306 306 309 311 309 308 308 306 305 305 304 303 303 302 303 302 302 300 300 297 296 295 293 294 295 296 294 290
281 281 286 296 300 302 289 289 300 302 300 298 296 298 300 305 306 308 310 310 310 309 307 305 305 304 302 302 302 303 303 301 300 298 296 295 294 294 293 292 290 286 285 285
283 280 281 300 299 293 296 300 301 301 302 301 300 301 303 305 305 306 307 307 308 306 304 305 305 303 300 298 300 300 299 297 296 296 296 295 293 292 290 288 284 283 281 280
288 287 297 302 302 303 303 301 302 303 304 304 301 301 303 303 304 305 305 304 304 302 300 301 301 301 298 298 298 297 297 295 295 294 293 291 289 287 286 285 283 281 281 278
291 295 299 301 304 305 305 303 305 304 304 304 302 301 302 302 301 301 301 301 302 301 300 298 299 299 298 297 297 295 291 291 289 285 284 284 284 283 282 280 280 281 280 278
292 296 300 301 304 304 306 305 304 305 304 302 303 302 301 301 301 301 299 300 301 299 298 296 297 295 296 294 293 290 288 285 283 282 282 280 279 279 279 280 280 280 279 279
289 299 298 299 302 306 303 301 304 305 304 302 304 302 301 299 299 300 298 299 295 294 291 288 289 290 292 292 289 286 284 282 282 281 280 280 279 279 282 282 282 281 280 279
294 297 300 301 302 303 300 302 304 303 303 302 303 301 300 298 298 295 296 293 287 285 284 284 284 284 286 287 286 284 282 282 282 282 281 280 280 279 277 280 281 281 280 280
300 298 297 300 300 303 303 303 302 302 300 300 299 299 298 296 293 290 286 284 284 283 283 282 281 281 284 284 282 281 281 281 280 280 280 279 279 279 279 278 277 278 280 279
295 300 298 302 301 300 301 300 298 294 291 289 292 292 290 287 284 283 282 282 281 280 280 280 279 280 282 282 282 281 280 279 279 279 279 279 279 278 278 278 277 277 278 277
295 298 299 298 297 297 298 296 291 286 284 283 281 281 280 280 279 278 279 279 278 276 278 278 279 279 280 280 279 279 279 279 279 278 278 277 277 277 276 276 275 275 275 274
290 290 291 292 290 289 287 286 285 283 281 280 279 279 278 277 277 276 276 277 276 276 277 277 276 278 278 278 277 276 277 277 277 277 276 276 275 274 274 274 273 273 272 271
288 287 286 287 286 283 281 281 281 280 279 279 278 277 277 276 275 275 274 274 273 273 274 275 276 276 276 276 276 276 275 275 275 274 274 273 272 273 273 272 272 271 270 271
284 283 283 282 282 280 279 279 278 278 278 277 276 275 275 274 274 273 273 272 271 270 272 274 275 274 275 275 275 274 273 273 273 273 273 272 271 272 270 270 269 268 268 268
279 280 279 279 279 278 277 277 277 277 276 276 275 274 272 273 273 272 272 271 272 273 274 274 273 273 273 274 274 273 273 272 272 271 270 270 269 268 268 268 267 266 264 265
277 277 276 276 276 276 276 276 276 275 275 275 273 273 272 273 273 273 271 270 272 272 272 271 271 271 272 273 273 272 270 269 268 267 267 266 264 264 263 262 262 262 262 261
277 276 276 276 276 275 276 276 276 275 275 274 273 273 272 272 272 272 273 271 271 270 270 269 269 269 270 271 270 268 268 267 266 266 265 265 264 263 262 261 260 259 258 256
276 276 276 275 275 275 275 275 275 275 273 273 273 273 272 273 273 270 268 271 270 269 269 268 268 268 267 267 265 264 262 262 260 259 259 258 258 256 257 259 260 259 257 258
276 277 276 277 276 275 273 274 275 274 274 274 273 273 272 269 270 271 270 268 267 267 267 267 266 266 264 263 262 261 260 260 258 253 254 254 251 251 253 252 257 257 257 255
275 275 275 275 275 274 274 274 274 273 273 272 272 272 272 272 269 270 269 268 268 267 266 265 264 262 261 260 258 255 255 253 253 252 250 249 248 248 249 251 252 252 251 249
272 272 272 273 273 273 274 273 271 271 271 269 269 269 269 269 269 268 267 266 265 264 264 263 261 259 257 256 254 251 251 257 256 254 249 248 248 249 248 249 247 247 246 247
272 272 271 270 270 271 270 270 269 267 267 265 264 266 267 266 265 264 262 261 260 259 256 253 254 255 254 251 252 251 251 251 251 250 246 246 248 247 246 245 244 245 245 246

GFSNGP_sfc_thetae_075.txt.gz
Theta_e
291 293 295 294 293 294 290 292 289 291 293 297 299 299 299 299 299 299 300 302 305 307 308 310 310 312 313 314 315 318 317 317 316 312 312 312 314 316 312 311 310 308 305 302
288 292 294 292 294 293 292 293 292 293 293 298 301 299 298 300 299 299 299 301 304 306 311 310 311 309 310 311 310 312 310 311 308 308 307 305 304 303 302 302 302 301 300 299
284 291 292 285 290 293 293 294 294 289 294 299 298 299 299 299 299 300 300 301 304 308 312 310 309 311 311 309 310 309 308 306 305 305 303 302 302 301 300 301 300 298 297 298
283 287 279 290 297 297 295 296 298 296 296 297 299 302 300 300 300 300 300 300 303 308 310 308 309 310 308 309 308 307 306 306 305 304 302 301 300 299 298 297 296 296 296 296
282 282 287 290 295 295 293 293 299 298 298 297 297 297 297 301 299 301 302 304 307 309 308 309 309 308 307 307 306 305 304 304 304 302 300 299 298 296 296 296 296 296 296 296
285 280 276 288 296 300 299 287 299 299 298 297 296 291 294 299 300 301 303 308 307 306 307 307 307 308 306 305 305 303 303 302 302 301 300 298 296 295 296 297 296 296 291 290
284 283 286 294 298 301 288 288 300 300 300 300 295 297 299 299 303 305 308 308 307 306 305 305 306 307 305 304 303 304 303 301 301 300 298 297 296 295 295 295 291 286 284 284
283 281 281 298 298 292 296 299 302 301 300 301 300 299 300 301 304 306 307 306 306 304 303 304 304 303 302 302 303 303 301 299 297 297 296 295 294 293 291 289 285 283 282 280
289 286 296 300 300 302 303 301 301 302 302 303 302 300 300 302 304 305 306 305 305 304 302 302 302 302 298 298 300 299 297 296 295 294 293 291 291 287 285 285 283 282 281 279
291 295 298 300 302 304 304 303 303 302 302 302 302 302 300 301 302 302 302 302 302 301 299 297 299 299 298 297 297 296 293 290 289 287 285 285 285 285 284 283 283 282 279 277
293 296 299 299 300 301 303 305 302 303 303 303 302 302 302 301 301 301 300 300 301 299 296 295 297 296 297 296 294 289 287 286 284 283 281 280 281 282 281 281 283 282 280 279
287 295 296 296 300 303 302 303 302 302 303 303 303 302 300 299 299 299 298 297 294 291 291 291 291 290 291 291 289 286 284 283 282 281 280 280 279 279 282 282 282 282 281 279
293 297 297 300 300 302 301 300 303 301 301 302 303 301 299 297 295 290 289 288 286 285 285 284 284 283 285 286 285 284 282 282 281 281 280 280 280 279 277 280 282 281 281 280
296 295 296 298 298 301 302 301 298 294 293 296 297 297 294 288 286 284 283 283 283 282 281 281 281 281 283 283 282 281 281 281 281 280 280 280 279 279 279 279 277 278 280 279
291 292 296 298 298 299 300 298 291 288 286 286 287 286 284 281 280 280 280 280 280 280 280 280 280 281 283 283 282 281 281 279 279 279 279 278 279 278 278 277 277 277 278 278
289 293 294 292 291 291 292 290 285 284 282 280 279 278 278 278 278 278 279 279 278 277 278 277 278 279 280 280 279 279 279 279 278 278 277 276 276 275 275 275 275 275 274 274
286 287 285 288 284 283 283 284 282 281 279 279 278 278 278 277 276 275 275 276 276 275 276 276 276 277 278 278 277 277 276 276 276 276 274 274 274 273 274 273 273 272 271 271
287 285 284 284 282 281 279 279 279 278 278 278 277 276 275 274 273 273 273 274 273 273 274 275 275 275 275 276 276 275 275 274 274 273 272 272 272 272 271 271 271 270 270 270
282 281 281 281 281 280 279 278 277 277 276 275 274 273 273 273 272 272 272 271 271 270 271 274 275 274 274 275 274 273 273 272 272 272 272 270 270 270 269 268 267 266 266 266
278 278 278 278 278 277 276 276 276 275 275 274 273 272 271 271 272 271 271 269 270 271 272 273 273 273 273 273 273 272 271 270 270 269 268 267 266 265 265 265 265 262 262 263
276 276 276 275 275 275 275 275 274 273 273 273 272 271 271 272 272 271 269 267 269 271 271 272 272 271 271 271 270 269 268 267 266 265 264 262 261 261 260 259 259 257 256 255
275 275 274 274 274 274 275 275 274 273 273 272 272 272 271 269 269 268 269 268 269 270 270 270 269 268 268 268 267 266 266 264 263 262 260 260 257 254 253 252 252 253 253 253
275 275 275 274 273 273 274 274 273 272 271 271 271 271 271 271 270 267 265 269 269 268 268 267 266 265 264 264 263 261 260 259 258 255 253 250 250 248 249 249 250 250 250 252
275 275 275 275 275 273 272 272 273 272 271 271 270 271 270 267 267 269 268 267 267 266 265 264 263 262 261 259 258 256 255 252 251 249 250 249 245 245 247 246 249 248 248 248
273 274 274 274 272 272 272 272 272 271 271 270 270 270 270 270 267 268 267 266 266 264 263 261 260 258 256 254 253 252 252 251 248 247 246 245 245 245 245 245 245 245 244 245
271 271 271 272 272 272 272 271 269 269 268 267 267 266 266 266 266 265 264 263 262 261 259 257 256 255 253 252 250 250 250 252 248 248 245 245 246 247 245 246 244 244 244 245
270 270 270 269 269 269 268 267 266 264 265 264 264 265 264 263 262 261 259 258 256 255 253 252 251 252 250 247 248 248 248 248 247 247 243 244 245 244 243 243 242 242 243 243

GFSNGP_sfc_thetae_078.txt.gz
Theta_e
289 290 290 291 291 292 290 289 286 288 290 296 297 298 300 300 298 297 298 300 302 304 305 309 309 310 312 312 313 314 314 314 314 315 317 315 313 313 313 314 315 314 310 307
286 290 290 288 291 291 291 291 290 290 290 298 299 300 298 300 299 298 298 299 301 303 304 305 306 308 309 309 311 313 313 314 315 313 313 313 310 309 309 308 307 306 305 304
282 289 289 284 289 290 291 293 292 287 292 298 297 297 298 300 299 299 298 299 302 304 306 309 308 307 307 309 307 311 312 312 311 308 307 305 304 303 302 301 301 299 299 299
282 284 277 288 295 296 293 294 295 294 296 298 299 299 298 300 300 299 300 300 300 303 306 307 307 306 309 311 310 309 309 307 307 306 304 302 302 301 298 298 298 297 297 297
283 282 285 288 293 294 292 291 296 296 298 300 300 294 295 298 300 302 302 302 301 302 305 308 308 308 309 308 308 307 306 305 305 304 302 301 299 297 297 296 296 296 297 296
284 281 278 287 294 299 297 286 298 299 297 296 295 289 293 297 298 301 299 302 304 306 307 307 307 308 307 306 306 304 304 303 303 303 301 298 296 296 297 297 295 292 290 292
284 282 286 294 296 299 286 288 299 301 300 298 294 296 299 299 299 302 303 304 305 306 306 306 308 308 305 305 304 303 302 302 301 300 298 297 296 296 296 291 287 285 284 284
285 282 281 297 298 292 294 298 300 301 301 301 301 301 301 300 301 303 304 305 304 304 305 306 308 307 304 302 302 302 301 298 297 297 296 295 293 292 290 287 284 283 282 281
286 286 294 297 299 301 302 300 300 301 302 302 301 301 301 301 303 303 303 305 304 303 302 304 305 305 301 301 300 298 297 295 294 293 293 293 290 288 287 286 284 282 281 280
288 292 294 297 300 303 304 302 303 303 303 302 301 301 301 300 301 301 302 302 303 302 300 299 300 299 298 298 298 296 292 291 290 288 287 287 287 287 286 284 283 282 281 279
288 292 294 297 300 302 303 303 303 302 301 302 302 301 302 300 300 300 299 299 299 298 296 296 296 296 295 295 294 291 290 288 286 285 284 282 282 282 282 283 284 282 280 279
283 292 292 294 298 301 300 301 303 301 301 302 301 299 299 298 298 296 294 293 292 291 290 288 287 288 290 291 290 287 283 281 281 281 281 280 280 279 283 283 283 283 282 280
290 294 293 295 296 299 300 300 299 296 296 296 297 297 295 289 288 286 285 285 285 284 283 283 283 283 285 285 285 283 281 281 281 281 280 280 280 279 277 280 282 281 281 280
293 291 292 293 292 297 298 296 293 290 288 289 287 287 285 284 283 282 282 282 282 282 282 282 281 281 283 283 282 282 281 281 281 281 280 280 280 279 279 278 276 277 280 280
289 290 292 292 290 291 291 291 285 283 282 281 282 281 281 279 278 279 280 281 281 280 281 281 280 280 283 283 282 281 280 279 279 279 278 278 278 277 277 277 277 277 277 276
287 290 288 286 285 285 287 286 283 282 280 279 278 278 278 277 277 277 278 279 278 276 277 277 277 279 280 280 279 278 278 277 277 276 276 275 275 275 274 274 274 273 272 272
285 285 284 285 282 280 280 281 280 279 278 278 277 277 276 276 275 274 274 275 275 274 275 275 275 277 277 277 276 276 275 275 274 274 273 273 273 273 273 272 271 271 270 270
284 284 284 283 281 280 278 278 278 277 276 276 275 274 273 272 272 272 273 273 273 272 273 274 274 275 275 275 275 275 274 273 273 272 272 271 270 270 269 269 269 268 268 267
280 280 280 280 280 279 277 276 276 275 274 273 272 271 272 272 271 271 271 270 270 269 271 274 275 274 273 274 273 273 272 271 271 271 270 268 267 267 266 264 262 261 261 262
277 277 277 277 278 277 275 275 275 274 274 273 272 270 269 269 269 269 269 268 270 271 272 272 272 271 271 271 271 270 269 268 267 265 265 264 262 259 259 260 260 257 254 256
275 275 274 274 273 274 274 274 273 272 272 272 271 269 269 269 269 269 268 267 269 270 270 270 270 269 269 269 268 267 266 264 263 262 260 257 256 255 254 252 253 251 252 252
274 273 273 273 273 272 273 273 273 272 271 270 269 269 268 267 267 268 268 268 269 268 268 267 267 266 266 266 265 264 263 262 260 259 257 255 253 251 248 249 249 249 249 248
274 274 273 272 271 271 272 272 271 271 269 269 269 269 269 269 268 266 264 268 267 266 266 265 264 263 263 262 261 259 257 256 256 255 252 250 248 246 247 247 246 246 246 247
274 273 273 273 273 272 270 271 271 271 270 270 269 269 268 266 266 267 266 265 264 263 263 262 261 260 259 259 257 256 255 253 250 248 250 246 243 244 244 244 246 244 244 245
273 273 273 272 271 270 270 271 270 269 269 268 268 269 269 268 265 265 264 263 264 262 259 259 258 257 254 252 252 251 248 247 245 245 244 244 243 243 243 243 243 242 243 243
270 270 269 270 270 270 270 269 268 268 267 265 264 264 264 264 264 263 262 261 260 259 257 254 251 249 248 249 247 247 247 249 246 245 243 244 243 245 243 243 242 243 242 242
269 270 269 268 268 267 267 267 265 264 265 263 262 263 262 261 260 259 257 256 254 253 248 247 247 249 248 246 247 246 246 245 245 245 242 242 242 241 241 241 241 241 241 242

GFSNGP_sfc_thetae_081.txt.gz
Theta_e
290 291 292 291 291 293 292 293 290 292 293 297 301 302 304 303 304 304 304 304 308 312 314 316 316 315 315 315 315 315 315 315 315 317 317 318 319 319 320 320 320 321 320 320
286 291 292 289 292 292 293 293 293 293 293 301 303 304 303 304 303 304 305 304 306 308 310 313 314 316 315 315 315 315 314 315 316 317 318 318 319 319 318 317 319 319 318 315
283 289 288 285 290 292 293 295 295 291 297 302 301 301 303 303 303 303 305 304 304 307 309 311 313 315 315 316 316 315 315 315 316 317 317 318 318 314 314 314 309 307 304 303
283 286 280 291 296 296 294 296 298 297 299 301 302 303 303 305 304 304 304 306 305 305 308 312 313 313 315 315 316 316 316 316 317 316 314 309 308 307 303 302 301 300 299 298
282 283 285 291 295 295 294 294 299 298 299 300 303 301 303 303 303 302 305 307 308 308 308 312 313 313 313 313 314 314 313 311 310 310 307 306 304 300 299 298 298 297 297 296
285 281 278 289 296 300 300 290 299 300 300 300 299 296 299 302 305 304 305 304 304 306 310 312 312 313 312 310 310 308 308 308 308 307 305 302 299 298 298 297 293 292 291 291
284 283 288 295 298 301 288 292 301 303 302 301 299 302 305 305 305 305 308 308 308 309 309 311 312 312 309 309 306 305 305 303 302 301 299 298 297 296 293 290 287 286 284 285
285 283 281 298 299 293 299 302 303 303 303 303 304 303 305 304 305 307 306 305 308 308 307 308 310 310 307 304 303 303 301 299 298 297 297 296 293 291 289 287 285 283 282 282
289 289 297 299 301 304 304 303 305 304 305 306 305 304 305 304 304 304 304 304 305 305 305 306 307 306 301 300 300 298 296 295 294 294 293 292 290 288 287 286 285 283 282 280
291 293 294 297 300 302 303 303 306 306 305 305 304 303 303 304 302 302 303 303 302 301 299 298 300 301 300 299 298 296 293 292 291 289 288 288 288 288 287 285 284 283 281 279
290 293 296 297 299 300 300 300 302 305 305 304 303 303 303 302 300 299 299 300 300 298 296 295 296 296 297 297 297 293 291 289 287 286 284 283 283 284 283 284 285 282 281 280
288 293 293 295 298 298 297 298 301 303 302 300 303 300 298 295 294 293 292 292 291 289 288 287 289 290 291 293 292 288 285 285 284 283 283 283 282 281 284 283 283 283 283 282
290 292 292 294 296 295 295 293 291 291 294 293 293 292 290 287 286 286 287 287 285 284 285 284 284 284 285 286 286 285 283 282 282 282 282 281 281 280 278 281 282 282 282 281
290 290 292 293 290 291 293 290 288 287 286 286 285 285 285 284 283 282 282 283 283 283 283 283 282 282 284 284 283 282 282 282 282 281 281 281 280 281 282 281 279 279 280 280
287 289 290 290 289 287 289 289 286 283 283 282 283 282 282 281 280 280 280 280 280 280 280 281 280 280 282 282 281 281 280 279 279 279 279 280 281 280 280 280 279 278 277 276
285 288 288 286 284 283 284 284 282 281 281 280 279 279 279 278 277 277 277 278 277 275 276 276 277 279 280 279 278 277 277 277 278 278 278 278 278 277 277 276 275 275 274 274
281 283 283 283 281 280 280 280 280 279 279 278 277 278 277 276 275 274 274 275 275 274 275 275 275 277 277 277 276 276 276 276 276 276 276 276 275 275 275 274 273 272 271 270
281 282 282 282 280 280 279 279 278 277 276 276 275 274 273 273 272 272 273 273 273 272 273 274 275 275 275 276 276 276 275 275 274 273 273 273 272 272 272 272 271 270 269 268
279 279 279 279 280 278 277 276 276 275 274 274 272 271 271 271 271 271 272 271 270 270 271 273 274 274 274 274 274 274 273 272 271 271 270 269 270 269 269 268 268 267 268 267
276 276 276 275 276 276 274 274 274 272 272 271 271 270 269 269 270 270 269 268 269 271 272 271 271 271 271 270 271 271 270 270 268 268 267 267 266 266 266 264 265 265 265 264
274 274 274 273 273 273 273 273 272 270 270 270 269 268 268 270 270 270 268 267 268 270 269 269 270 269 269 269 269 268 267 266 265 265 264 264 263 263 263 263 262 262 262 262
273 272 272 272 272 271 272 272 271 270 270 269 269 269 268 267 267 267 267 267 268 268 268 267 267 266 266 267 266 266 265 264 264 263 262 262 262 261 261 261 260 260 260 260
273 273 272 271 271 270 271 271 270 269 268 268 268 268 268 268 268 266 264 267 267 266 266 265 264 263 263 264 263 263 262 262 261 261 261 261 260 260 260 259 259 259 259 258
273 273 272 273 272 271 269 270 270 270 269 269 268 268 267 265 265 266 266 264 263 264 264 263 262 262 262 263 262 261 261 260 260 260 259 257 259 259 259 258 258 258 257 256
272 272 272 271 270 269 269 269 269 268 267 267 267 267 267 267 265 265 264 264 264 263 262 260 260 260 261 261 260 259 259 259 259 259 259 258 258 257 258 257 255 256 255 255
270 269 269 269 269 269 269 269 267 267 266 264 264 264 264 265 264 263 262 262 261 260 260 260 260 260 260 259 259 259 259 259 259 258 257 257 257 257 256 255 255 254 254 254
269 269 269 267 267 267 267 267 266 265 265 264 263 263 263 262 261 261 260 260 259 258 258 259 259 258 259 259 259 258 258 258 255 258 257 257 256 255 254 254 254 253 253 253

GFSNGP_sfc_thetae_084.txt.gz
Theta_e
290 292 292 292 293 294 293 295 292 294 295 299 302 304 306 308 309 309 310 310 313 317 320 321 322 323 323 323 323 323 321 320 320 322 322 322 322 323 321 321 322 323 323 323
288 292 293 291 293 295 295 295 296 296 296 304 306 307 307 307 308 308 309 310 311 313 319 321 321 322 322 322 322 323 321 320 321 321 321 321 321 321 321 321 322 322 322 323
284 291 291 287 293 295 296 298 297 293 299 304 303 304 305 307 308 308 310 309 309 311 314 319 322 322 322 322 323 322 321 321 320 321 320 321 321 321 321 322 322 321 323 323
284 287 280 292 297 299 297 298 300 299 301 303 304 306 308 309 308 307 308 308 308 310 313 315 320 322 323 323 322 321 320 320 321 320 320 321 320 320 321 319 316 310 304 301
282 285 289 289 291 294 296 296 301 300 302 304 306 307 306 308 310 311 310 310 311 311 311 315 317 320 321 322 321 320 319 320 320 320 320 320 317 315 311 304 301 299 299 296
285 282 280 289 295 300 300 293 303 304 304 304 305 300 304 309 312 313 313 314 311 312 310 312 316 317 319 320 320 319 320 320 319 318 315 313 307 301 299 297 294 293 290 290
284 282 288 297 299 301 288 291 303 305 306 305 304 307 309 310 312 313 313 312 312 312 311 313 316 318 317 318 317 316 315 314 312 311 305 301 298 296 293 290 288 286 285 285
284 284 282 300 299 292 297 305 305 305 306 307 308 308 309 310 310 311 309 308 310 311 310 313 316 316 313 310 308 307 305 301 300 299 298 296 293 291 289 287 285 284 283 282
291 290 298 298 299 303 303 302 303 306 309 309 308 307 309 309 309 307 306 305 307 306 305 308 311 310 303 301 301 299 298 296 295 294 294 293 291 289 287 287 284 283 282 280
291 295 296 297 301 301 303 302 305 306 306 308 308 309 308 308 307 306 303 302 301 300 298 298 300 300 300 299 298 295 293 292 291 290 289 290 289 289 287 286 284 283 281 279
291 295 298 298 300 300 299 301 301 305 308 308 309 308 308 305 302 301 300 298 297 295 294 294 296 297 297 296 294 291 289 288 286 286 285 283 284 285 284 284 285 282 281 280
291 294 295 298 299 299 297 297 297 299 305 305 307 304 302 297 296 294 292 291 290 289 288 288 289 291 294 294 292 290 287 286 285 284 284 284 282 281 284 283 284 284 284 283
292 293 295 298 299 297 296 295 293 294 295 296 296 297 295 290 288 287 287 286 285 285 286 286 285 285 286 288 290 287 285 284 284 284 282 281 281 280 278 281 282 282 282 282
291 292 294 294 290 293 294 295 293 292 292 292 291 291 289 285 284 283 282 283 283 283 282 282 282 282 284 285 285 284 283 283 282 282 282 282 282 281 282 281 279 279 280 280
288 289 290 291 289 289 292 292 291 288 288 287 288 286 285 283 281 280 281 280 280 279 280 280 280 279 281 282 281 281 280 280 281 281 282 282 283 283 282 281 279 278 278 277
286 287 287 286 285 284 285 288 287 285 285 284 283 281 280 279 278 277 277 278 277 276 277 277 277 278 280 280 279 279 279 280 281 281 281 281 282 281 280 278 277 277 276 276
282 283 284 283 283 281 281 282 283 283 282 281 279 279 278 276 275 275 274 275 275 274 275 276 276 278 279 279 278 278 277 278 278 279 279 279 278 277 277 276 275 274 272 272
282 282 283 282 281 280 279 279 279 279 278 278 277 276 275 274 273 273 273 274 273 272 274 275 276 277 278 279 279 278 277 277 277 276 276 276 276 276 276 275 274 273 272 271
280 279 280 280 280 279 278 276 275 275 274 274 273 272 272 272 273 273 273 272 272 272 272 274 275 275 275 277 277 277 276 275 275 274 274 274 274 274 273 273 272 272 271 270
278 278 277 277 277 276 274 274 274 272 272 272 272 271 270 271 271 270 271 270 271 272 273 274 274 273 273 273 274 275 274 273 272 272 272 272 271 270 269 268 269 270 269 269
275 275 274 274 273 273 272 272 271 271 271 271 270 270 269 271 272 273 272 270 270 271 271 271 272 272 272 272 273 272 271 270 270 270 269 269 269 268 268 268 267 267 267 267
274 273 273 273 273 272 273 273 272 271 271 270 270 270 269 269 268 268 269 269 270 269 270 270 269 268 270 270 270 270 269 269 269 268 268 268 267 266 266 266 266 266 266 266
274 274 273 272 271 271 271 271 270 270 269 268 268 268 269 269 270 269 266 269 269 268 269 268 266 266 267 269 268 268 267 267 266 266 266 266 266 265 265 264 265 265 264 264
274 273 273 273 273 272 270 271 271 270 270 269 269 269 269 268 267 268 267 266 265 266 266 266 265 265 266 267 266 266 266 266 266 265 264 263 265 264 264 263 263 263 263 262
274 273 273 272 271 270 270 271 270 270 269 269 269 269 269 269 268 267 267 266 265 266 265 263 264 264 266 265 265 264 265 265 265 265 264 264 264 263 263 263 262 262 261 261
272 271 272 272 272 272 272 272 270 270 269 268 268 268 268 267 267 266 265 264 265 264 265 265 265 265 265 265 264 264 264 264 264 263 263 263 263 263 261 261 261 261 261 260
273 272 272 271 271 271 271 271 270 269 269 268 266 267 266 266 265 265 264 265 264 264 264 265 264 263 264 264 264 264 264 264 260 263 263 262 262 262 260 260 260 260 260 259

GFSNGP_sfc_thetae_087.txt.gz
Theta_e
290 291 292 293 293 294 293 294 291 294 295 299 302 304 307 309 310 310 310 311 313 318 321 322 323 325 326 326 326 326 324 324 325 328 327 327 328 328 326 324 326 327 326 326
289 292 292 290 293 294 295 295 295 296 296 303 305 307 307 306 308 309 310 311 312 314 319 322 322 323 326 326 327 326 325 325 324 325 325 327 327 327 327 327 326 326 325 325
284 290 291 287 292 294 295 298 297 293 298 303 303 305 306 307 308 308 310 311 312 313 314 318 323 324 324 325 328 326 325 324 323 323 323 325 324 323 324 324 325 324 324 324
285 287 278 290 299 297 296 297 302 301 301 303 304 306 308 309 309 310 311 312 313 313 314 316 319 324 325 325 325 326 325 324 324 323 322 322 322 322 324 324 323 321 319 316
283 284 287 290 295 294 292 292 303 303 302 303 305 306 306 310 311 311 313 315 315 316 317 315 315 319 324 324 324 323 323 324 324 324 323 323 323 323 324 322 310 305 302 297
286 281 280 292 298 301 300 291 300 304 306 304 305 300 303 312 313 314 315 316 316 317 316 316 315 318 319 321 322 321 323 322 324 324 323 323 323 314 309 304 296 293 290 290
285 283 288 297 301 303 288 290 299 301 306 305 304 307 309 312 313 314 315 314 316 316 315 316 317 317 317 319 321 322 323 323 323 322 321 312 304 300 295 291 290 288 286 286
286 283 281 300 299 293 296 302 301 303 304 305 306 309 309 312 312 313 313 313 313 311 311 314 317 317 316 314 312 312 308 304 302 300 299 298 294 292 290 290 286 284 283 282
289 289 298 300 301 301 301 300 302 303 305 306 306 308 309 311 312 311 309 309 308 305 303 303 308 309 303 302 302 300 297 295 294 293 293 292 291 290 288 286 284 283 281 280
291 294 296 299 301 301 301 300 301 303 308 308 308 309 309 311 310 307 304 303 301 299 296 296 298 299 299 297 295 293 290 289 289 288 288 289 289 288 286 285 283 282 281 279
292 296 298 298 299 299 300 301 299 301 306 305 309 310 310 307 302 299 296 295 295 293 291 290 294 294 294 293 292 289 288 287 285 284 284 283 283 284 283 283 284 281 280 281
291 296 296 297 300 298 298 298 297 297 299 301 303 303 300 294 291 290 289 290 289 288 288 287 287 287 291 291 290 287 285 284 284 283 282 282 281 281 283 283 283 283 282 281
291 295 296 297 299 296 296 297 297 296 296 296 297 296 292 287 286 285 285 284 284 284 284 283 284 285 285 285 287 285 284 283 283 283 282 280 280 279 277 280 282 282 282 282
292 294 295 293 291 292 293 296 298 296 295 294 294 292 288 285 283 281 280 281 282 282 281 281 281 280 283 284 284 284 283 283 282 282 281 281 281 280 280 279 277 277 279 278
289 291 291 291 292 290 290 290 293 291 291 289 288 285 285 283 281 280 280 280 280 279 279 279 279 279 281 282 282 282 282 282 283 283 283 283 283 281 279 278 277 277 276 277
287 289 290 289 288 288 287 287 286 286 286 285 283 281 280 279 278 277 277 278 277 276 277 277 277 279 281 281 281 281 281 281 282 282 281 281 282 280 279 278 277 275 274 276
283 284 286 286 286 285 283 283 283 282 282 281 279 279 277 276 275 274 274 275 276 276 276 277 277 280 281 281 280 280 280 280 280 280 280 280 279 278 277 276 274 273 272 273
282 283 283 284 283 283 282 280 279 278 277 277 277 275 274 274 273 273 274 274 274 275 276 277 279 279 280 280 280 280 279 278 278 278 278 278 277 278 277 276 275 274 273 272
281 280 280 280 282 281 280 278 277 276 275 274 272 272 271 272 273 273 274 274 273 273 274 276 277 278 278 279 279 279 278 278 277 277 276 276 276 275 275 274 273 273 272 272
278 278 278 277 278 277 275 275 275 274 274 274 273 273 272 272 272 272 271 269 271 273 275 276 276 275 276 277 277 277 276 275 274 274 274 273 273 271 271 271 272 271 271 270
276 276 275 274 274 274 274 274 273 272 272 272 271 270 269 271 273 273 271 269 271 272 272 272 273 274 274 275 275 274 274 273 273 272 272 271 271 271 270 270 270 270 269 269
275 274 274 274 273 273 274 274 273 273 272 272 271 271 270 269 269 269 270 269 271 270 271 271 271 271 272 272 273 273 272 272 272 271 271 271 270 269 269 269 268 268 269 269
275 274 274 273 272 272 273 272 272 271 270 269 269 268 268 269 271 269 266 269 270 269 269 269 269 269 270 271 271 271 270 270 269 269 269 269 269 268 268 267 268 267 267 266
275 275 274 275 274 273 271 271 271 271 270 270 270 271 271 268 268 269 268 267 266 267 267 268 268 268 269 270 269 269 269 269 268 268 268 267 268 267 267 266 266 267 266 265
275 275 274 273 272 272 271 271 271 271 270 270 269 270 270 271 269 269 269 268 268 268 267 266 267 267 268 268 268 267 266 266 267 267 267 267 266 266 266 266 265 264 264 264
275 275 274 275 275 274 274 273 272 272 271 269 269 269 269 269 269 268 268 267 268 267 268 267 268 268 268 267 267 267 267 267 266 265 266 266 265 265 264 263 264 264 264 263
275 275 274 273 274 274 274 273 272 271 271 270 268 269 268 268 268 268 267 268 268 267 267 267 266 266 266 267 266 266 267 266 262 264 265 265 265 265 264 263 263 263 263 262

GFSNGP_sfc_thetae_093.txt.gz
Theta_e
287 289 289 288 287 288 287 291 287 289 290 294 297 298 300 303 304 305 306 307 310 312 318 319 319 319 319 318 318 318 317 317 316 318 318 319 319 318 317 317 317 316 315 314
286 290 290 287 289 289 289 289 290 291 290 298 301 302 304 305 304 304 305 307 308 310 314 320 320 320 320 319 318 319 319 317 318 318 318 319 319 320 319 318 318 317 316 315
281 288 287 282 287 289 290 291 290 286 294 300 300 302 303 304 307 305 306 308 310 311 311 311 314 320 320 320 320 319 318 320 319 319 318 318 319 319 319 319 320 319 318 318
280 283 273 287 293 293 294 295 296 296 297 299 299 302 305 306 305 308 309 309 310 311 311 311 312 312 314 321 320 319 318 318 320 320 319 319 319 318 318 318 318 319 319 319
278 278 284 288 294 293 291 291 296 295 296 298 301 302 303 305 307 309 309 310 310 311 310 310 310 313 313 315 321 319 318 319 319 320 320 320 319 319 319 319 317 312 303 299
280 278 274 289 294 299 297 286 298 298 297 297 298 294 297 304 308 307 306 307 306 305 304 302 303 309 310 307 311 316 319 320 320 319 319 319 318 314 302 303 294 292 289 290
279 279 283 294 296 299 286 286 297 298 298 299 295 300 304 308 306 305 302 301 302 301 298 298 299 305 301 301 300 302 302 315 318 317 318 313 303 299 295 291 289 286 285 286
280 280 277 295 295 290 292 296 295 295 297 300 302 304 308 304 299 298 296 296 297 296 294 295 295 298 295 294 297 298 298 298 299 302 300 298 295 293 292 289 286 284 283 282
284 283 293 296 294 297 297 293 293 294 297 298 298 297 297 296 294 292 292 291 293 292 291 292 293 292 290 290 292 293 292 292 292 294 295 295 291 288 287 287 285 283 282 281
287 293 295 295 296 296 296 295 294 295 296 296 294 293 292 291 290 289 289 288 290 290 289 289 290 290 289 288 288 286 285 286 287 287 286 287 288 288 286 285 283 282 281 280
291 293 293 292 293 293 294 295 295 295 294 292 291 289 288 286 286 286 286 286 286 285 285 285 288 288 288 287 286 284 283 283 282 283 282 281 282 282 282 282 283 281 281 281
284 287 291 289 291 293 291 291 293 292 291 289 288 286 285 283 283 283 283 283 283 283 283 283 284 285 287 288 286 284 282 281 280 280 280 281 280 280 283 282 283 283 282 282
286 290 291 292 291 291 290 291 292 290 288 286 286 285 283 281 280 280 280 280 280 280 281 281 282 282 284 286 285 283 281 281 280 279 279 278 278 278 276 280 282 283 283 283
288 289 289 290 287 289 288 290 290 288 285 283 283 282 280 279 279 278 278 279 279 280 280 281 281 281 284 284 283 281 281 280 279 278 277 277 276 276 276 275 274 276 280 280
285 288 288 289 289 286 286 286 285 283 282 280 280 278 277 276 275 276 277 278 279 279 279 279 279 280 282 283 283 282 281 280 279 278 278 277 276 276 275 274 274 273 274 275
283 284 284 284 284 285 283 282 281 280 279 278 277 276 275 275 275 275 276 276 275 275 277 277 278 280 281 281 280 280 280 280 279 278 276 275 275 274 273 273 273 273 273 272
278 278 279 279 281 281 280 279 279 278 277 276 276 276 275 274 274 274 274 274 274 274 275 277 277 279 279 279 279 278 278 278 277 276 275 274 273 272 272 271 271 271 271 272
279 278 278 278 279 278 276 276 276 275 274 275 275 273 272 272 271 272 272 273 273 273 274 275 276 276 277 278 277 277 276 276 276 275 275 274 273 272 271 270 270 269 269 269
277 275 275 275 276 275 274 274 274 274 273 273 271 270 270 270 269 269 270 269 269 270 271 274 276 275 275 275 276 275 274 273 272 272 272 272 271 271 270 269 268 268 268 267
274 274 273 272 272 272 270 270 270 270 270 270 270 269 269 268 268 268 268 266 268 269 272 273 274 273 274 275 274 273 272 272 271 270 270 269 268 268 268 267 266 264 263 263
271 270 271 271 270 270 270 269 269 268 269 269 267 266 266 266 268 268 266 265 268 270 271 272 272 272 273 273 273 272 271 270 269 268 268 267 266 265 264 263 263 262 262 262
267 268 267 268 268 268 269 269 268 268 267 267 268 268 267 266 266 266 267 267 268 269 270 270 271 271 271 271 270 269 269 268 268 267 266 265 263 261 260 261 261 260 259 261
269 269 268 267 267 267 268 268 269 268 267 267 266 265 265 265 266 264 263 268 268 268 269 269 269 269 269 269 268 267 266 266 265 264 264 262 261 259 259 259 257 255 254 257
271 272 271 270 270 269 267 268 269 269 268 268 268 268 268 265 265 267 267 267 267 267 267 267 268 268 266 265 265 265 265 264 263 263 263 260 260 257 256 256 256 253 252 255
268 267 268 268 268 268 268 269 269 268 268 267 267 268 268 269 266 267 268 268 268 267 266 266 267 266 265 265 264 263 262 262 262 261 259 258 256 254 252 252 250 251 255 255
272 272 273 273 272 272 271 271 268 268 268 266 267 266 265 267 267 267 267 267 266 265 265 264 264 265 263 264 262 260 260 260 258 259 256 255 257 253 251 251 253 254 251 249
273 272 271 271 271 271 271 271 268 267 266 264 264 264 265 265 265 266 264 263 263 263 262 260 259 261 260 259 259 259 257 253 254 253 252 252 252 252 250 249 249 249 249 250

GFSNGP_sfc_thetae_096.txt.gz
Theta_e
287 288 288 287 286 287 286 287 284 289 290 294 297 300 303 305 306 306 306 306 311 314 316 317 316 316 316 315 316 316 316 315 315 317 319 318 316 315 315 313 313 313 312 312
285 288 288 286 288 288 289 289 288 290 290 299 301 302 303 305 306 304 306 308 309 311 315 318 317 316 317 316 315 316 315 314 315 316 318 318 317 316 315 315 314 313 312 311
280 286 286 281 286 288 289 293 292 287 294 298 298 300 301 304 306 307 308 308 308 308 309 310 313 319 317 317 318 316 315 316 316 316 315 317 318 317 316 315 315 314 313 313
280 281 272 287 295 296 293 293 294 294 295 297 297 301 303 305 304 304 305 304 304 303 304 304 306 310 313 320 318 317 316 316 316 316 315 315 316 317 318 318 316 315 314 314
277 276 282 287 292 292 291 290 296 294 296 297 299 301 300 307 304 301 301 302 300 301 300 300 302 304 305 305 312 318 317 317 318 317 316 316 315 316 317 318 317 317 318 316
279 277 274 287 294 297 296 286 294 295 295 296 298 291 295 305 303 300 300 300 299 298 298 297 298 301 300 300 300 301 303 305 314 319 318 317 316 316 316 316 313 301 295 293
279 278 282 292 295 297 282 284 293 294 296 297 294 294 296 297 295 296 296 296 298 297 295 294 295 298 295 295 295 297 298 299 303 305 312 315 316 308 299 296 295 292 290 288
281 278 276 294 294 287 290 294 294 294 296 296 297 298 296 294 293 292 291 292 293 293 291 292 292 293 291 290 292 292 292 291 291 294 299 299 297 295 293 291 287 285 284 284
284 283 294 294 292 295 294 292 291 292 293 294 292 292 292 290 290 289 288 288 290 289 289 289 290 289 288 288 288 288 287 286 287 287 288 291 293 291 288 289 287 285 283 281
288 292 292 293 294 294 294 292 292 291 291 291 289 289 288 287 286 286 285 285 286 286 285 286 288 288 287 287 286 285 284 283 283 283 283 285 285 287 286 285 284 283 282 281
289 289 290 289 290 291 291 292 291 289 289 287 287 286 285 284 283 283 283 283 284 283 283 284 286 286 287 286 286 283 283 282 282 282 281 281 282 283 283 283 284 282 281 281
281 286 289 287 289 291 289 289 288 288 286 286 285 284 283 281 281 281 281 281 281 282 282 282 284 284 285 285 283 282 280 280 280 281 281 281 280 280 284 283 284 284 284 283
284 287 288 289 288 288 288 286 285 283 283 283 283 282 281 279 279 280 279 280 280 279 281 281 282 282 283 283 282 280 279 279 279 279 279 279 279 279 277 281 283 283 283 284
286 288 287 287 283 285 286 286 285 282 281 280 280 279 278 277 277 277 277 279 279 280 280 280 280 281 283 283 281 280 278 278 277 277 277 277 277 276 276 275 274 276 280 280
283 285 285 286 285 283 284 284 281 279 278 277 277 276 277 275 275 275 277 278 278 278 278 279 278 279 282 282 281 279 278 277 277 276 276 276 276 275 275 274 273 272 272 272
282 282 282 282 283 282 281 280 278 278 278 276 275 275 275 275 274 274 275 276 275 274 276 276 277 278 280 280 279 278 277 277 276 275 274 274 274 273 274 273 272 271 270 270
278 277 278 278 279 277 277 277 277 276 276 276 275 275 275 274 273 273 273 274 274 274 275 275 275 277 278 278 278 277 276 276 275 274 273 272 272 271 271 271 270 269 268 269
276 276 276 277 277 276 275 275 275 275 274 273 273 272 271 270 269 269 270 271 271 271 272 275 275 276 276 276 276 276 275 275 275 273 273 272 271 271 270 269 268 267 267 266
275 273 273 275 275 275 274 274 273 273 271 270 269 268 268 268 268 268 268 268 267 268 270 273 275 274 274 275 275 274 273 272 272 272 272 271 269 269 268 267 267 266 266 265
273 273 272 271 271 270 269 269 268 267 267 268 268 266 265 266 266 267 267 266 267 269 271 272 273 273 273 273 273 272 272 271 270 269 269 268 267 266 265 264 263 263 262 262
268 268 268 268 267 268 267 267 266 266 266 266 265 264 264 266 267 267 266 265 267 270 271 271 271 271 272 272 272 271 270 269 268 267 267 266 265 265 264 263 262 261 262 262
264 265 264 264 266 266 267 267 267 266 266 266 265 266 265 265 265 265 266 266 268 269 270 270 270 269 269 269 269 268 268 268 267 266 265 264 264 263 262 261 260 260 259 257
266 267 266 265 265 266 267 267 267 266 264 264 264 264 264 265 265 264 263 267 269 268 268 268 267 267 268 267 267 266 266 265 264 263 262 262 261 260 260 257 256 257 255 254
267 267 268 269 268 268 266 267 267 267 266 266 266 266 266 264 265 267 267 266 266 266 266 266 266 266 265 265 264 264 264 263 263 262 261 260 258 258 257 256 255 254 254 254
266 265 266 266 266 265 266 266 267 267 267 267 267 268 268 268 265 267 267 266 266 265 264 265 266 265 265 264 263 263 262 262 261 260 259 257 256 255 251 252 249 250 249 249
270 270 270 270 269 270 269 268 266 266 266 265 265 264 265 266 267 266 266 264 264 263 263 262 262 262 262 261 260 259 259 259 258 257 257 255 254 251 249 249 249 249 248 246
271 271 271 270 270 271 270 270 267 266 266 264 263 264 264 264 264 264 262 261 260 259 258 257 258 260 259 258 257 257 255 253 252 252 249 249 249 247 247 247 247 246 246 246

GFSNGP_sfc_thetae_099.txt.gz
Theta_e
288 288 287 286 287 288 285 285 282 286 288 294 297 298 300 303 306 306 304 306 306 311 315 314 313 314 314 314 315 316 315 315 314 313 313 312 313 313 312 312 312 311 311 311
284 286 285 284 287 287 287 288 288 287 288 297 300 301 302 304 305 304 306 305 304 305 306 313 315 314 315 314 315 315 314 314 315 316 315 314 313 314 313 312 312 312 311 311
279 284 283 280 285 287 290 291 292 287 292 297 297 300 301 302 303 303 302 302 301 301 302 303 306 310 314 316 317 316 315 315 315 315 314 317 316 315 313 313 313 311 311 310
278 280 271 285 296 293 292 293 294 294 295 296 296 302 303 302 300 300 299 299 299 299 299 301 303 304 306 313 317 316 315 315 315 314 314 314 317 316 315 314 313 313 311 310
275 276 280 288 290 291 290 288 293 292 295 297 298 301 295 297 299 298 298 299 298 299 297 297 300 300 301 301 307 314 309 314 316 316 315 314 314 315 316 315 314 314 314 313
277 276 271 285 293 296 295 285 292 293 294 294 295 289 292 295 295 295 295 295 296 295 294 293 295 299 298 298 298 298 299 300 303 308 316 315 315 314 315 316 315 314 310 301
277 275 280 290 294 296 282 283 292 293 294 297 293 294 295 296 293 292 292 292 293 292 290 290 292 294 292 292 291 294 294 294 294 296 300 304 315 315 315 314 299 294 289 288
280 276 275 293 293 285 288 293 292 293 294 293 294 294 293 292 291 289 288 288 289 289 288 289 290 290 287 286 289 289 289 289 288 289 291 294 294 294 293 293 289 286 286 285
283 282 291 292 290 293 293 290 291 291 291 292 289 289 289 288 288 287 286 286 287 287 287 287 288 287 285 285 286 286 285 284 285 286 287 287 288 288 287 287 285 285 284 283
287 291 289 291 292 291 292 290 289 289 288 288 287 287 286 285 284 284 284 284 285 284 284 284 286 287 286 285 285 284 283 282 283 283 283 284 285 286 285 284 282 282 281 280
286 287 289 287 288 289 290 289 287 286 285 285 286 284 283 282 281 282 282 282 283 283 282 283 284 284 284 284 284 282 282 282 282 282 282 282 282 283 283 284 285 282 281 281
279 286 287 285 287 289 285 284 284 285 284 284 283 282 282 280 280 280 280 281 280 281 281 282 283 282 282 282 281 280 280 280 280 281 281 281 281 281 284 284 284 284 284 283
284 286 288 287 287 287 283 282 281 281 281 281 280 280 279 278 279 279 279 279 279 279 280 280 281 281 281 281 279 277 276 277 278 278 279 279 279 279 277 279 281 282 283 283
285 289 285 284 282 285 284 283 282 279 278 277 277 278 278 277 277 277 277 278 279 279 279 279 279 280 281 280 279 276 275 276 277 276 276 276 275 274 274 273 272 273 278 279
282 284 284 285 284 282 282 281 279 277 277 276 276 276 276 275 275 275 276 277 278 277 277 278 277 278 280 280 279 277 276 275 274 275 275 275 274 273 272 272 271 271 271 271
281 281 282 282 280 280 279 278 277 277 277 276 275 275 274 274 274 274 274 274 274 273 275 275 276 277 279 278 277 276 275 274 274 273 273 273 273 272 271 271 270 269 269 269
278 277 277 277 277 276 275 276 276 275 276 275 275 275 274 273 272 271 271 273 272 272 274 274 274 276 277 277 276 275 274 274 273 273 272 272 271 270 270 269 268 267 266 267
276 275 276 276 276 275 274 275 274 273 273 272 271 269 268 269 268 269 269 270 270 270 271 273 274 274 274 274 275 275 274 273 273 272 271 270 270 270 269 268 267 265 265 265
274 273 273 275 275 274 274 273 272 271 270 269 267 266 266 266 267 267 268 267 267 267 269 272 274 272 273 274 273 273 272 271 271 270 270 269 268 268 267 266 265 264 264 263
272 272 271 270 269 270 268 268 268 266 267 267 265 265 265 265 265 265 266 265 267 268 270 271 271 272 272 272 272 271 270 269 269 268 267 266 266 265 265 264 264 263 262 261
266 266 266 266 265 266 265 265 265 265 265 264 264 263 263 264 265 264 265 265 267 269 269 269 269 270 270 270 270 269 268 267 266 265 265 264 264 264 263 263 262 262 261 260
263 264 263 264 265 265 265 266 266 265 264 264 263 263 264 264 264 265 266 266 268 268 268 268 268 267 268 268 267 267 267 266 265 265 264 263 262 261 261 261 260 260 258 257
264 265 264 263 264 264 265 265 264 263 263 262 262 263 264 264 265 264 263 267 268 267 267 266 265 265 265 265 265 264 264 263 263 262 262 261 261 260 260 259 258 258 256 256
265 265 264 264 265 266 264 265 267 267 265 266 264 264 265 264 265 267 267 266 264 264 265 265 264 264 263 263 263 262 262 262 261 261 260 259 258 258 257 256 256 254 254 254
265 263 263 263 265 265 266 266 266 267 267 266 267 268 268 268 264 266 265 265 266 264 263 263 263 263 262 262 261 261 261 260 259 259 258 257 255 253 251 253 251 252 250 250
267 266 265 266 267 268 268 267 265 265 265 264 265 263 264 266 266 265 264 263 263 262 261 260 260 260 259 259 258 258 258 258 257 256 255 253 253 252 251 250 249 249 248 246
271 271 270 270 270 270 270 269 267 266 264 261 263 264 264 263 263 263 261 259 259 258 258 257 258 258 258 257 257 255 255 255 254 252 248 248 247 246 246 246 245 245 245 245

GFSNGP_sfc_thetae_102.txt.gz
Theta_e
285 286 287 286 285 286 283 284 281 283 284 291 294 297 299 303 304 304 304 304 302 303 304 312 314 314 314 315 316 315 314 313 311 309 310 310 309 308 309 309 309 311 311 311
282 287 286 284 287 287 287 287 287 286 286 295 297 301 300 301 302 302 301 301 300 300 301 302 305 313 314 314 316 316 314 314 314 313 310 310 310 309 308 310 310 311 310 310
278 284 283 280 283 286 288 289 289 284 291 296 296 299 298 298 299 298 298 298 298 297 298 299 301 303 310 315 316 316 316 316 315 314 313 311 310 311 311 310 311 310 310 310
280 280 271 285 293 292 290 291 293 293 293 296 296 296 296 297 296 296 296 295 295 295 294 295 298 300 304 313 316 315 314 315 316 315 315 315 313 312 312 312 311 310 310 310
277 276 279 287 290 290 289 288 292 291 295 294 296 299 295 296 295 294 293 293 293 293 292 292 294 297 298 299 303 303 304 306 307 312 314 314 314 314 314 312 312 312 311 310
279 276 271 283 292 294 294 284 292 292 295 293 293 288 291 294 293 292 291 291 291 291 290 290 292 293 292 292 292 293 294 296 298 299 304 309 313 314 315 314 312 312 310 307
278 277 280 287 292 295 279 281 291 293 294 295 292 292 293 293 290 290 289 289 290 289 288 288 289 290 288 288 287 289 290 290 290 291 294 295 299 309 312 312 305 294 287 287
280 277 274 290 291 283 286 289 290 290 290 290 291 291 290 289 288 287 286 287 288 287 287 287 288 288 285 284 286 287 286 286 286 287 288 290 290 290 291 291 287 286 285 284
282 281 289 289 289 290 290 288 288 287 288 289 288 288 287 285 285 284 284 284 286 286 285 286 286 285 283 284 285 285 284 284 284 284 285 286 286 286 287 287 285 284 283 281
286 288 288 289 289 289 288 286 286 286 286 288 285 285 284 283 282 282 283 282 283 283 283 283 284 283 283 284 284 283 282 282 283 283 283 283 284 285 284 284 283 282 282 280
285 287 287 287 289 288 286 286 285 284 283 284 284 282 282 280 280 280 281 281 282 282 281 282 282 282 281 281 283 282 282 282 282 282 282 281 282 283 282 283 284 282 281 281
280 284 285 285 286 285 283 282 281 281 281 280 281 280 280 279 279 279 279 280 280 280 280 281 281 280 280 280 280 280 280 280 280 281 280 280 279 279 283 283 284 284 284 282
282 286 286 286 285 285 282 280 279 278 278 277 277 278 279 277 278 279 279 278 278 278 279 279 280 279 279 279 277 276 276 278 278 278 277 277 278 277 275 278 282 282 282 282
284 287 284 283 281 283 282 280 280 278 277 276 276 277 277 276 277 276 276 278 278 278 278 279 279 278 279 279 277 276 275 276 275 276 275 274 273 273 271 270 269 271 277 279
281 284 284 283 282 281 281 280 278 276 276 275 276 275 275 274 274 274 275 276 277 276 276 277 277 277 278 278 277 276 275 274 274 274 273 273 273 272 271 270 269 269 270 270
280 280 281 279 278 278 277 277 276 276 276 275 274 274 273 273 273 272 273 273 272 272 273 274 274 276 278 277 276 275 274 274 273 273 272 272 272 270 269 268 267 266 266 267
278 275 276 277 276 275 274 275 275 275 274 273 273 273 272 272 271 271 270 272 271 271 273 273 273 275 275 276 275 274 273 273 273 272 271 271 270 269 268 267 265 265 264 265
274 275 276 276 275 275 274 274 273 272 271 270 270 268 267 267 268 268 268 270 270 269 270 271 272 273 273 273 273 273 273 272 272 271 271 269 269 268 267 266 265 264 263 263
273 272 272 273 273 273 272 271 270 270 269 268 266 264 265 265 265 266 267 266 266 266 267 270 274 271 272 273 273 272 271 270 270 269 269 268 266 266 264 263 263 263 263 262
271 271 270 269 268 269 267 267 267 265 266 265 265 264 264 264 265 265 266 265 266 267 269 270 270 270 271 271 271 270 270 269 268 267 266 265 264 263 263 262 262 260 260 259
266 266 266 265 264 264 264 262 263 263 263 263 263 263 263 264 265 265 265 264 266 268 268 268 268 269 269 269 269 268 267 266 265 264 264 263 262 262 262 262 261 260 259 259
262 263 262 263 264 263 263 262 263 262 262 262 263 263 263 264 264 265 265 265 267 267 267 267 267 266 266 267 267 265 265 265 264 264 262 262 261 260 260 260 259 259 258 257
262 263 263 262 262 263 264 263 261 261 261 261 261 261 263 264 265 263 262 266 267 266 266 265 264 264 264 264 263 262 262 261 261 260 260 260 259 257 257 258 257 257 256 256
265 265 264 263 264 265 263 264 266 265 263 263 261 260 263 260 264 266 266 265 263 263 263 263 263 263 262 262 262 261 260 260 260 260 259 258 257 257 257 255 254 254 253 252
266 265 265 264 265 265 265 265 265 265 265 265 266 267 267 266 260 262 262 262 264 262 261 260 261 261 260 260 260 259 258 257 257 257 257 255 254 253 253 253 251 250 249 249
267 267 267 267 267 267 267 267 264 264 264 262 263 258 260 262 263 262 261 261 261 261 260 258 258 258 258 258 257 257 257 257 256 255 254 253 254 252 250 249 249 248 247 245
269 270 269 269 270 269 268 268 266 263 262 258 259 260 260 258 259 260 257 256 256 256 256 257 257 258 257 256 257 254 255 254 253 252 249 250 249 247 247 246 245 243 244 244

GFSNGP_sfc_thetae_105.txt.gz
Theta_e
286 287 287 287 287 287 286 286 284 286 287 291 296 299 301 303 304 303 302 301 300 299 298 299 303 311 314 315 315 316 314 312 311 312 312 314 315 315 315 315 316 316 316 316
283 287 287 284 287 288 289 288 289 289 288 297 300 301 298 298 299 298 298 297 297 296 295 295 297 301 314 314 315 316 314 313 313 312 312 313 314 314 315 315 315 315 314 315
279 285 284 280 285 287 288 291 291 286 291 297 296 295 294 295 295 295 294 294 294 293 292 293 295 299 303 312 317 315 315 315 314 312 312 313 314 314 314 314 315 314 314 313
280 282 274 287 294 293 291 291 292 292 294 294 296 295 294 294 293 292 291 292 292 291 291 291 293 295 298 310 316 315 316 315 315 314 313 313 313 314 314 314 313 313 313 312
278 279 282 287 291 291 290 288 293 292 295 295 296 296 292 292 292 290 290 290 291 290 290 290 291 292 293 294 296 297 297 298 301 304 310 314 312 312 315 314 313 312 312 311
281 276 274 285 293 295 295 284 293 293 294 295 295 289 289 291 289 289 289 289 289 289 288 288 289 290 290 289 289 290 291 292 293 295 297 298 300 310 314 314 313 312 301 292
280 278 281 289 291 295 283 284 292 293 292 293 290 290 290 290 288 287 287 287 289 288 286 286 287 288 286 286 286 287 288 289 289 290 291 292 294 294 296 308 293 288 286 286
281 278 275 289 291 287 288 290 290 289 290 290 290 289 288 287 285 285 284 285 286 286 285 285 286 286 284 283 286 286 287 286 286 287 288 289 289 290 290 289 287 285 284 284
283 283 288 290 288 289 291 288 287 288 289 289 287 286 285 284 283 283 282 283 285 284 284 284 284 284 283 283 285 285 285 284 284 285 285 286 286 286 286 286 284 283 283 282
286 287 287 287 287 288 288 286 286 286 287 287 284 284 282 282 281 281 281 281 283 283 282 282 283 282 283 284 285 285 283 283 283 283 283 284 284 284 284 284 284 283 282 281
284 286 287 286 287 286 285 286 284 283 283 283 284 281 281 280 279 280 280 281 281 281 281 281 281 281 282 283 284 283 283 282 282 282 282 281 282 282 282 283 283 282 281 281
279 284 284 283 284 285 282 281 281 282 280 280 281 280 280 279 279 279 279 279 279 279 280 280 280 280 281 281 282 283 281 281 281 281 281 281 280 280 283 283 283 283 283 281
282 285 285 284 284 284 281 280 279 279 279 278 279 279 279 278 278 278 278 278 278 278 279 279 279 278 279 280 280 279 279 280 279 278 278 278 278 278 276 279 282 282 282 282
284 286 282 283 281 282 281 280 280 278 278 277 277 278 278 277 277 276 276 277 278 277 277 278 278 277 278 279 278 277 277 277 278 277 277 277 276 275 275 275 274 275 279 280
282 285 283 283 281 280 281 280 278 277 277 276 277 276 276 275 274 274 275 276 276 276 276 276 276 277 278 278 277 276 276 276 277 277 276 276 276 275 275 275 274 274 275 273
280 281 281 279 278 277 277 277 277 276 276 275 275 274 274 274 274 273 274 274 273 272 273 274 274 276 278 277 277 276 276 275 276 277 276 276 276 275 274 273 272 271 271 271
278 276 276 277 276 275 275 275 275 274 274 273 273 274 273 272 272 272 272 273 272 271 273 273 274 275 276 276 277 276 276 275 275 276 275 274 274 272 272 271 270 269 268 267
275 276 276 276 276 275 274 273 273 272 271 271 270 268 267 268 268 268 269 270 270 270 270 272 273 274 274 275 276 276 276 275 275 274 273 273 272 271 271 270 269 268 267 266
273 273 273 273 274 273 272 271 270 270 269 268 266 265 266 266 267 267 268 268 268 269 269 272 273 273 274 274 275 275 274 274 273 272 271 270 270 270 269 268 268 267 267 266
271 271 270 268 268 269 267 267 267 266 267 266 266 265 265 265 266 266 267 266 267 269 270 271 272 272 272 272 273 273 273 272 271 270 270 269 269 267 266 266 266 266 265 265
266 267 266 266 265 265 265 265 265 265 265 265 265 264 264 266 266 267 268 267 268 269 269 269 270 271 271 271 271 271 271 270 269 269 268 268 267 267 266 266 265 265 264 264
266 265 264 265 265 265 265 265 265 264 265 264 265 265 265 266 266 266 266 267 268 267 269 269 268 267 268 269 270 269 269 268 268 268 267 267 267 266 265 265 264 264 264 264
266 266 265 264 265 265 265 264 264 264 263 263 264 265 266 267 268 266 265 267 268 267 268 267 265 265 266 268 268 267 267 267 266 266 266 266 266 266 265 265 264 264 263 263
267 267 266 267 267 267 265 266 266 265 264 265 264 264 267 266 266 268 267 265 265 265 266 265 265 264 265 266 266 266 266 265 265 265 264 264 264 264 264 263 263 263 262 262
268 268 267 267 267 267 267 267 267 267 267 267 267 268 267 267 266 266 266 266 265 265 265 263 263 263 265 265 265 264 264 264 264 264 263 263 263 262 263 262 262 262 261 261
269 269 269 269 269 269 269 268 267 267 267 266 266 266 266 266 266 266 265 264 264 263 264 264 263 264 264 264 263 263 263 263 263 262 262 262 262 261 261 261 261 261 261 260
271 270 270 270 271 270 270 269 268 267 266 266 265 266 265 265 264 264 263 264 263 263 263 263 264 263 263 263 263 263 263 262 261 262 262 261 261 261 260 260 260 259 259 259

GFSNGP_sfc_thetae_108.txt.gz
Theta_e
289 290 290 290 290 291 290 291 287 289 290 295 298 301 301 301 300 301 300 300 299 298 299 296 295 296 298 316 315 315 314 314 314 315 317 319 318 319 319 318 318 320 318 318
285 289 289 288 290 291 291 291 291 291 291 299 301 299 297 298 298 296 296 296 297 295 294 293 293 294 296 312 315 315 314 313 314 314 314 316 318 318 318 317 318 318 317 317
282 287 287 283 288 290 292 293 293 289 294 297 296 295 293 295 295 293 292 293 293 291 291 291 292 293 294 300 315 314 314 314 314 315 314 315 316 316 316 317 318 317 317 317
283 284 276 290 297 295 292 293 295 294 295 296 296 294 292 293 291 290 290 290 291 290 289 289 290 292 293 301 311 310 309 311 314 314 314 316 315 315 316 317 316 317 317 317
281 281 284 287 291 292 291 289 295 293 295 297 297 294 290 291 290 289 288 288 289 290 289 288 288 289 289 291 294 295 295 296 298 302 307 312 313 314 317 316 317 318 317 316
284 278 276 288 292 298 298 285 294 295 294 295 297 290 287 290 289 288 287 288 288 288 287 286 286 288 288 287 288 288 290 291 293 296 297 297 298 301 311 315 314 311 296 293
282 281 284 291 292 296 285 285 292 293 293 293 289 289 289 290 287 286 286 286 287 287 286 286 286 286 286 286 285 286 288 289 289 290 291 292 293 293 296 299 291 288 286 287
284 280 278 291 294 289 290 292 292 291 292 291 290 288 287 286 284 284 284 284 285 285 285 285 286 287 285 284 285 286 286 287 287 288 288 289 289 289 290 288 286 285 284 284
286 285 289 290 288 291 294 292 291 291 291 290 288 286 285 284 283 283 282 283 284 284 284 285 285 285 284 286 287 286 285 285 285 286 286 287 287 287 286 286 285 283 283 281
286 286 287 287 289 289 291 290 290 291 290 290 286 285 283 282 282 282 282 281 282 282 281 282 284 284 284 286 287 286 285 284 284 283 283 284 284 284 284 284 283 282 281 279
285 286 285 285 286 287 287 288 288 287 288 287 287 284 283 282 281 281 281 281 281 280 280 280 281 282 284 285 287 286 285 285 284 283 282 282 282 282 281 282 283 281 281 281
282 284 284 284 285 286 284 284 285 286 284 285 285 284 284 282 282 281 280 281 280 280 279 279 280 280 281 284 285 287 285 284 283 283 283 282 281 281 283 283 283 283 283 282
284 285 285 284 285 285 283 282 282 283 283 283 282 283 282 281 281 281 282 281 280 279 280 280 279 279 280 281 282 283 283 283 283 282 282 281 281 281 279 280 282 282 282 282
287 287 283 284 281 283 283 282 281 281 282 282 281 282 281 281 281 280 279 280 280 280 280 280 279 279 280 281 281 281 281 281 282 282 281 281 280 280 281 279 278 278 279 279
285 285 283 283 282 282 283 283 281 281 280 280 280 280 280 278 278 278 279 279 279 278 278 278 278 278 280 280 280 281 281 280 280 280 281 280 281 281 280 280 279 279 279 278
282 283 282 281 280 280 281 281 280 279 279 279 278 278 278 278 277 277 277 277 276 275 276 276 276 278 280 281 281 280 280 280 281 281 281 280 280 280 279 279 278 277 277 278
280 279 279 279 278 278 278 278 278 277 277 277 276 277 277 276 276 275 275 275 274 275 276 276 276 277 279 280 281 281 281 280 280 281 280 279 279 278 278 277 276 275 273 273
279 278 278 278 278 278 276 276 276 275 274 274 273 272 271 272 272 272 273 274 274 273 274 275 276 277 277 279 280 280 280 280 279 278 278 278 277 277 276 276 275 273 273 272
276 275 275 276 276 276 275 274 273 272 272 271 270 269 270 270 271 271 272 273 273 273 273 275 276 277 277 277 279 280 279 278 277 277 276 275 276 276 275 275 274 274 273 273
274 273 273 271 271 272 270 270 271 269 270 270 270 270 270 269 270 271 272 270 271 272 273 274 276 276 276 276 277 278 278 277 276 275 275 275 274 273 272 271 272 272 272 271
270 270 269 269 268 268 269 269 269 268 268 269 269 268 269 269 270 272 273 272 271 272 273 273 273 275 275 276 277 277 277 276 276 275 274 273 273 273 272 272 271 271 271 270
270 269 268 269 268 268 269 270 269 269 269 268 268 269 270 270 270 270 269 271 272 271 273 273 272 270 273 274 275 275 274 274 274 274 273 273 272 272 271 271 270 270 270 270
270 270 269 269 269 269 269 268 268 268 268 268 268 270 270 271 272 272 270 270 271 270 272 270 269 270 271 274 274 273 273 272 272 272 272 272 272 271 271 270 270 269 269 269
270 270 270 271 271 271 269 269 270 269 269 269 268 269 271 271 271 272 271 269 268 269 269 269 268 269 270 272 272 272 271 271 271 270 270 269 270 270 269 269 268 268 267 267
271 271 271 271 271 271 271 270 270 270 270 270 270 270 270 271 271 270 271 269 268 270 270 266 267 268 270 270 270 270 270 270 270 270 269 269 268 268 268 268 267 267 266 267
273 274 274 273 273 273 273 273 272 272 271 270 270 270 270 270 270 270 269 268 268 268 269 269 268 269 269 269 268 268 268 268 268 267 267 267 267 267 266 266 266 266 266 266
274 273 274 274 275 275 274 273 273 271 271 271 269 270 270 269 269 269 268 269 269 268 268 268 268 267 268 268 268 268 268 267 265 267 267 267 266 266 265 265 265 265 265 264

GFSNGP_sfc_thetae_111.txt.gz
Theta_e
289 290 292 290 291 292 290 291 287 290 291 295 299 301 300 300 300 300 299 299 300 300 299 301 301 299 296 297 299 316 317 316 316 318 319 321 319 320 320 321 321 320 319 319
287 290 291 289 291 292 292 292 291 292 291 302 302 301 298 297 298 296 295 295 296 296 296 296 296 293 293 294 296 302 314 313 315 316 318 320 319 318 318 320 321 320 318 318
283 288 288 285 290 291 292 293 293 289 295 300 296 295 293 294 293 292 292 293 292 292 292 293 292 291 291 292 293 303 313 313 314 314 316 317 317 317 318 317 319 319 320 320
284 285 278 290 297 295 293 295 296 295 297 299 296 293 291 291 291 291 291 291 289 289 289 290 290 291 291 291 293 306 308 310 314 315 315 315 316 316 317 318 317 317 317 318
282 283 286 289 294 293 292 290 296 295 296 297 294 292 289 291 292 291 289 289 288 289 288 288 287 289 289 288 288 292 293 295 299 304 309 315 314 316 317 317 317 316 317 318
285 280 277 286 292 296 296 287 294 295 294 295 296 290 287 291 292 290 289 288 287 287 287 286 285 287 286 285 286 286 288 290 292 295 297 298 299 303 307 316 311 300 294 292
284 282 286 292 295 295 285 284 293 295 294 294 290 290 290 291 289 289 287 286 287 287 286 285 285 285 285 285 284 285 287 288 288 289 291 292 294 295 296 293 290 288 286 285
286 282 279 293 294 286 288 293 293 293 293 290 290 290 289 288 288 287 285 284 285 285 285 285 285 285 285 284 285 285 285 285 286 285 286 289 289 289 289 288 286 285 283 282
287 284 289 291 289 291 293 292 293 292 292 292 290 289 288 287 286 284 284 283 284 283 283 284 285 285 285 285 286 285 284 284 284 285 285 286 286 286 286 285 284 283 281 280
288 284 285 287 289 291 292 292 292 293 292 292 289 289 287 286 284 284 283 283 283 282 281 281 283 284 285 288 288 286 284 283 283 282 282 283 283 283 283 283 282 281 280 279
285 286 287 287 287 289 289 290 291 290 290 290 290 289 288 286 285 284 283 283 282 281 281 280 281 282 284 286 288 285 285 284 284 283 282 281 281 281 281 282 282 280 280 280
282 284 286 285 287 288 286 286 288 288 288 288 288 287 288 286 285 285 284 284 283 281 281 281 281 282 283 284 285 285 283 283 283 282 282 281 280 280 283 283 283 283 283 282
285 286 286 286 286 287 285 284 285 286 286 286 286 285 285 284 284 284 284 283 282 281 281 281 281 280 282 283 283 283 283 283 283 282 282 282 281 280 278 279 281 282 282 282
288 287 284 285 283 285 285 285 285 284 285 285 285 285 284 283 283 282 281 281 282 281 281 281 281 280 282 283 283 283 283 282 283 283 283 283 282 282 282 280 278 278 280 281
286 286 284 284 284 284 285 285 284 283 284 283 283 282 281 280 279 279 280 281 281 280 279 279 279 279 282 282 282 283 283 282 282 283 283 283 283 282 282 282 281 280 280 280
285 285 284 282 282 281 282 283 283 282 282 282 281 280 280 280 279 278 278 278 277 276 277 277 277 279 281 283 283 283 282 282 282 283 282 282 282 281 280 279 278 277 278 281
283 282 281 280 280 279 279 280 280 280 280 278 277 278 279 278 277 276 276 276 276 276 276 277 278 278 281 282 283 283 282 282 281 281 281 281 281 280 279 278 276 275 275 277
282 281 281 280 280 280 278 278 278 277 275 275 275 274 274 274 274 274 275 277 277 275 276 277 278 279 279 281 282 282 281 281 280 280 280 280 279 279 278 277 276 275 275 275
279 277 277 277 278 278 277 275 274 274 274 273 273 272 272 273 273 274 275 274 275 273 274 277 278 278 278 279 281 282 281 280 279 279 278 278 278 278 278 277 276 276 276 275
276 275 274 272 273 273 272 273 273 272 273 273 273 273 272 271 273 274 275 272 272 274 276 276 278 278 278 279 280 280 279 279 278 277 278 277 276 275 275 275 275 275 275 274
272 272 271 271 270 271 271 272 272 270 271 272 272 271 271 271 271 273 275 274 273 274 276 275 275 277 278 279 279 279 279 278 277 277 277 276 276 276 275 275 275 274 274 273
273 271 271 271 271 271 271 272 272 271 271 270 270 272 273 274 273 271 271 272 274 273 274 274 274 274 276 277 278 278 277 277 277 277 276 276 275 274 274 274 273 273 273 272
273 273 272 271 271 271 272 271 271 271 270 271 271 272 272 273 273 273 271 271 273 272 273 272 271 273 275 276 276 276 275 275 275 275 275 274 274 274 273 273 272 272 272 271
273 273 273 273 273 274 272 272 272 272 271 271 271 271 272 273 273 274 273 271 270 270 270 270 271 272 273 275 274 274 274 274 273 273 273 272 273 272 272 271 270 270 269 269
273 273 273 273 274 274 273 273 273 273 273 273 272 273 273 273 272 272 272 271 270 272 272 269 270 271 273 273 272 272 271 271 272 272 272 271 271 271 271 270 270 269 269 269
276 276 276 275 275 275 275 275 274 274 275 273 273 273 273 273 273 272 271 270 270 270 271 271 270 272 271 271 271 271 271 271 270 270 270 270 270 269 269 268 268 268 268 268
276 275 276 276 277 276 276 274 275 273 273 273 272 273 272 272 271 271 270 271 271 271 271 271 270 269 270 271 270 270 270 268 266 269 269 269 269 268 267 268 267 267 267 266

GFSNGP_sfc_thetae_114.txt.gz
Theta_e
288 289 287 290 290 291 287 289 286 289 290 295 297 296 298 299 299 298 297 297 297 296 296 296 296 296 295 295 296 296 297 305 316 318 319 320 319 319 320 320 319 319 319 318
286 289 290 287 290 290 290 291 291 291 291 298 299 299 296 295 295 294 294 294 294 293 292 292 292 291 292 292 293 294 297 303 317 317 317 318 318 318 319 318 318 318 316 317
282 288 288 284 289 290 291 293 292 288 294 298 294 293 292 292 292 291 291 291 290 290 289 289 289 290 290 292 293 292 299 311 315 316 316 317 317 317 317 317 318 317 316 316
283 286 277 290 295 296 293 295 296 296 296 295 291 291 291 292 291 289 289 289 288 288 287 287 288 288 290 290 290 290 291 296 307 314 315 317 316 316 316 317 316 317 316 316
282 282 286 287 290 290 290 290 295 294 295 293 292 292 289 291 292 289 288 288 287 288 287 287 287 288 288 288 288 288 287 289 292 298 313 315 315 315 316 315 315 312 307 303
284 279 277 285 292 296 296 284 287 294 294 295 294 289 286 290 290 289 287 287 286 287 286 285 285 287 286 285 285 284 285 286 289 292 296 301 305 308 307 307 299 293 289 289
283 281 284 288 293 296 284 282 290 292 291 290 287 288 289 290 289 288 286 285 286 286 285 284 286 285 285 284 284 284 285 286 287 287 289 291 293 295 295 292 288 286 284 284
283 281 278 289 292 285 288 291 292 291 291 289 289 290 289 288 287 285 284 284 284 283 283 284 285 284 284 284 284 285 284 284 284 285 285 288 288 288 289 287 285 283 282 281
284 282 287 289 288 290 292 290 291 291 291 291 289 288 288 286 286 284 283 283 283 282 282 282 283 283 283 284 285 285 283 282 283 284 284 285 285 285 285 284 283 282 280 279
286 284 285 286 289 290 290 290 291 291 291 291 289 289 288 287 285 283 283 282 283 282 281 280 282 283 284 285 286 285 283 282 282 281 281 283 283 283 282 282 281 280 280 278
284 285 287 285 287 288 289 289 290 290 289 289 289 288 287 286 285 285 284 284 282 281 280 280 282 282 283 284 286 284 283 283 281 281 280 280 281 281 281 282 282 280 280 280
280 283 285 283 286 288 285 285 286 287 287 287 287 286 287 284 284 284 283 283 281 281 281 280 281 281 282 284 284 283 282 282 282 281 280 279 278 279 283 283 284 284 284 283
284 287 286 286 286 287 285 284 285 285 285 285 285 285 285 283 283 283 282 281 280 280 280 280 280 280 281 283 283 282 282 282 282 282 282 281 279 278 276 279 282 283 284 284
287 287 284 284 283 286 287 286 286 285 285 284 284 284 283 282 281 280 279 280 280 279 279 279 279 279 282 283 283 282 282 282 282 282 282 281 280 279 278 277 276 277 281 281
285 286 284 284 284 284 286 286 285 282 283 282 282 281 280 279 278 277 278 279 278 278 277 278 277 278 282 283 282 282 282 282 282 282 282 282 281 280 280 279 279 279 280 280
286 285 284 282 282 281 281 281 281 281 280 280 279 279 279 279 278 277 277 276 275 274 276 276 277 277 281 283 283 283 282 282 282 282 281 280 279 278 277 276 275 275 277 278
283 282 281 281 281 279 278 279 279 278 277 276 276 276 278 277 276 276 276 276 275 275 276 276 277 278 279 282 283 283 282 281 281 280 280 279 278 277 276 275 274 274 274 276
282 281 281 280 279 279 277 277 276 275 274 274 275 274 273 272 273 273 275 276 275 273 274 277 278 278 279 281 282 281 280 279 279 278 279 278 277 277 276 275 274 273 273 274
278 276 276 276 277 276 275 274 273 273 273 274 273 272 272 273 273 273 273 272 272 272 273 275 278 278 279 279 281 281 280 279 279 278 278 277 277 277 276 275 274 274 273 272
275 274 273 272 272 273 272 272 273 271 273 274 272 272 271 271 271 273 272 270 271 274 275 274 276 277 278 278 279 280 279 277 277 277 276 275 274 273 273 273 273 273 272 271
272 272 271 271 271 272 272 272 271 270 270 270 271 271 270 271 270 272 273 271 272 274 274 274 274 275 277 278 278 279 278 277 277 276 275 275 274 274 273 273 272 272 271 270
273 272 271 272 271 271 272 272 272 271 271 271 269 271 274 272 271 270 269 271 272 272 273 272 273 273 276 276 276 276 276 276 276 275 275 274 273 272 272 271 271 270 270 270
273 273 272 272 271 271 272 271 271 271 270 270 269 270 272 272 272 271 268 271 271 270 271 271 270 272 274 275 275 275 274 274 273 273 273 273 272 272 271 271 270 270 270 269
274 273 273 274 274 274 272 273 273 272 271 272 269 269 272 273 272 273 272 270 270 269 269 270 270 271 272 273 273 272 273 273 272 272 271 270 271 271 270 269 267 267 267 265
274 274 274 274 274 274 273 274 272 273 273 273 273 273 273 272 271 271 272 271 269 271 271 268 269 269 271 271 271 269 269 269 270 271 270 270 270 269 269 267 267 267 265 265
275 276 276 275 275 276 275 276 274 274 274 273 272 273 273 273 273 272 271 269 270 270 271 270 269 271 270 270 269 269 269 269 269 269 268 268 268 267 266 266 266 266 266 263
276 276 276 276 276 276 275 274 274 273 273 273 272 273 272 272 271 271 270 272 271 271 271 270 269 268 269 269 269 269 268 267 263 268 268 268 267 266 265 265 265 264 263 261

GFSNGP_sfc_thetae_117.txt.gz
Theta_e
287 289 287 287 289 289 287 288 284 288 290 292 292 293 294 294 293 292 292 291 291 290 290 290 290 290 290 291 292 293 293 294 296 300 315 319 320 320 321 321 319 320 321 319
284 289 288 287 289 289 290 290 290 291 291 296 296 295 291 291 291 289 289 289 289 289 289 288 288 288 289 290 290 292 292 293 295 304 315 317 318 318 319 318 318 318 317 316
281 287 287 284 287 289 289 291 292 287 291 293 290 289 289 289 288 288 288 288 288 287 286 287 287 288 287 289 290 290 291 292 293 295 316 317 318 318 317 317 317 315 316 316
280 283 276 286 292 293 288 288 290 292 292 291 289 289 289 289 287 287 287 286 286 286 286 286 287 287 288 288 288 288 288 289 290 291 300 317 317 316 317 316 315 314 314 315
277 278 285 285 286 287 287 285 288 290 291 289 289 289 286 289 288 286 286 286 286 287 286 285 286 286 287 286 286 285 285 286 288 290 292 313 315 315 316 316 314 308 308 305
279 277 275 282 287 291 291 279 289 288 288 290 291 285 283 287 287 285 285 285 285 286 285 284 284 285 285 285 284 283 284 285 287 288 289 291 308 314 313 304 296 293 289 289
278 278 282 285 289 291 280 280 289 289 288 287 284 285 287 287 285 285 284 284 284 284 283 283 284 284 283 284 283 283 284 284 285 286 288 287 291 300 296 291 288 285 284 284
279 277 275 288 287 282 286 290 290 290 289 288 288 288 287 286 284 284 282 282 283 282 282 283 283 283 282 283 284 284 283 282 282 284 285 286 286 288 288 287 284 283 281 280
281 280 286 287 287 289 290 287 288 289 290 289 288 287 286 285 283 283 282 282 283 282 281 282 282 282 281 283 284 284 282 281 280 282 283 285 284 284 283 284 283 281 280 279
284 284 284 285 286 288 288 288 289 288 287 289 287 287 285 285 284 283 282 281 281 281 279 279 280 282 283 284 285 284 282 281 280 280 281 282 283 283 282 282 281 280 279 278
282 283 284 284 285 286 286 287 287 288 286 286 286 285 284 283 283 282 282 281 280 280 278 278 280 281 283 283 284 283 283 282 280 279 279 280 281 282 282 282 282 280 280 281
278 283 283 282 285 285 283 284 285 285 285 285 285 284 283 282 282 281 280 280 279 278 279 278 280 281 282 283 283 282 282 282 281 281 279 279 279 279 283 284 284 284 284 283
283 286 285 285 285 286 284 284 285 284 284 283 283 283 282 280 279 279 279 278 278 277 277 277 278 278 281 282 282 281 281 281 281 280 279 278 278 278 277 280 283 284 284 284
287 287 282 283 282 285 286 287 285 284 283 282 282 281 280 278 277 276 276 277 277 277 277 277 277 277 281 281 281 281 281 281 281 281 281 279 278 278 278 277 276 277 281 282
284 284 283 284 283 282 283 285 282 281 280 279 280 279 278 276 275 275 276 276 276 276 276 276 276 276 279 283 282 281 281 281 281 280 279 278 277 276 276 276 277 277 277 277
285 284 283 281 280 280 280 280 278 277 277 276 276 277 277 276 276 275 275 274 273 273 274 274 275 277 279 281 281 280 280 280 280 279 278 277 276 275 274 274 274 274 274 274
281 277 278 278 278 277 276 276 276 275 275 274 274 275 275 275 275 274 275 274 271 271 273 274 275 277 278 279 278 278 278 279 278 278 277 276 275 274 274 273 272 272 272 273
276 275 275 276 276 275 274 274 274 274 273 273 273 271 271 271 271 271 270 271 269 268 271 272 276 276 277 279 279 278 278 278 277 277 277 276 275 275 273 273 272 271 271 271
274 273 273 274 274 273 273 272 272 273 272 272 269 266 266 268 269 266 263 267 267 267 269 271 276 275 275 278 278 277 276 275 275 275 275 274 274 274 272 272 271 270 270 269
272 272 271 270 270 270 268 267 268 266 267 267 265 266 266 267 268 266 262 265 268 270 269 271 272 274 276 277 276 277 275 273 274 272 272 272 271 271 271 270 270 269 268 267
269 268 267 268 267 266 264 264 263 263 261 262 263 264 264 264 266 267 266 266 268 269 271 271 271 274 275 275 275 274 272 271 272 271 270 269 270 269 269 268 268 266 266 266
266 266 266 266 267 266 267 265 265 264 265 265 265 267 268 266 265 266 264 267 268 268 269 270 271 271 273 273 273 272 272 271 271 271 270 268 267 267 266 265 264 265 264 263
267 268 267 265 264 263 264 264 261 261 260 260 260 263 267 266 268 266 264 268 269 267 269 268 268 269 268 270 270 269 268 268 268 268 268 267 267 267 266 266 266 265 263 264
268 267 266 267 268 270 267 264 265 264 262 263 262 261 267 268 268 270 269 267 266 262 265 268 266 267 265 265 265 265 266 268 267 265 265 263 263 263 261 260 260 258 258 260
266 265 266 267 269 265 266 267 269 268 269 269 268 270 270 269 262 264 262 263 266 266 262 263 265 263 264 266 265 263 264 264 264 265 266 266 265 262 261 262 261 262 263 262
268 271 267 267 268 270 272 273 269 268 273 268 266 262 263 264 268 268 265 264 264 265 262 258 262 265 263 263 261 261 260 262 262 263 261 261 260 259 260 261 260 258 254 252
268 270 271 271 273 271 270 270 270 269 266 264 265 263 265 263 263 265 263 263 263 263 262 258 257 259 261 259 262 263 258 258 260 261 261 261 259 258 258 257 255 253 252 252

GFSNGP_sfc_thetae_120.txt.gz
Theta_e
285 288 288 287 287 288 287 288 284 288 288 289 289 290 289 288 290 289 289 288 288 287 287 287 287 288 289 289 289 290 290 291 292 293 295 298 304 313 320 321 322 322 320 320
283 288 287 285 289 287 287 287 290 289 288 292 291 291 289 288 288 287 287 287 287 287 286 286 286 286 287 288 288 288 288 289 290 292 294 296 300 314 319 319 321 321 319 317
279 285 287 280 283 285 285 286 290 286 289 289 286 286 285 286 286 286 286 285 285 285 285 285 285 286 286 287 288 287 287 287 289 290 291 294 296 315 318 318 318 318 317 316
279 282 276 284 287 288 285 285 286 288 287 287 285 286 286 286 284 284 285 285 285 285 284 284 285 285 286 287 286 285 285 285 287 288 289 292 295 303 317 317 316 316 315 315
277 278 283 283 284 284 284 283 287 287 288 288 287 287 284 286 286 284 284 284 284 285 284 284 284 284 284 285 285 284 283 283 284 286 287 290 291 294 317 316 315 315 314 311
279 277 273 281 284 289 289 278 288 287 287 288 289 282 282 285 285 284 284 283 283 283 283 282 282 283 283 283 282 282 283 282 283 284 285 287 289 290 315 310 299 296 291 292
278 277 280 284 286 288 278 279 288 289 287 286 283 284 285 285 284 283 283 282 282 282 281 281 282 283 282 282 281 283 283 282 282 283 284 286 288 288 294 292 290 287 285 285
277 275 272 285 285 280 284 286 288 289 288 286 286 286 285 284 283 282 281 281 282 280 280 281 281 282 281 281 283 283 282 280 280 282 283 284 285 285 286 287 285 284 284 282
280 279 285 286 285 287 289 286 285 285 287 288 286 285 284 283 282 281 281 280 280 280 280 281 281 282 280 282 284 283 281 280 280 281 282 283 283 283 283 284 283 283 283 280
282 283 283 284 285 287 287 286 287 287 285 287 285 284 283 282 282 281 280 278 277 278 278 278 281 281 282 282 283 282 281 280 280 279 280 282 283 283 282 281 281 281 280 279
280 283 283 283 284 284 284 285 285 286 285 284 284 282 281 280 279 280 278 277 276 275 276 277 279 280 282 282 282 282 281 281 280 280 279 280 281 282 282 283 283 281 281 281
272 278 283 281 284 284 282 283 284 283 282 282 283 281 280 278 278 278 277 277 276 276 276 276 277 279 281 282 281 281 281 280 279 279 279 279 280 280 283 283 284 284 284 283
283 284 283 283 284 286 283 284 284 282 283 281 281 280 278 277 277 277 276 276 275 275 276 275 275 276 279 281 281 281 280 280 280 279 279 278 278 278 277 279 282 283 283 283
286 285 280 283 281 284 284 286 284 282 282 281 280 279 278 276 276 275 275 275 276 275 275 276 276 276 278 281 279 280 280 280 279 278 277 276 276 276 277 276 274 275 279 280
283 283 282 282 282 281 283 283 280 278 278 277 279 277 277 275 274 274 274 275 275 275 275 275 275 275 278 281 279 279 280 279 278 277 276 276 276 275 275 275 275 274 275 275
284 283 281 279 277 278 278 277 276 276 276 276 275 276 276 276 276 274 274 273 272 270 272 272 275 276 277 278 277 277 277 277 277 276 275 275 274 274 274 273 272 272 271 272
277 276 277 277 275 274 274 275 274 274 274 273 273 274 275 274 274 273 272 273 271 270 271 271 273 276 277 277 276 276 276 276 275 276 275 274 274 273 273 272 271 270 270 270
275 275 275 276 274 273 273 273 273 273 272 272 272 271 270 270 269 269 269 270 269 269 269 271 273 275 275 277 276 277 276 276 276 275 275 274 273 273 272 271 271 269 269 269
273 272 273 273 273 272 272 271 271 272 271 269 268 266 266 267 266 263 265 267 267 267 268 271 274 274 275 276 277 275 274 273 273 273 273 272 272 271 270 269 268 268 268 267
271 271 271 270 270 269 266 264 265 265 263 264 263 264 264 265 265 261 261 265 266 267 270 271 272 274 275 275 275 274 273 272 272 271 271 270 269 269 268 268 267 266 265 265
266 266 266 266 265 264 262 261 263 265 265 265 263 263 263 262 265 265 265 265 266 266 270 271 272 273 274 274 273 272 272 272 270 268 268 266 267 267 266 266 265 265 264 263
263 263 261 262 264 261 260 260 261 259 258 260 262 262 261 262 261 262 261 264 268 267 269 270 271 269 270 271 271 270 270 270 269 268 267 266 265 264 263 264 263 262 261 259
265 265 264 262 262 261 260 261 258 258 258 257 259 262 262 262 262 261 261 267 268 267 269 268 267 267 267 266 266 266 267 266 266 266 265 264 262 261 261 261 260 260 259 258
263 264 263 263 263 267 264 261 263 263 259 260 258 258 265 260 261 268 267 264 262 260 261 265 265 266 265 264 265 264 265 265 264 263 264 263 260 259 259 258 257 257 258 257
264 263 263 263 266 264 264 264 265 265 267 268 266 268 269 267 261 262 260 261 265 261 260 261 263 261 261 261 261 261 262 261 262 262 262 261 259 261 260 259 257 258 257 256
265 266 265 267 268 267 267 270 266 268 269 264 264 258 258 260 263 264 262 262 262 261 258 254 256 258 258 258 257 257 260 261 261 261 259 257 256 256 256 256 255 255 253 250
266 267 267 268 269 269 269 270 267 265 265 264 263 260 260 258 258 262 259 257 256 260 256 254 254 256 257 257 258 256 255 256 256 256 254 253 252 252 252 251 250 250 249 250

GFSNGP_sfc_thetae_123.txt.gz
Theta_e
283 286 286 286 286 287 285 286 283 286 284 285 285 286 285 286 287 286 286 287 286 286 286 286 286 286 287 288 288 288 288 287 289 290 291 292 294 296 299 305 317 322 322 323
281 287 286 281 284 285 284 285 288 286 283 288 287 287 286 286 286 285 285 286 286 286 285 285 285 285 286 287 287 288 287 286 288 288 289 290 292 295 298 301 316 320 321 321
278 285 286 279 280 283 283 284 286 283 285 286 284 283 283 284 284 284 284 285 285 284 283 283 283 284 284 286 287 286 286 286 286 287 287 288 290 293 296 298 313 319 320 320
279 282 274 282 286 287 284 284 285 286 285 285 284 284 284 284 283 282 283 283 283 283 282 283 283 283 285 286 285 284 284 284 284 285 285 287 289 291 293 297 307 317 318 318
276 278 281 283 283 282 282 282 286 285 287 288 287 288 282 284 284 282 282 282 283 283 282 282 282 283 284 284 283 283 282 282 282 283 284 285 287 288 291 294 300 316 317 315
279 276 272 279 284 287 288 277 287 286 285 285 286 281 281 284 283 282 282 282 281 281 281 281 281 283 282 282 282 281 281 281 282 282 283 284 285 287 289 292 304 299 293 298
277 278 279 283 285 287 277 277 286 287 286 285 282 283 283 284 283 282 281 281 281 281 280 281 281 282 280 281 281 283 282 280 280 282 283 284 284 286 287 288 289 288 287 287
277 274 271 284 284 279 283 286 285 284 287 286 285 285 284 283 282 281 279 279 279 278 279 281 281 281 280 280 282 283 282 279 279 281 282 283 283 284 285 285 286 285 285 285
280 278 284 285 285 287 287 285 285 284 285 287 285 284 283 282 281 280 279 277 277 276 277 278 280 281 280 280 281 281 279 278 278 279 281 281 282 282 283 283 282 282 284 284
281 283 283 283 285 285 286 284 285 286 284 285 283 282 281 279 279 279 277 274 274 274 275 276 279 280 281 281 282 281 278 278 278 278 279 280 281 282 281 282 282 281 281 281
280 283 283 283 283 283 284 284 284 283 282 283 281 280 279 278 277 276 275 275 274 274 274 275 277 279 281 281 281 281 280 278 278 278 278 279 280 280 280 281 282 281 281 281
269 281 282 281 283 284 280 283 283 283 281 281 280 278 278 276 276 276 275 275 275 275 275 275 276 278 279 281 281 280 279 278 278 278 278 278 278 278 281 281 282 283 283 281
283 284 282 282 283 285 284 283 282 281 281 280 279 279 277 275 276 276 275 275 275 274 274 274 274 275 278 280 280 279 278 278 277 277 277 276 276 276 275 277 279 280 281 281
285 284 280 282 280 282 284 283 282 280 280 279 278 278 277 275 275 274 274 274 275 274 274 274 275 275 277 279 279 279 278 276 275 275 275 275 275 275 275 273 273 273 277 278
283 281 280 279 278 279 281 280 277 276 277 276 278 277 276 275 273 273 274 274 274 273 273 273 274 274 277 278 277 277 277 276 275 274 275 275 275 274 273 272 272 271 272 273
283 280 279 277 275 275 276 276 275 274 274 274 275 275 275 275 275 273 273 273 271 269 271 270 272 274 276 276 274 275 275 275 275 275 274 273 273 273 272 271 270 269 269 269
277 275 277 274 274 274 273 274 274 273 273 273 273 273 274 273 272 271 270 271 270 269 270 270 270 274 274 275 274 274 274 275 274 274 273 273 272 272 271 270 269 268 267 268
276 275 277 276 274 273 272 273 273 272 271 271 271 269 268 267 267 267 267 268 268 268 269 270 271 273 274 275 275 274 273 273 273 273 273 271 271 270 269 269 268 268 267 267
273 273 273 274 273 272 271 270 270 270 268 266 265 265 265 264 262 260 262 264 265 265 267 270 273 274 273 274 275 274 273 271 271 271 271 270 269 269 267 266 266 265 265 265
271 271 270 269 268 268 265 264 263 263 261 261 261 264 265 263 261 259 259 261 263 266 269 270 272 272 273 273 273 273 272 270 271 269 268 268 267 266 266 265 264 263 263 263
265 265 265 265 260 258 257 256 259 259 257 256 260 257 256 257 259 260 262 264 265 268 270 270 270 270 271 271 272 271 270 270 268 267 266 265 265 265 264 264 263 262 262 262
261 261 259 260 262 259 257 258 259 256 256 256 255 255 256 258 257 259 257 261 266 265 268 268 268 267 267 268 269 269 269 269 268 267 266 265 263 263 262 262 262 261 260 260
263 263 262 260 261 260 259 259 256 256 256 255 256 256 259 261 260 259 259 266 267 264 267 265 262 263 263 265 265 265 265 264 264 264 264 262 262 261 260 260 260 258 258 259
263 263 261 262 262 265 263 260 261 261 257 258 256 256 261 258 258 266 266 262 259 258 259 261 260 261 259 261 261 261 262 262 262 261 263 261 260 260 259 258 258 258 257 258
264 261 262 262 264 263 263 262 263 263 264 265 264 267 267 266 260 261 259 260 262 260 257 257 258 257 256 256 256 258 257 258 258 258 258 258 259 259 258 258 257 256 255 254
264 266 265 266 266 266 266 267 264 267 268 263 262 256 257 258 262 262 259 259 260 259 256 252 252 252 253 253 252 254 254 257 256 255 253 254 256 257 257 255 254 253 252 250
264 265 266 266 267 267 267 268 265 265 264 261 260 257 258 256 256 259 255 254 253 254 252 251 251 253 253 252 253 252 252 252 252 252 250 251 252 252 252 252 251 250 249 250